[[{"header":{"parameterUnit":"m.s-1","parameterCategory":1,"la1":31.0,"la2":29.5877,"lo1":-88.7671,"lo2":-86.6584,"dy":0.0162,"dx":0.0185,"nx":115,"ny":88,"refTime":"2026-05-13T12:00:00:Z","depth":0,"parameterNumber":2,"parameterNumberName":"U-component_of_WINDS"},"data":[0.0,0.0,0.0,0.0,0.0,0.0,0.0,0.0,0.0,0.0,0.0,0.0,0.0,0.0,0.0,0.0,0.0,0.0,0.0,0.0,0.0,0.0,0.0,0.0,0.0,0.0,0.0,0.0,0.0,0.0,0.0,0.0,0.0,0.0,0.0,0.0,0.0,0.0,0.0,0.0,0.0,0.0,0.0,0.0,0.0,0.0,0.0,0.0,0.0,0.0,0.0,0.0,0.0,0.0,0.0,0.0,0.0,0.0,0.0,0.0,0.0,0.0,0.0,0.0,0.0,0.0,0.0,0.0,0.0,0.0,0.0,0.0,0.0,0.0,0.0,0.0,0.0,0.0,0.0,0.0,0.0,0.0,0.0,0.0,0.0,0.0,0.0,0.0,0.0,0.0,0.0,0.0,0.0,0.0,0.0,0.0,0.0,0.0,0.0,0.0,0.0,0.0,0.0,0.0,0.0,0.0,0.0,0.0,0.0,0.0,0.0,0.0,0.0,0.0,0.0,0.0,0.0,0.0,0.0,0.0,0.0,0.0,0.0,0.0,0.0,0.0,0.0,0.0,0.0,0.0,0.0,0.0,0.0,0.0,0.0,0.0,0.0,0.0,0.0,0.0,0.0,0.0,0.0,0.0,0.0,0.0,0.0,0.0,0.0,0.0,0.0,0.0,0.0,0.0,0.0,0.0,0.0,0.0,0.0,0.0,0.0,0.0,0.0,0.0,0.0,0.0,0.0,0.0,0.0,0.0,0.0,0.0,0.0,0.0,0.0,0.0,0.0,0.0,0.0,0.0,0.0,0.0,0.0,0.0,0.0,0.0,0.0,0.0,0.0,0.0,0.0,0.0,0.0,0.0,0.0,0.0,0.0,0.0,0.0,0.0,0.0,0.0,0.0,0.0,0.0,0.0,0.0,0.0,0.0,0.0,0.0,0.0,0.0,0.0,0.0,0.0,0.0,0.0,0.0,0.0,0.0,0.0,0.0,0.0,0.0,0.0,0.0,0.0,0.0,0.0,0.0,0.0,0.0,0.0,0.0,0.0,0.0,0.0,0.0,0.0,0.0,0.0,0.0,0.0,0.0,0.0,0.0,0.0,0.0,0.0,0.0,0.0,0.0,0.0,0.0,0.0,0.0,0.0,0.0,0.0,0.0,0.0,0.0,0.0,0.0,0.0,0.0,0.0,0.0,0.0,0.0,0.0,0.0,0.0,0.0,0.0,0.0,0.0,0.0,0.0,0.0,0.0,0.0,0.0,0.0,0.0,0.0,0.0,0.0,0.0,0.0,0.0,0.0,0.0,0.0,0.0,0.0,0.0,0.0,0.0,0.0,0.0,0.0,0.0,0.0,0.0,0.0,0.0,0.0,0.0,0.0,0.0,0.0,0.0,0.0,0.0,0.0,0.0,0.0,0.0,0.0,0.0,0.0,0.0,0.0,0.0,0.0,0.0,0.0,0.0,0.0,0.0,0.0,0.0,0.0,0.0,0.0,0.0,0.0,0.0,0.0,0.0,0.0,0.0,0.0,0.0,0.0,0.0,0.0,0.0,0.0,0.0,0.0,0.0,0.0,0.0,0.0,0.0,0.0,0.0,0.0,0.0,0.0,0.0,0.0,0.0,0.0,0.0,0.0,0.0,0.0,0.0,0.0,0.0,0.0,0.0,0.0,0.0,0.0,0.0,0.0,0.0,0.0,0.0,0.0,0.0,0.0,0.0,0.0,0.0,0.0,0.0,0.0,0.0,0.0,0.0,0.0,0.0,0.0,0.0,0.0,0.0,0.0,0.0,0.0,0.0,0.0,0.0,0.0,0.0,0.0,0.0,0.0,0.0,0.0,0.0,0.0,0.0,0.0,0.0,0.0,0.0,0.0,0.0,0.0,0.0,0.0,0.0,0.0,0.0,0.0,0.0,0.0,0.0,0.0,0.0,0.0,0.0,0.0,0.0,0.0,0.0,0.0,0.0,0.0,0.0,0.0,0.0,0.0,0.0,0.0,0.0,0.0,0.0,0.0,0.0,0.0,0.0,0.0,0.0,0.0,0.0,0.0,0.0,0.0,0.0,0.0,0.0,0.0,0.0,0.0,0.0,0.0,0.0,0.0,0.0,0.0,0.0,0.0,0.0,0.0,0.0,0.0,0.0,0.0,0.0,0.0,0.0,0.0,0.0,0.0,0.0,0.0,0.0,0.0,0.0,0.0,0.0,0.0,0.0,0.0,0.0,0.0,0.0,0.0,0.0,0.0,0.0,0.0,0.0,0.0,0.0,0.0,0.0,0.0,0.0,0.0,0.0,0.0,0.0,0.0,0.0,0.0,0.0,0.0,0.0,0.0,0.0,0.0,0.0,0.0,0.0,0.0,0.0,0.0,0.0,0.0,0.0,0.0,0.0,0.0,0.0,0.0,0.0,0.0,0.0,0.0,0.0,0.0,0.0,0.0,0.0,0.0,0.0,0.0,0.0,0.0,0.0,0.0,0.0,0.0,0.0,0.0,0.0,0.0,0.0,0.0,0.0,0.0,0.0,0.0,0.0,0.0,0.0,0.0,0.0,0.0,0.0,0.0,0.0,0.0,0.0,0.0,0.0,0.0,0.0,0.0,0.0,0.0,0.0,0.0,0.0,0.0,0.0,0.0,0.0,0.0,0.0,0.0,0.0,0.0,0.0,0.0,0.0,0.0,0.0,0.0,0.0,0.0,0.0,0.0,0.0,0.0,0.0,0.0,0.0,0.0,0.0,0.0,0.0,0.0,0.0,0.0,0.0,0.0,0.0,0.0,0.0,0.0,0.0,0.0,0.0,0.0,0.0,0.0,0.0,0.0,0.0,0.0,0.0,0.0,0.0,0.0,0.0,0.0,0.0,0.0,0.0,0.0,0.0,0.0,0.0,0.0,0.0,0.0,0.0,0.0,0.0,0.0,0.0,0.0,0.0,0.0,0.0,0.0,0.0,0.0,0.0,0.0,0.0,0.0,0.0,0.0,0.0,0.0,0.0,0.0,0.0,0.0,0.0,0.0,0.0,0.0,0.0,0.0,0.0,0.0,0.0,0.0,0.0,0.0,0.0,0.0,0.0,0.0,0.0,0.0,0.0,0.0,0.0,0.0,0.0,0.0,0.0,0.0,0.0,0.0,0.0,0.0,0.0,0.0,0.0,0.0,0.0,0.0,0.0,0.0,0.0,0.0,0.0,0.0,0.0,0.0,0.0,0.0,0.0,0.0,0.0,0.0,0.0,0.0,0.0,0.0,0.0,0.0,0.0,0.0,0.0,0.0,0.0,0.0,0.0,0.0,0.0,0.0,0.0,0.0,0.0,0.0,0.0,0.0,0.0,0.0,0.0,0.0,0.0,0.0,0.0,0.0,0.0,0.0,0.0,0.0,0.0,0.0,0.0,0.0,0.0,0.0,0.0,0.0,0.0,0.0,0.0,0.0,0.0,0.0,0.0,0.0,0.0,0.0,0.0,0.0,0.0,0.0,0.0,0.0,0.0,0.0,0.0,0.0,0.0,0.0,0.0,0.0,0.0,0.0,0.0,0.0,0.0,0.0,0.0,0.0,0.0,0.0,0.0,0.0,0.0,0.0,0.0,0.0,0.0,0.0,0.0,0.0,0.0,0.0,0.0,0.0,0.0,0.0,0.0,0.0,0.0,0.0,0.0,0.0,0.0,0.0,0.0,0.0,0.0,0.0,0.0,0.0,0.0,0.0,0.0,0.0,0.0,0.0,0.0,0.0,0.0,0.0,0.0,0.0,0.0,0.0,0.0,0.0,0.0,0.0,0.0,0.0,0.0,0.0,0.0,0.0,0.0,0.0,0.0,0.0,0.0,0.0,0.0,0.0,0.0,0.0,0.0,0.0,0.0,0.0,0.0,0.0,0.0,0.0,0.0,0.0,0.0,0.0,0.0,0.0,0.0,0.0,0.0,0.0,0.0,0.0,0.0,0.0,0.0,0.0,0.0,0.0,0.0,0.0,0.0,0.0,0.0,0.0,0.0,0.0,0.0,0.0,0.0,0.0,0.0,0.0,0.0,0.0,0.0,0.0,0.0,0.0,0.0,0.0,0.0,0.0,0.0,0.0,0.0,0.0,0.0,0.0,0.0,0.0,0.0,0.0,0.0,0.0,0.0,0.0,0.0,0.0,0.0,0.0,0.0,0.0,0.0,0.0,0.0,0.0,0.0,0.0,0.0,0.0,0.0,0.0,0.0,0.0,0.0,0.0,0.0,0.0,0.0,0.0,0.0,0.0,0.0,0.0,0.0,0.0,0.0,0.0,0.0,2.6969,0.0,0.0,0.0,0.0,0.0,0.0,0.0,0.0,0.0,0.0,0.0,0.0,0.0,0.0,0.0,0.0,0.0,0.0,0.0,0.0,0.0,0.0,0.0,0.0,0.0,0.0,0.0,0.0,0.0,0.0,0.0,0.0,0.0,0.0,0.0,0.0,0.0,0.0,0.0,0.0,0.0,0.0,0.0,0.0,0.0,0.0,0.0,0.0,0.0,0.0,0.0,0.0,0.0,0.0,0.0,0.0,0.0,0.0,0.0,0.0,0.0,0.0,0.0,0.0,0.0,0.0,0.0,0.0,0.0,0.0,0.0,0.0,0.0,0.0,0.0,0.0,0.0,0.0,0.0,0.0,0.0,0.0,0.0,0.0,0.0,0.0,0.0,0.0,0.0,0.0,0.0,0.0,0.0,0.0,0.0,0.0,0.0,0.0,0.0,0.0,0.0,0.0,0.0,0.0,0.0,0.0,0.0,0.0,0.0,0.0,2.9497,2.9489,2.8619,2.7761,2.6952,0.0,0.0,0.0,0.0,0.0,0.0,0.0,0.0,0.0,0.0,0.0,0.0,0.0,0.0,0.0,0.0,0.0,0.0,0.0,0.0,0.0,0.0,0.0,0.0,0.0,0.0,0.0,0.0,0.0,0.0,0.0,0.0,0.0,0.0,0.0,0.0,0.0,0.0,0.0,0.0,0.0,0.0,0.0,0.0,0.0,0.0,0.0,0.0,0.0,0.0,0.0,0.0,0.0,0.0,0.0,0.0,0.0,0.0,0.0,0.0,0.0,0.0,0.0,0.0,0.0,0.0,0.0,0.0,0.0,0.0,0.0,0.0,0.0,0.0,0.0,0.0,0.0,0.0,0.0,0.0,0.0,0.0,0.0,0.0,0.0,0.0,0.0,0.0,0.0,0.0,0.0,0.0,0.0,0.0,0.0,0.0,0.0,0.0,0.0,0.0,0.0,0.0,0.0,0.0,0.0,0.0,0.0,0.0,0.0,0.0,0.0,0.0,2.8893,2.8056,2.8051,0.0,0.0,0.0,0.0,0.0,0.0,0.0,0.0,0.0,0.0,0.0,0.0,0.0,0.0,0.0,0.0,0.0,0.0,0.0,0.0,0.0,0.0,0.0,0.0,0.0,0.0,0.0,0.0,0.0,0.0,0.0,0.0,0.0,0.0,0.0,0.0,0.0,0.0,0.0,0.0,0.0,0.0,0.0,0.0,0.0,0.0,0.0,0.0,0.0,0.0,0.0,0.0,0.0,0.0,0.0,0.0,0.0,0.0,0.0,0.0,0.0,0.0,0.0,0.0,0.0,0.0,0.0,0.0,0.0,0.0,0.0,0.0,0.0,0.0,0.0,0.0,0.0,0.0,0.0,0.0,0.0,0.0,0.0,0.0,0.0,0.0,0.0,0.0,0.0,0.0,0.0,0.0,0.0,0.0,0.0,0.0,0.0,0.0,0.0,0.0,0.0,0.0,0.0,0.0,0.0,0.0,0.0,0.0,0.0,0.0,3.0601,3.2928,3.2065,0.0,3.1527,0.0,0.0,0.0,0.0,0.0,0.0,0.0,0.0,0.0,0.0,0.0,0.0,0.0,0.0,0.0,0.0,0.0,0.0,0.0,0.0,0.0,0.0,0.0,0.0,0.0,0.0,0.0,0.0,0.0,0.0,0.0,0.0,0.0,0.0,0.0,0.0,0.0,0.0,0.0,0.0,0.0,0.0,0.0,0.0,0.0,0.0,0.0,0.0,0.0,0.0,0.0,0.0,0.0,0.0,0.0,0.0,0.0,0.0,0.0,0.0,0.0,0.0,0.0,0.0,0.0,0.0,0.0,0.0,0.0,0.0,0.0,0.0,0.0,0.0,0.0,0.0,0.0,0.0,0.0,0.0,0.0,0.0,0.0,0.0,0.0,0.0,0.0,0.0,0.0,0.0,0.0,0.0,0.0,0.0,0.0,0.0,0.0,0.0,0.0,0.0,0.0,0.0,0.0,0.0,0.0,0.0,0.0,0.0,0.0,0.0,3.098,3.2578,3.1241,3.0455,0.0,0.0,0.0,0.0,0.0,0.0,0.0,0.0,0.0,0.0,0.0,0.0,0.0,0.0,0.0,0.0,0.0,0.0,0.0,0.0,0.0,0.0,0.0,0.0,0.0,0.0,0.0,0.0,0.0,0.0,0.0,0.0,0.0,0.0,0.0,0.0,0.0,0.0,0.0,0.0,0.0,0.0,0.0,0.0,0.0,0.0,0.0,0.0,0.0,0.0,0.0,0.0,0.0,0.0,0.0,0.0,0.0,0.0,0.0,0.0,0.0,0.0,0.0,0.0,0.0,0.0,0.0,0.0,0.0,0.0,0.0,0.0,0.0,0.0,0.0,0.0,0.0,0.0,0.0,0.0,0.0,0.0,0.0,0.0,0.0,0.0,0.0,0.0,0.0,0.0,0.0,0.0,0.0,0.0,0.0,0.0,0.0,0.0,0.0,0.0,0.0,0.0,0.0,0.0,0.0,0.0,0.0,0.0,0.0,0.0,3.0625,3.1643,3.2694,3.1786,3.0735,2.9739,0.0,0.0,0.0,0.0,0.0,0.0,0.0,0.0,0.0,0.0,0.0,0.0,0.0,0.0,0.0,0.0,0.0,0.0,0.0,0.0,0.0,0.0,0.0,0.0,0.0,0.0,0.0,0.0,0.0,0.0,0.0,0.0,0.0,0.0,0.0,0.0,0.0,0.0,0.0,0.0,0.0,0.0,0.0,0.0,0.0,0.0,0.0,0.0,0.0,0.0,0.0,0.0,0.0,0.0,0.0,0.0,0.0,0.0,0.0,0.0,0.0,0.0,0.0,0.0,0.0,0.0,0.0,0.0,0.0,0.0,0.0,0.0,0.0,0.0,0.0,0.0,0.0,0.0,0.0,0.0,0.0,0.0,0.0,0.0,0.0,0.0,0.0,0.0,0.0,0.0,0.0,0.0,0.0,0.0,0.0,0.0,0.0,0.0,0.0,0.0,0.0,0.0,0.0,0.0,0.0,0.0,0.0,0.0,0.0,3.2678,3.2795,3.4544,3.5269,3.4117,0.0,0.0,0.0,0.0,0.0,0.0,0.0,0.0,0.0,0.0,0.0,0.0,0.0,0.0,0.0,0.0,0.0,0.0,0.0,0.0,0.0,0.0,0.0,0.0,0.0,0.0,0.0,0.0,0.0,0.0,0.0,0.0,0.0,0.0,0.0,0.0,0.0,0.0,0.0,0.0,0.0,0.0,0.0,0.0,0.0,0.0,0.0,0.0,0.0,0.0,0.0,0.0,0.0,0.0,0.0,0.0,0.0,0.0,0.0,0.0,0.0,0.0,0.0,0.0,0.0,0.0,0.0,0.0,0.0,0.0,0.0,0.0,0.0,0.0,0.0,0.0,0.0,0.0,0.0,0.0,0.0,0.0,0.0,0.0,0.0,0.0,0.0,0.0,0.0,0.0,0.0,0.0,0.0,0.0,0.0,0.0,0.0,0.0,0.0,0.0,0.0,0.0,0.0,0.0,0.0,0.0,0.0,0.0,0.0,3.1151,3.2303,3.4296,3.6936,3.4254,3.2508,0.0,0.0,0.0,0.0,0.0,0.0,0.0,0.0,0.0,0.0,0.0,0.0,0.0,0.0,0.0,0.0,0.0,0.0,0.0,0.0,0.0,0.0,0.0,0.0,0.0,0.0,0.0,0.0,0.0,0.0,0.0,0.0,0.0,0.0,0.0,0.0,0.0,0.0,0.0,0.0,0.0,0.0,0.0,0.0,0.0,0.0,0.0,0.0,0.0,0.0,0.0,0.0,0.0,0.0,0.0,0.0,0.0,0.0,0.0,0.0,0.0,0.0,0.0,0.0,0.0,0.0,0.0,0.0,0.0,0.0,0.0,0.0,0.0,0.0,0.0,0.0,0.0,0.0,0.0,0.0,0.0,0.0,0.0,0.0,0.0,0.0,0.0,0.0,0.0,0.0,0.0,0.0,0.0,0.0,0.0,0.0,0.0,0.0,0.0,0.0,0.0,0.0,0.0,0.0,0.0,0.0,0.0,0.0,0.0,3.1481,0.0,3.582,0.0,3.3843,3.1732,0.0,0.0,0.0,0.0,0.0,0.0,0.0,0.0,0.0,0.0,0.0,0.0,0.0,0.0,0.0,0.0,0.0,0.0,0.0,0.0,0.0,0.0,0.0,0.0,0.0,0.0,0.0,0.0,0.0,0.0,0.0,0.0,0.0,0.0,0.0,0.0,0.0,0.0,0.0,0.0,0.0,0.0,0.0,0.0,0.0,0.0,0.0,0.0,0.0,0.0,0.0,0.0,0.0,0.0,0.0,0.0,0.0,0.0,0.0,0.0,0.0,0.0,0.0,0.0,0.0,0.0,0.0,0.0,0.0,0.0,0.0,0.0,0.0,0.0,0.0,0.0,0.0,0.0,0.0,0.0,0.0,0.0,0.0,0.0,0.0,0.0,0.0,0.0,0.0,0.0,0.0,0.0,0.0,0.0,0.0,0.0,0.0,0.0,0.0,0.0,0.0,0.0,0.0,0.0,0.0,0.0,0.0,0.0,3.1374,3.5588,3.7363,3.7147,3.488,3.4541,3.2104,0.0,0.0,0.0,0.0,0.0,0.0,0.0,0.0,0.0,0.0,0.0,0.0,0.0,0.0,0.0,0.0,0.0,0.0,0.0,0.0,0.0,0.0,0.0,0.0,0.0,0.0,0.0,0.0,0.0,0.0,0.0,0.0,0.0,0.0,0.0,0.0,0.0,0.0,0.0,0.0,0.0,0.0,0.0,0.0,0.0,0.0,0.0,0.0,0.0,0.0,0.0,0.0,0.0,0.0,0.0,0.0,0.0,0.0,0.0,0.0,0.0,0.0,0.0,0.0,0.0,0.0,0.0,0.0,0.0,0.0,0.0,0.0,0.0,0.0,0.0,0.0,0.0,0.0,0.0,0.0,0.0,0.0,0.0,0.0,0.0,0.0,0.0,0.0,0.0,0.0,0.0,0.0,0.0,0.0,0.0,0.0,0.0,0.0,0.0,0.0,0.0,0.0,0.0,0.0,0.0,0.0,0.0,0.0,0.0,3.331,3.4981,3.6626,3.7978,3.359,3.1448,0.0,0.0,0.0,0.0,0.0,0.0,0.0,0.0,0.0,0.0,0.0,0.0,0.0,0.0,0.0,0.0,0.0,0.0,0.0,0.0,0.0,0.0,0.0,0.0,0.0,0.0,0.0,0.0,0.0,0.0,0.0,0.0,0.0,0.0,0.0,0.0,0.0,0.0,0.0,0.0,0.0,0.0,0.0,0.0,0.0,0.0,0.0,0.0,0.0,0.0,0.0,0.0,0.0,0.0,0.0,0.0,0.0,0.0,0.0,0.0,0.0,0.0,0.0,0.0,0.0,0.0,0.0,0.0,0.0,0.0,0.0,0.0,0.0,0.0,0.0,0.0,0.0,0.0,0.0,0.0,0.0,0.0,0.0,0.0,0.0,0.0,0.0,0.0,0.0,0.0,0.0,0.0,0.0,0.0,0.0,0.0,0.0,0.0,0.0,0.0,0.0,0.0,0.0,0.0,0.0,0.0,0.0,0.0,0.0,3.4588,3.6481,3.7929,3.8818,3.4295,3.2142,3.2567,0.0,0.0,0.0,0.0,0.0,0.0,0.0,0.0,0.0,0.0,0.0,0.0,0.0,0.0,0.0,0.0,0.0,0.0,0.0,0.0,0.0,0.0,0.0,0.0,0.0,0.0,0.0,0.0,0.0,0.0,0.0,0.0,0.0,0.0,0.0,0.0,0.0,0.0,0.0,0.0,0.0,0.0,0.0,0.0,0.0,0.0,0.0,0.0,0.0,0.0,0.0,0.0,0.0,0.0,0.0,0.0,0.0,0.0,0.0,0.0,0.0,0.0,0.0,0.0,0.0,0.0,0.0,0.0,0.0,0.0,0.0,0.0,0.0,0.0,0.0,0.0,0.0,0.0,0.0,0.0,0.0,0.0,0.0,0.0,0.0,0.0,0.0,0.0,0.0,0.0,0.0,0.0,0.0,0.0,0.0,0.0,0.0,0.0,0.0,0.0,0.0,0.0,0.0,0.0,0.0,0.0,0.0,0.0,3.8688,4.1221,4.0983,3.7909,3.6543,3.402,0.0,0.0,0.0,0.0,0.0,0.0,0.0,0.0,0.0,0.0,0.0,0.0,0.0,0.0,0.0,0.0,0.0,0.0,0.0,0.0,0.0,0.0,0.0,0.0,0.0,0.0,0.0,0.0,0.0,0.0,0.0,0.0,0.0,0.0,0.0,0.0,0.0,0.0,0.0,0.0,0.0,0.0,0.0,0.0,0.0,0.0,0.0,0.0,0.0,0.0,0.0,0.0,0.0,0.0,0.0,0.0,0.0,0.0,0.0,0.0,0.0,0.0,0.0,0.0,0.0,0.0,0.0,0.0,0.0,0.0,0.0,0.0,0.0,0.0,0.0,0.0,0.0,0.0,0.0,0.0,0.0,0.0,0.0,0.0,0.0,0.0,0.0,0.0,0.0,0.0,0.0,0.0,0.0,0.0,0.0,0.0,0.0,0.0,0.0,0.0,0.0,0.0,0.0,0.0,0.0,0.0,0.0,0.0,0.0,4.124,4.3794,4.4659,4.3669,3.8662,3.5681,0.0,0.0,0.0,0.0,0.0,0.0,0.0,0.0,0.0,0.0,0.0,0.0,0.0,0.0,0.0,0.0,0.0,0.0,0.0,0.0,0.0,0.0,0.0,0.0,0.0,0.0,0.0,0.0,0.0,0.0,0.0,0.0,0.0,0.0,0.0,0.0,0.0,0.0,0.0,0.0,0.0,0.0,0.0,0.0,0.0,0.0,0.0,0.0,0.0,0.0,0.0,0.0,0.0,0.0,0.0,0.0,0.0,0.0,0.0,0.0,0.0,0.0,0.0,0.0,0.0,0.0,0.0,0.0,0.0,0.0,0.0,0.0,0.0,0.0,0.0,0.0,0.0,0.0,0.0,0.0,0.0,0.0,0.0,0.0,0.0,0.0,0.0,0.0,0.0,0.0,0.0,0.0,0.0,0.0,0.0,0.0,0.0,0.0,0.0,0.0,0.0,0.0,0.0,0.0,0.0,0.0,0.0,0.0,3.9777,4.328,4.623,4.7543,4.7165,4.1933,3.8283,0.0,0.0,0.0,0.0,0.0,0.0,0.0,0.0,0.0,0.0,0.0,0.0,0.0,0.0,0.0,0.0,0.0,0.0,0.0,0.0,0.0,0.0,0.0,0.0,0.0,0.0,0.0,0.0,0.0,0.0,0.0,0.0,0.0,0.0,0.0,0.0,0.0,0.0,0.0,0.0,0.0,0.0,0.0,0.0,0.0,0.0,0.0,0.0,0.0,0.0,0.0,0.0,0.0,0.0,0.0,0.0,0.0,0.0,0.0,0.0,0.0,0.0,0.0,0.0,0.0,0.0,0.0,0.0,0.0,0.0,0.0,0.0,0.0,0.0,0.0,0.0,0.0,0.0,0.0,0.0,0.0,0.0,0.0,0.0,0.0,0.0,0.0,0.0,0.0,0.0,0.0,0.0,0.0,0.0,0.0,0.0,0.0,0.0,0.0,0.0,0.0,0.0,0.0,0.0,0.0,0.0,0.0,0.0,4.2299,4.5015,4.8292,4.9586,4.8677,4.5326,4.1202,0.0,0.0,0.0,0.0,0.0,0.0,0.0,0.0,0.0,0.0,0.0,0.0,0.0,0.0,0.0,0.0,0.0,0.0,0.0,0.0,0.0,0.0,0.0,0.0,0.0,0.0,0.0,0.0,0.0,0.0,0.0,0.0,0.0,0.0,0.0,0.0,0.0,0.0,0.0,0.0,0.0,0.0,0.0,0.0,0.0,0.0,0.0,0.0,0.0,0.0,0.0,0.0,0.0,0.0,0.0,0.0,0.0,0.0,0.0,0.0,0.0,0.0,0.0,0.0,0.0,0.0,0.0,0.0,0.0,0.0,0.0,0.0,0.0,0.0,0.0,0.0,0.0,0.0,0.0,0.0,0.0,0.0,0.0,0.0,0.0,0.0,0.0,0.0,0.0,0.0,0.0,0.0,0.0,0.0,0.0,0.0,0.0,0.0,0.0,0.0,0.0,0.0,0.0,0.0,0.0,0.0,0.0,0.0,4.2891,4.6765,4.8915,4.9897,4.9609,4.5638,4.1738,0.0,0.0,0.0,0.0,0.0,0.0,0.0,0.0,0.0,0.0,0.0,0.0,0.0,0.0,0.0,0.0,0.0,0.0,0.0,0.0,0.0,0.0,0.0,0.0,0.0,0.0,0.0,0.0,0.0,0.0,0.0,0.0,0.0,0.0,0.0,0.0,0.0,0.0,0.0,0.0,0.0,0.0,0.0,0.0,0.0,0.0,0.0,0.0,3.2108,0.0,0.0,0.0,0.0,0.0,0.0,0.0,0.0,0.0,0.0,0.0,0.0,0.0,0.0,0.0,0.0,0.0,0.0,0.0,0.0,0.0,0.0,0.0,0.0,0.0,0.0,0.0,0.0,0.0,0.0,0.0,0.0,0.0,0.0,0.0,0.0,0.0,0.0,0.0,0.0,0.0,0.0,0.0,0.0,0.0,0.0,0.0,0.0,0.0,0.0,0.0,0.0,0.0,0.0,0.0,0.0,0.0,0.0,0.0,4.4478,4.7845,4.9683,5.0314,4.9744,4.6857,4.3287,0.0,0.0,0.0,0.0,0.0,0.0,0.0,0.0,0.0,0.0,0.0,0.0,0.0,0.0,0.0,0.0,0.0,0.0,0.0,0.0,0.0,0.0,0.0,0.0,0.0,0.0,0.0,0.0,0.0,0.0,0.0,0.0,0.0,0.0,0.0,0.0,0.0,0.0,0.0,0.0,0.0,0.0,0.0,0.0,0.0,0.0,0.0,0.0,0.0,0.0,0.0,0.0,0.0,0.0,0.0,0.0,0.0,0.0,0.0,0.0,0.0,0.0,0.0,0.0,0.0,0.0,0.0,0.0,0.0,0.0,0.0,0.0,0.0,0.0,0.0,0.0,0.0,0.0,0.0,0.0,0.0,0.0,0.0,0.0,0.0,0.0,0.0,0.0,0.0,0.0,0.0,0.0,0.0,0.0,0.0,0.0,0.0,0.0,0.0,0.0,0.0,0.0,0.0,0.0,0.0,0.0,0.0,4.1832,4.584,4.873,5.0384,5.0798,4.9935,4.8296,4.5037,4.0092,0.0,0.0,0.0,0.0,0.0,0.0,0.0,0.0,0.0,0.0,0.0,0.0,0.0,0.0,0.0,0.0,0.0,0.0,0.0,0.0,0.0,0.0,0.0,0.0,0.0,0.0,0.0,0.0,0.0,0.0,0.0,0.0,0.0,0.0,0.0,0.0,0.0,0.0,3.0732,3.2569,0.0,0.0,0.0,0.0,0.0,0.0,0.0,0.0,3.3581,0.0,0.0,0.0,0.0,0.0,0.0,0.0,0.0,0.0,0.0,0.0,0.0,0.0,0.0,0.0,0.0,0.0,0.0,0.0,0.0,0.0,0.0,0.0,0.0,0.0,0.0,0.0,0.0,0.0,0.0,0.0,0.0,0.0,0.0,0.0,0.0,0.0,0.0,0.0,0.0,0.0,0.0,0.0,0.0,0.0,0.0,0.0,0.0,0.0,0.0,0.0,0.0,0.0,0.0,0.0,0.0,4.1116,4.2229,4.5001,4.9642,5.0714,5.1092,5.083,4.9214,4.5854,4.082,0.0,0.0,0.0,0.0,0.0,0.0,0.0,0.0,0.0,0.0,0.0,0.0,0.0,0.0,0.0,0.0,0.0,0.0,0.0,0.0,0.0,0.0,0.0,0.0,0.0,0.0,0.0,0.0,0.0,0.0,0.0,0.0,0.0,0.0,0.0,0.0,0.0,0.0,0.0,3.383,3.4358,0.0,0.0,0.0,0.0,0.0,0.0,0.0,0.0,3.2911,0.0,0.0,0.0,0.0,0.0,0.0,0.0,0.0,0.0,0.0,0.0,0.0,0.0,0.0,0.0,0.0,0.0,0.0,0.0,0.0,0.0,0.0,0.0,0.0,0.0,0.0,0.0,0.0,0.0,0.0,0.0,0.0,0.0,0.0,0.0,0.0,0.0,0.0,0.0,0.0,0.0,0.0,0.0,0.0,0.0,0.0,0.0,0.0,0.0,0.0,0.0,0.0,0.0,0.0,0.0,4.0731,4.4003,4.725,5.0471,5.1006,5.1136,5.0918,4.8023,4.4614,0.0,0.0,0.0,0.0,0.0,0.0,0.0,0.0,0.0,0.0,0.0,0.0,0.0,0.0,0.0,0.0,0.0,0.0,0.0,0.0,0.0,0.0,0.0,0.0,0.0,0.0,0.0,0.0,0.0,0.0,0.0,0.0,0.0,0.0,0.0,0.0,0.0,0.0,0.0,0.0,3.5054,3.5818,3.4785,0.0,0.0,0.0,0.0,0.0,0.0,3.4737,3.4027,0.0,0.0,0.0,0.0,0.0,0.0,0.0,0.0,0.0,0.0,0.0,0.0,0.0,0.0,0.0,0.0,0.0,0.0,0.0,0.0,0.0,0.0,0.0,0.0,0.0,0.0,0.0,0.0,0.0,0.0,0.0,0.0,0.0,0.0,0.0,0.0,0.0,0.0,0.0,0.0,0.0,0.0,0.0,0.0,0.0,0.0,0.0,0.0,0.0,0.0,0.0,0.0,0.0,0.0,0.0,3.9927,4.5356,4.9148,5.1113,5.1219,5.1101,5.0874,4.7255,4.3796,0.0,0.0,0.0,0.0,0.0,0.0,0.0,0.0,0.0,0.0,0.0,0.0,0.0,0.0,0.0,0.0,0.0,0.0,0.0,0.0,0.0,0.0,0.0,0.0,0.0,0.0,0.0,0.0,0.0,0.0,0.0,0.0,0.0,0.0,0.0,0.0,0.0,0.0,0.0,0.0,0.0,3.7603,3.6314,3.5656,0.0,0.0,0.0,0.0,3.6701,3.6669,0.0,0.0,0.0,0.0,0.0,0.0,0.0,0.0,0.0,0.0,0.0,0.0,0.0,0.0,0.0,0.0,0.0,0.0,0.0,0.0,0.0,0.0,0.0,0.0,0.0,0.0,0.0,0.0,0.0,0.0,0.0,0.0,0.0,0.0,0.0,0.0,0.0,0.0,0.0,0.0,0.0,0.0,0.0,0.0,0.0,0.0,0.0,0.0,0.0,0.0,0.0,0.0,0.0,0.0,0.0,0.0,4.0665,4.4461,4.7999,5.1083,5.124,5.1136,5.1063,4.9001,4.5572,0.0,0.0,0.0,0.0,0.0,0.0,0.0,0.0,0.0,0.0,0.0,0.0,0.0,0.0,0.0,0.0,0.0,0.0,0.0,0.0,0.0,0.0,0.0,0.0,0.0,0.0,0.0,0.0,0.0,0.0,0.0,0.0,0.0,0.0,0.0,0.0,0.0,0.0,0.0,0.0,0.0,3.9857,3.731,3.7544,3.7802,0.0,0.0,3.8389,3.9902,4.0877,0.0,0.0,0.0,0.0,0.0,0.0,0.0,0.0,0.0,0.0,0.0,0.0,0.0,0.0,0.0,0.0,0.0,0.0,0.0,0.0,0.0,0.0,0.0,0.0,0.0,0.0,0.0,0.0,0.0,0.0,0.0,0.0,0.0,0.0,0.0,0.0,0.0,0.0,0.0,0.0,0.0,0.0,0.0,0.0,0.0,0.0,0.0,0.0,0.0,0.0,0.0,0.0,0.0,0.0,0.0,3.819,4.2364,4.7213,5.0714,5.2631,5.2191,5.1863,5.1774,4.8135,4.4399,0.0,0.0,0.0,0.0,0.0,0.0,0.0,0.0,0.0,0.0,0.0,0.0,0.0,0.0,0.0,0.0,0.0,0.0,0.0,0.0,0.0,0.0,0.0,0.0,0.0,0.0,0.0,0.0,0.0,0.0,0.0,0.0,0.0,0.0,0.0,0.0,0.0,0.0,0.0,0.0,0.0,0.0,4.0839,4.0688,0.0,0.0,0.0,4.0879,4.2146,0.0,0.0,0.0,0.0,0.0,0.0,0.0,0.0,0.0,0.0,0.0,0.0,0.0,0.0,0.0,0.0,0.0,0.0,0.0,0.0,0.0,0.0,0.0,0.0,0.0,0.0,0.0,0.0,0.0,0.0,0.0,0.0,0.0,0.0,0.0,0.0,0.0,0.0,0.0,0.0,0.0,0.0,0.0,0.0,0.0,0.0,0.0,0.0,0.0,0.0,0.0,0.0,0.0,0.0,0.0,0.0,0.0,4.3218,4.9342,5.2912,5.3719,5.3091,5.2576,5.2227,4.8058,0.0,0.0,0.0,0.0,0.0,0.0,0.0,0.0,0.0,0.0,0.0,0.0,0.0,0.0,0.0,0.0,0.0,0.0,0.0,0.0,0.0,0.0,0.0,0.0,0.0,0.0,0.0,3.1442,0.0,0.0,0.0,0.0,0.0,0.0,0.0,0.0,0.0,0.0,0.0,0.0,0.0,0.0,4.3114,4.3705,4.3617,4.3465,0.0,0.0,4.3479,4.4561,4.4499,4.2943,0.0,0.0,0.0,0.0,0.0,0.0,0.0,0.0,0.0,0.0,0.0,0.0,0.0,0.0,0.0,0.0,0.0,0.0,0.0,0.0,0.0,0.0,0.0,0.0,0.0,0.0,0.0,0.0,0.0,0.0,0.0,0.0,0.0,0.0,0.0,0.0,0.0,0.0,0.0,0.0,0.0,0.0,0.0,0.0,0.0,0.0,0.0,0.0,0.0,0.0,0.0,0.0,0.0,0.0,0.0,4.2392,4.9049,5.2908,5.3689,5.3586,5.3119,5.2302,5.0341,4.6538,0.0,0.0,0.0,0.0,0.0,0.0,0.0,0.0,0.0,0.0,0.0,0.0,0.0,0.0,0.0,0.0,0.0,0.0,0.0,0.0,0.0,0.0,0.0,0.0,0.0,0.0,0.0,0.0,0.0,0.0,0.0,0.0,0.0,0.0,0.0,0.0,0.0,0.0,0.0,0.0,0.0,4.4624,4.453,4.581,4.6957,0.0,4.636,4.6026,4.7642,4.8566,4.7084,4.1036,0.0,0.0,0.0,0.0,0.0,0.0,0.0,0.0,0.0,0.0,0.0,0.0,0.0,0.0,0.0,0.0,0.0,0.0,0.0,0.0,0.0,0.0,0.0,0.0,0.0,0.0,0.0,0.0,0.0,0.0,0.0,0.0,0.0,0.0,0.0,0.0,0.0,0.0,0.0,0.0,0.0,0.0,0.0,0.0,0.0,0.0,0.0,0.0,0.0,0.0,0.0,0.0,0.0,4.0364,4.451,5.0281,5.3662,5.4427,5.3909,5.3169,5.2235,5.0016,4.6499,0.0,0.0,0.0,0.0,0.0,0.0,0.0,0.0,0.0,0.0,0.0,0.0,0.0,0.0,0.0,0.0,0.0,0.0,0.0,0.0,0.0,0.0,0.0,0.0,0.0,0.0,0.0,0.0,3.5371,3.5794,3.5352,0.0,0.0,0.0,0.0,0.0,0.0,0.0,0.0,0.0,0.0,4.7446,4.8235,4.8972,0.0,0.0,4.8739,4.852,4.9596,4.8985,4.6654,4.1685,3.94,0.0,0.0,0.0,0.0,0.0,0.0,0.0,0.0,0.0,0.0,0.0,0.0,0.0,0.0,0.0,0.0,0.0,0.0,0.0,0.0,0.0,0.0,0.0,0.0,0.0,0.0,0.0,0.0,0.0,0.0,0.0,0.0,0.0,0.0,0.0,0.0,0.0,0.0,0.0,0.0,0.0,0.0,0.0,0.0,0.0,0.0,0.0,0.0,0.0,0.0,0.0,0.0,4.0985,4.5597,5.119,5.4324,5.4932,5.4294,5.3383,5.2175,4.9892,4.6661,0.0,0.0,0.0,0.0,0.0,0.0,0.0,0.0,0.0,0.0,0.0,0.0,0.0,0.0,0.0,0.0,0.0,0.0,0.0,0.0,0.0,0.0,0.0,0.0,0.0,0.0,0.0,0.0,3.7304,3.7311,3.5601,0.0,0.0,0.0,0.0,0.0,0.0,0.0,0.0,0.0,0.0,4.9797,5.1211,5.1312,5.1199,5.1303,5.0184,4.9663,5.0689,4.8996,4.6221,4.245,0.0,0.0,0.0,0.0,0.0,0.0,0.0,0.0,0.0,0.0,0.0,0.0,0.0,0.0,0.0,0.0,0.0,0.0,0.0,0.0,0.0,0.0,0.0,0.0,0.0,0.0,0.0,2.8035,0.0,0.0,2.5514,0.0,0.0,0.0,0.0,0.0,0.0,0.0,0.0,0.0,0.0,0.0,0.0,0.0,0.0,0.0,0.0,0.0,0.0,0.0,0.0,0.0,0.0,4.1285,4.4777,5.1412,5.4837,5.4777,5.4768,5.3868,5.2116,5.0387,4.7461,4.3211,0.0,0.0,0.0,0.0,0.0,0.0,0.0,0.0,0.0,0.0,0.0,0.0,0.0,0.0,0.0,0.0,0.0,0.0,0.0,0.0,0.0,0.0,0.0,0.0,0.0,0.0,3.7124,3.7141,3.6464,0.0,0.0,0.0,0.0,0.0,0.0,0.0,0.0,0.0,0.0,4.9353,5.1405,5.2827,5.2381,5.2226,5.2982,5.0478,4.9108,5.0892,4.9048,4.6412,0.0,0.0,0.0,0.0,0.0,0.0,0.0,0.0,0.0,0.0,0.0,0.0,0.0,0.0,0.0,0.0,0.0,0.0,0.0,0.0,0.0,0.0,0.0,0.0,0.0,0.0,0.0,3.1156,2.9714,0.0,0.0,0.0,0.0,0.0,0.0,0.0,0.0,0.0,0.0,0.0,3.4281,3.4835,0.0,0.0,0.0,0.0,0.0,0.0,0.0,0.0,0.0,0.0,0.0,0.0,4.1839,4.6407,5.1438,5.4033,5.3956,5.3906,5.2988,5.1218,4.956,4.6436,4.1629,0.0,0.0,0.0,0.0,0.0,0.0,0.0,0.0,0.0,0.0,0.0,0.0,0.0,0.0,0.0,0.0,0.0,0.0,0.0,0.0,0.0,0.0,0.0,0.0,0.0,3.8857,0.0,0.0,0.0,0.0,0.0,0.0,0.0,0.0,0.0,0.0,0.0,4.4957,4.778,5.1177,5.3547,5.3815,5.3837,5.379,0.0,0.0,0.0,0.0,0.0,0.0,0.0,0.0,0.0,0.0,0.0,0.0,0.0,0.0,4.2454,3.6284,3.4223,3.3004,3.1487,0.0,0.0,0.0,0.0,0.0,0.0,0.0,0.0,0.0,0.0,0.0,0.0,0.0,0.0,3.2684,0.0,3.0289,0.0,0.0,0.0,0.0,0.0,0.0,0.0,0.0,3.5429,3.6676,3.781,3.8359,3.7846,0.0,3.6084,3.4054,0.0,0.0,0.0,0.0,0.0,0.0,0.0,0.0,4.2842,4.765,5.2158,5.411,5.3464,5.3412,5.2509,5.074,4.9118,4.6111,4.157,3.9585,3.7204,0.0,0.0,0.0,0.0,0.0,0.0,0.0,0.0,0.0,0.0,0.0,0.0,0.0,0.0,0.0,0.0,0.0,0.0,0.0,0.0,0.0,0.0,0.0,4.0383,0.0,0.0,0.0,0.0,0.0,0.0,0.0,0.0,0.0,4.0871,4.4401,4.7919,5.0752,5.3414,5.5131,5.5269,0.0,0.0,0.0,0.0,0.0,0.0,0.0,4.7742,4.7001,4.597,4.5133,4.4961,4.6241,4.6952,4.5979,0.0,0.0,4.0191,3.8196,3.7216,3.6538,3.7112,3.7643,3.7347,3.8792,4.0032,0.0,0.0,0.0,0.0,0.0,0.0,0.0,0.0,3.4279,3.3829,0.0,3.178,0.0,0.0,0.0,0.0,0.0,3.4662,0.0,0.0,3.9882,4.1132,4.121,4.1201,4.0746,3.9959,4.057,3.9093,3.5637,3.2314,0.0,0.0,0.0,0.0,0.0,0.0,4.4189,4.8498,5.3382,5.507,5.3358,5.3282,5.2435,5.0701,4.9122,4.666,4.3342,4.2517,4.0204,3.6079,3.597,0.0,0.0,0.0,0.0,0.0,0.0,0.0,0.0,0.0,0.0,0.0,0.0,0.0,0.0,0.0,0.0,0.0,0.0,0.0,0.0,4.1552,0.0,0.0,0.0,0.0,0.0,0.0,0.0,0.0,0.0,0.0,4.4709,4.7861,5.1695,5.5397,0.0,0.0,0.0,0.0,5.4081,5.5788,5.3366,5.1965,5.3709,5.2056,5.0352,4.986,0.0,0.0,4.796,4.8755,4.8889,4.6467,4.6634,4.6683,4.5935,4.419,4.2932,4.2458,4.2151,4.1841,4.1205,4.2688,4.4282,4.1501,0.0,0.0,0.0,0.0,3.909,3.948,4.0127,3.9612,3.8119,3.5902,3.5249,0.0,0.0,0.0,0.0,0.0,0.0,3.796,4.0015,4.1396,4.2687,4.3896,4.3891,4.37,4.3296,4.2304,4.1225,4.0113,3.8397,3.5032,3.0098,0.0,0.0,0.0,0.0,4.593,5.0132,5.3426,5.4494,5.3321,5.3302,5.2146,4.9836,4.9371,4.8116,4.5924,4.5703,4.4266,4.1296,4.0072,0.0,0.0,0.0,0.0,0.0,0.0,0.0,0.0,0.0,0.0,0.0,0.0,0.0,0.0,0.0,0.0,0.0,0.0,0.0,4.1634,4.1396,4.1284,0.0,0.0,0.0,0.0,0.0,0.0,0.0,0.0,0.0,5.1711,5.3453,5.4629,0.0,0.0,5.7352,5.6371,5.6177,5.6387,5.699,5.5332,0.0,5.4125,5.2116,5.0797,5.1463,5.1847,5.1802,5.1023,5.0699,5.0256,4.9335,4.9356,4.9393,4.8966,4.678,4.5032,4.4853,4.5201,4.548,4.5326,4.6159,4.6877,4.5592,4.371,4.2438,4.2071,4.2371,4.2327,4.2731,4.3304,4.2626,4.1316,3.95,3.8607,3.7348,3.593,3.57,0.0,0.0,0.0,4.0783,4.2646,4.3864,4.5156,4.6448,4.6167,4.5936,4.5763,4.4316,4.3543,4.3487,4.2842,4.0108,3.5489,0.0,0.0,3.9507,4.3813,4.7766,5.125,5.3783,5.4651,5.372,5.3395,5.2338,5.051,5.0488,4.9714,4.8073,4.8369,4.7632,4.548,4.4133,4.2141,0.0,0.0,0.0,0.0,0.0,0.0,0.0,0.0,0.0,0.0,0.0,3.8362,3.7007,0.0,0.0,0.0,4.0412,4.266,4.3466,4.3363,0.0,0.0,0.0,0.0,0.0,0.0,0.0,4.8403,5.1313,5.4063,5.6431,5.7891,5.8387,5.7402,5.8245,5.8543,5.7213,0.0,5.7415,5.7498,5.6511,5.558,5.5246,5.3815,5.2893,5.3275,5.3441,5.313,5.2394,5.1773,5.1215,5.0759,5.05,5.055,5.0872,4.9231,4.7684,4.7306,4.7593,4.7846,4.7499,4.7933,4.8388,4.8634,4.8446,4.548,4.4459,4.4847,4.4829,4.5131,4.555,4.4102,4.3673,4.384,4.1816,4.0828,4.0691,4.0203,0.0,4.0296,4.2774,4.4338,4.528,4.693,4.8119,4.8866,4.8061,4.7673,4.7592,4.6585,4.6021,4.5905,4.5791,4.4953,4.3419,4.2008,4.2078,4.3659,4.6777,4.9658,5.2164,5.4475,5.5253,5.4334,5.3497,5.2738,5.2011,5.2011,5.1239,4.971,5.0439,5.0233,4.8783,4.7818,4.5902,4.2857,0.0,0.0,0.0,0.0,0.0,0.0,0.0,0.0,0.0,0.0,0.0,0.0,0.0,0.0,0.0,4.2726,0.0,4.5835,4.6535,0.0,0.0,0.0,4.5701,4.7472,4.9611,5.1587,5.32,0.0,0.0,5.9197,6.1172,6.226,6.1288,6.0492,5.9728,5.8957,5.8228,5.7688,5.7777,5.7156,5.6716,5.6635,5.5959,5.5238,5.4737,5.4815,5.4039,5.2608,5.2034,5.1567,5.0737,5.0428,5.0579,5.1538,5.1343,5.0988,4.9642,4.9548,4.9375,4.851,4.8795,4.9166,5.2124,5.1953,5.1271,4.9572,4.7339,4.7345,4.7317,4.7299,4.6935,4.6129,4.4997,4.4461,4.3939,4.3442,4.3371,4.406,4.5425,4.6113,4.6912,4.7851,4.8896,4.952,4.9698,4.9481,4.9378,4.9236,4.8296,4.7763,4.7658,4.758,4.7335,4.7045,4.7833,4.7521,4.6205,4.8789,5.1375,5.382,5.5028,5.5231,5.4402,5.3519,5.2738,5.2011,5.2049,5.1583,5.0632,5.0781,5.1022,5.1315,4.9329,4.7842,4.7067,4.2002,0.0,0.0,0.0,0.0,0.0,0.0,0.0,0.0,0.0,4.114,3.7669,0.0,4.2538,0.0,4.3036,4.536,4.7378,4.7224,0.0,0.0,4.9393,5.0221,5.2473,5.3224,5.4143,5.57,5.7813,5.955,6.0662,6.2292,6.3031,6.2132,6.1262,6.043,5.963,5.943,5.9178,5.8673,5.7985,5.7392,5.6883,5.5885,5.4839,5.4142,5.3416,5.2763,5.2249,5.1545,5.0895,5.0577,5.0987,5.1376,5.1558,5.203,5.2018,5.1141,5.0994,5.0883,5.0061,4.9908,4.9834,5.3263,5.3244,5.3205,5.2049,5.0276,5.0317,5.0005,4.9532,4.9192,4.8252,4.6963,4.6684,4.6359,4.6026,4.6175,4.696,4.8255,4.8786,4.9271,4.9809,5.0685,5.0927,5.052,5.014,5.0121,5.037,4.9381,4.9126,4.9451,4.9353,4.9298,4.9355,5.0605,5.076,4.9817,5.151,5.3051,5.4353,5.5125,5.5308,5.4786,5.405,5.3294,5.2531,5.1894,5.0962,4.9807,4.9799,5.0022,5.0544,4.9511,4.8618,4.8077,4.5531,4.2486,0.0,0.0,0.0,0.0,0.0,0.0,0.0,0.0,0.0,0.0,0.0,4.4336,4.3779,4.5918,4.8214,5.0275,5.0717,5.145,5.2781,5.3276,5.4216,5.5912,5.6345,5.7172,5.8731,5.9932,6.1081,6.2184,6.3069,6.3343,6.2746,6.1687,6.0698,6.0009,5.995,5.9688,5.8559,5.8318,5.7583,5.6011,5.5168,5.4297,5.3213,5.2585,5.2061,5.1547,5.0991,5.0661,5.0933,5.13,5.1801,5.2476,5.2855,5.2851,5.2167,5.1836,5.1421,5.0455,5.0063,4.9841,5.3685,5.3897,5.3699,5.3491,5.3374,5.3422,5.28,5.1672,5.104,5.0291,4.9449,4.8656,4.8433,4.8644,4.8668,4.9212,5.0117,5.0998,5.1411,5.1462,5.2297,5.2173,5.1317,5.0597,5.0526,5.1035,5.0284,5.0271,5.088,5.0912,5.0875,5.0894,5.1761,5.257,5.3395,5.428,5.466,5.461,5.5096,5.5339,5.5288,5.4762,5.398,5.3032,5.1586,4.9975,4.8319,4.8255,4.8335,4.8502,4.9006,4.8837,4.7815,4.8487,4.6639,0.0,3.9844,0.0,0.0,0.0,0.0,0.0,0.0,0.0,0.0,4.5597,4.6445,4.7647,5.0046,5.2103,5.3494,5.5016,5.592,5.5874,5.6659,5.7506,5.8309,5.9013,6.0026,6.1484,6.2268,6.2938,6.3381,6.3536,6.3539,6.2975,6.1955,6.0853,6.0042,6.0045,5.9634,5.7824,5.8012,5.7109,5.4857,5.4321,5.3829,5.2348,5.1892,5.1665,5.0952,5.0776,5.096,5.1637,5.1902,5.2336,5.3746,5.3784,5.3451,5.275,5.2265,5.1563,5.0251,4.9561,4.9378,5.6049,5.7105,5.6476,5.6012,5.5809,5.5847,5.4535,5.2399,5.2272,5.2171,5.1978,5.0581,5.079,5.2067,5.0779,5.112,5.2685,5.2933,5.3063,5.3132,5.339,5.3052,5.2258,5.2103,5.1692,5.1152,5.1552,5.1463,5.0919,5.147,5.1742,5.1702,5.2608,5.3455,5.428,0.0,0.0,0.0,5.5568,5.5275,5.5288,5.526,5.4287,5.23,5.1296,0.0,4.7583,4.7482,4.7791,4.8463,4.8643,0.0,0.0,0.0,0.0,0.0,0.0,0.0,0.0,0.0,0.0,0.0,4.8321,4.7794,4.7017,4.995,5.1731,5.137,5.349,5.5037,5.5224,5.6076,5.6621,5.6659,5.7915,5.9033,5.9786,6.0571,6.1408,6.2205,6.2981,6.3448,6.3535,6.3917,6.3691,6.2485,6.1996,6.1204,5.9839,5.9853,5.9305,5.7749,5.6806,5.5568,5.4081,5.3664,5.2974,5.1413,5.0989,5.1145,5.1446,5.1523,5.1765,5.2494,5.3197,5.362,5.3949,5.4344,5.4314,5.3277,5.2391,5.1381,4.977,4.8783,4.8109,5.742,0.0,5.7583,5.7086,0.0,5.6453,5.5445,5.3819,5.34,5.3046,5.2666,5.1926,5.2135,5.2954,5.2218,5.2608,5.3917,5.4027,5.411,5.4149,5.4245,5.3858,5.3106,5.3106,5.2809,5.2356,5.2724,5.2414,5.1576,5.2278,5.2454,5.205,5.334,5.4169,5.4513,5.557,5.6244,5.648,5.5641,5.521,5.5236,5.5044,5.4172,5.2608,5.1043,0.0,0.0,0.0,0.0,0.0,0.0,0.0,0.0,0.0,0.0,4.6785,4.6746,4.7104,4.7961,4.8413,4.978,5.2319,5.3598,5.3327,5.1231,5.3359,5.4946,5.5302,5.6792,5.7846,5.8135,5.8782,5.9051,5.8628,5.9502,6.0373,6.0776,6.1438,6.2146,6.2807,6.3303,6.3648,6.3879,6.3804,6.3275,6.2108,6.1544,6.0905,5.9847,5.9719,5.9176,5.7649,5.6481,5.5064,5.3557,5.3092,5.2593,5.1446,5.1139,5.148,5.2142,5.2296,5.2541,5.3288,5.3836,5.4167,5.44,5.4676,5.4427,5.3311,5.2207,5.0956,4.9524,4.8567,4.7794,5.8259,5.8464,5.8245,5.7668,5.6992,5.6882,5.6331,5.5493,0.0,0.0,0.0,5.3417,5.3569,5.3708,5.3612,5.4164,5.5052,5.4957,5.4989,5.5161,5.5118,5.471,5.3934,5.3895,5.3804,5.3606,5.37,5.3249,5.2387,5.3202,5.3261,5.2759,5.4009,5.4843,5.515,5.5423,5.5923,5.6549,5.569,5.5183,5.5183,5.4776,5.4117,5.3244,5.1022,4.9103,4.7571,4.6064,4.525,4.5269,4.5179,4.5896,4.7523,4.8911,4.9753,5.0034,5.0969,5.1982,5.2995,5.3147,5.4002,5.5847,5.7945,5.818,5.5916,5.6571,5.766,5.9031,5.9815,6.045,6.0968,6.1414,6.1447,6.0713,6.1001,6.1326,6.1586,6.2122,6.274,6.3351,6.3614,6.3842,6.4214,6.38,6.3087,6.2183,6.1468,6.0454,5.9664,5.9392,5.9039,5.7975,5.6829,5.5299,5.3594,5.2996,5.259,5.1926,5.1773,5.2117,5.2829,5.3082,5.3378,5.4091,5.4218,5.4417,5.4752,5.4692,5.4209,5.3227,5.1897,5.0564,4.946,4.8472,4.7512,5.886,6.0015,5.9262,5.8768,5.8517,5.8509,5.8081,5.7206,5.6407,5.596,5.5788,5.6011,5.646,5.7111,5.5768,5.6121,5.7639,5.629,5.6114,5.6892,5.6319,5.5559,5.4745,5.4745,5.4304,5.36,5.4281,5.4116,5.3391,5.4087,5.4434,5.4357,5.4589,5.5712,5.7473,5.6951,5.6933,5.7548,5.5968,5.5168,5.5183,5.5322,5.472,5.3301,5.1686,5.0065,4.8472,4.7553,4.7038,4.7047,4.7708,4.8223,4.8513,4.9478,4.9963,5.0073,5.1515,5.3112,5.4749,5.5483,5.6834,5.9095,6.0328,6.0411,5.9318,6.0539,6.1464,6.1627,6.2204,6.2695,6.2732,6.2041,6.1781,6.2078,6.1576,6.1671,6.2927,6.3122,6.3426,6.4105,6.4254,6.4254,6.4249,6.4212,6.3761,6.297,6.1806,6.098,5.9628,5.8798,5.8646,5.861,5.7246,5.5648,5.4458,5.3917,5.3308,5.2509,5.2527,5.2908,5.3709,5.3937,5.4205,5.4787,5.4901,5.4867,5.4698,5.4401,5.3977,5.3309,5.1885,5.041,4.9675,4.8139,4.6601,5.972,6.0275,5.9836,5.9329,5.8821,5.8415,5.8025,5.772,5.7815,5.753,5.7063,5.7205,5.7477,5.7825,5.72,5.7397,5.8226,5.7523,5.7505,5.7976,5.7644,5.7056,5.6296,5.6226,5.5785,5.4994,5.5272,5.5006,5.4315,5.5011,5.5183,5.4851,5.5647,5.7062,5.871,5.7536,5.7111,5.7739,5.6099,5.5236,5.5288,5.5531,5.5168,5.409,5.2988,5.1903,5.0759,4.9917,4.9526,4.9526,4.9885,5.0313,5.0819,5.1637,5.2308,5.284,5.4437,5.5918,5.7165,5.8442,5.9607,6.0716,6.1918,6.2412,6.1911,6.2527,6.3119,6.3492,6.3743,6.377,6.3618,6.3138,6.2725,6.2378,6.2318,6.2593,6.3201,6.3653,6.3952,6.4289,6.4364,6.4324,6.4284,6.4324,6.3798,6.2595,6.1318,6.0154,5.9365,5.899,5.8913,5.9065,5.801,5.6428,5.4919,5.4396,5.3943,5.3205,5.3259,5.3746,5.4459,5.4728,5.4919,5.5026,5.5085,5.4844,5.4401,5.4125,5.3795,5.3216,5.1944,5.0633,4.9611,4.7745,4.6009,6.0264,6.0197,6.0137,5.9726,5.9079,5.852,5.8282,5.8425,5.912,5.8977,5.832,5.8377,5.8432,5.8448,5.8426,5.8587,5.8858,5.8543,5.8587,5.8867,5.8729,5.8319,5.7754,5.7721,5.7318,5.6682,5.6416,5.5973,5.5509,5.6012,5.6106,5.583,5.6958,5.824,5.9463,5.8112,5.7596,5.7974,5.6473,5.5568,5.5427,5.5638,5.5499,5.4975,5.4258,5.365,5.3075,5.2271,5.1871,5.1871,5.1849,5.2161,5.2853,5.368,5.4585,5.5489,5.6853,5.8178,5.926,6.065,6.1447,6.1405,6.2831,6.3671,6.3608,6.3852,6.4247,6.4768,6.4706,6.4507,6.4314,6.4007,6.3512,6.2854,6.3048,6.3314,6.3463,6.3949,6.4284,6.4284,6.4284,6.4284,6.4324,6.4364,6.38,6.2332,6.0942,6.0079,5.9665,5.9591,5.9553,5.9103,5.8465,5.7152,5.52,5.4693,5.4403,5.3913,5.405,5.4417,5.4993,5.5275,5.5195,5.5057,5.4852,5.4533,5.4125,5.3757,5.3404,5.2834,5.1692,5.039,4.8923,4.7116,4.5528,6.0205,6.0045,6.0013,5.9975,5.9855,5.984,5.9892,6.0027,6.0227,6.0217,6.0064,6.0196,6.0185,6.0135,5.9486,5.971,6.0492,5.9107,5.8935,5.9641,5.9033,5.8645,5.8612,5.8596,5.8501,5.8235,5.7521,5.7095,5.7018,5.7134,5.7521,5.8178,5.841,5.88,5.938,5.9249,5.9114,5.9025,5.7506,5.6242,5.549,5.566,5.5827,5.5879,5.5157,5.4802,5.4819,5.4042,5.3584,5.3545,5.3593,5.3623,5.3779,5.4528,5.5433,5.6308,5.7243,5.8403,6.001,6.0966,6.1369,6.1438,6.2758,6.3631,6.3604,6.4763,6.55,6.5482,6.5282,6.5092,6.4965,6.4229,6.3906,6.4142,6.3691,6.354,6.4063,6.4247,6.4284,6.4284,6.4284,6.4284,6.4284,6.4249,6.3911,6.3009,6.2407,6.1693,6.0566,6.0304,6.0003,5.914,5.7978,5.7078,5.6293,5.5416,5.5007,5.4791,5.4857,5.5037,5.5195,5.5168,5.5019,5.4844,5.4495,5.4123,5.368,5.3235,5.2813,5.2354,5.1263,4.9699,4.7648,4.6274,4.5352,6.0076,6.0013,5.995,5.9982,6.0013,6.0007,6.0137,6.0294,6.0323,6.0342,6.0436,6.0491,6.0506,6.0533,6.0227,6.0473,6.092,6.0287,6.0228,6.0683,6.0367,5.9979,5.9568,5.9426,5.916,5.86,5.7731,5.7559,5.7985,5.8058,5.8523,5.9261,5.9339,5.9649,6.0188,5.9672,5.9331,5.9166,5.7621,5.6659,5.6345,5.6015,5.5904,5.6084,5.6287,5.6472,5.6581,5.6738,5.665,5.6182,5.6104,5.587,5.5442,5.5754,5.6299,5.7204,5.849,5.9776,6.0965,6.1289,6.1383,6.1356,6.231,6.309,6.3548,6.4484,6.5152,6.5475,6.5383,6.5296,6.5188,6.4685,6.4439,6.452,6.4257,6.4143,6.4287,6.4284,6.4284,6.4284,6.4244,6.4244,6.4209,6.3871,6.3498,6.3123,6.2746,6.1956,6.083,6.0529,6.0115,5.9213,5.8166,5.7529,5.7229,5.7105,5.6441,5.5844,5.5788,5.5843,5.5282,5.514,5.499,5.473,5.4443,5.4019,5.3521,5.2987,5.2545,5.1957,5.0615,4.9023,4.7592,4.6305,4.5206,6.0013,5.9982,5.9918,5.9918,5.9982,6.0013,6.0106,6.0235,6.0294,6.0352,6.0436,6.0453,6.0686,6.0942,6.08,6.0804,6.0997,6.106,6.1173,6.1297,6.1314,6.098,6.0429,6.0312,5.9968,5.9332,5.8505,5.8372,5.8874,5.8678,5.9142,6.0035,5.992,6.0131,6.0673,6.0056,5.9714,5.9486,5.7991,5.7243,5.7247,5.6405,5.6075,5.6482,5.7144,5.7663,5.7992,5.8666,5.8724,5.81,5.8061,5.7672,5.6892,5.7057,5.7524,5.8421,5.9824,6.0906,6.1559,6.1433,6.1383,6.1433,6.1978,6.2704,6.351,6.4176,6.4807,6.5437,6.5413,6.5328,6.5194,6.5027,6.4817,6.4671,6.4634,6.452,6.4403,6.4364,6.4364,6.4364,6.4324,6.4206,6.4249,6.3873,6.3535,6.3462,6.2972,6.2181,6.143,6.1016,6.0488,5.9588,5.8802,5.8165,5.7826,5.7627,5.7418,5.6967,5.653,5.6158,5.5559,5.5493,5.5341,5.5233,5.4825,5.4503,5.4289,5.3712,5.2542,5.1669,5.0317,4.8731,4.7761,4.6389,4.5056,5.9982,5.9918,5.9885,5.9885,5.9918,5.9982,6.0038,6.0137,6.0226,6.038,6.0453,6.0556,6.1109,6.1935,6.1243,6.0888,6.1036,6.1157,6.1212,6.1297,6.1306,6.1283,6.1244,6.1236,6.1148,6.0803,5.9976,5.9648,5.9725,5.9068,5.9416,6.0886,6.021,6.0128,6.0773,6.0608,6.0533,6.0353,5.8832,5.8097,5.8063,5.6715,5.636,5.7188,5.7496,5.797,5.8802,5.8987,5.8996,5.8957,5.8918,5.8529,5.7836,5.8437,5.9225,6.0083,6.0993,6.1481,6.1489,6.1369,6.1327,6.1399,6.1944,6.2626,6.345,6.4162,6.4885,6.5531,6.5465,6.5321,6.5095,6.4993,6.4853,6.4707,6.4671,6.4596,6.4596,6.4444,6.4481,6.4558,6.452,6.4481,6.4403,6.4326,6.4174,6.4174,6.4134,6.3721,6.2818,6.2103,6.12,6.0338,5.9552,5.8877,5.7975,5.8069,5.7775,5.74,5.7139,5.6549,5.6407,5.6273,5.6064,5.5923,5.588,5.5693,5.5391,5.4419,5.3003,5.1658,4.996,4.8603,4.7824,4.6206,4.4868,5.995,5.9982,5.9918,5.9918,5.9982,5.995,6.0013,6.0099,6.0167,6.0285,6.0594,6.1107,6.1672,6.2089,6.2413,6.2309,6.1911,6.1986,6.1746,6.1384,6.1337,6.1352,6.1352,6.133,6.1297,6.1148,6.0342,5.9919,5.9957,6.0074,6.0499,6.0944,6.073,6.0646,6.085,6.0734,6.066,6.0531,5.9019,5.8204,5.8276,5.6866,5.6482,5.7377,5.756,5.8059,5.8948,5.9542,5.9824,5.9832,5.9824,5.9434,5.8749,5.9389,6.0028,6.0371,6.1127,6.1607,6.1539,6.1396,6.1298,6.1361,6.1983,6.2723,6.3471,6.4209,6.496,6.5486,6.5523,6.5352,6.5188,6.5061,6.4886,6.4743,6.467,6.4633,6.4634,6.4596,6.4596,6.4596,6.4558,6.4443,6.4403,6.4324,6.4284,6.4284,6.4284,6.3946,6.3116,6.217,6.1344,6.0447,5.9701,5.9178,5.9024,5.9001,5.8925,5.8555,5.8149,5.773,5.7463,5.7118,5.6898,5.6677,5.6742,5.6325,5.5802,5.4527,5.3131,5.1863,5.0115,4.8633,4.7748,4.6281,4.506,6.0843,6.0836,6.0545,6.0431,6.0418,6.0089,6.0045,6.0167,6.0197,6.0342,6.0659,6.1531,6.2156,6.2621,6.3252,6.3495,6.3168,6.2775,6.205,6.1322,6.1352,6.1419,6.1405,6.1361,6.133,6.122,6.0631,6.0306,6.0344,6.0809,6.1079,6.1118,6.1059,6.0959,6.0916,6.0804,6.0796,6.0488,5.9358,5.8693,5.8644,5.7309,5.68,5.7366,5.7313,5.7798,5.8927,5.9551,6.0036,6.0286,6.0317,6.02,5.995,6.0197,6.051,6.0815,6.1244,6.1559,6.1528,6.1408,6.1423,6.1679,6.212,6.2839,6.3861,6.447,6.5072,6.5526,6.5608,6.5444,6.5321,6.5194,6.4993,6.4779,6.4743,6.4707,6.4745,6.4707,6.4707,6.4708,6.4596,6.4482,6.4443,6.4441,6.4364,6.4324,6.4324,6.3981,6.3416,6.2504,6.164,6.086,6.0228,5.9777,5.9578,5.9582,5.9671,5.9345,5.8834,5.8529,5.8348,5.797,5.7737,5.751,5.7191,5.6699,5.5785,5.4495,5.3304,5.2183,5.05,4.882,4.7705,4.6522,4.5168,6.2635,6.2437,6.1766,6.1271,6.1141,6.0548,6.0205,6.0408,6.0533,6.0759,6.1045,6.1747,6.2775,6.3428,6.3801,6.4213,6.448,6.343,6.2299,6.1516,6.1483,6.1458,6.1419,6.1405,6.1361,6.1297,6.1116,6.1041,6.1002,6.1157,6.1234,6.1099,6.1215,6.1214,6.1002,6.0993,6.0949,6.068,5.9948,5.9567,5.9493,5.8178,5.742,5.7405,5.6897,5.7284,5.8796,5.8952,5.9389,6.0184,6.0379,6.0822,6.1264,6.0918,6.0795,6.1361,6.1556,6.151,6.1484,6.1381,6.164,6.2228,6.2451,6.3187,6.4461,6.49,6.5196,6.5653,6.569,6.5552,6.5413,6.5258,6.5095,6.4924,6.4817,6.4779,6.4886,6.4815,6.4743,6.4853,6.4743,6.4707,6.467,6.4596,6.4519,6.4443,6.4364,6.4284,6.4019,6.3144,6.251,6.1957,6.1093,6.0301,6.0127,5.9975,6.0038,5.9985,5.9443,5.9024,5.9003,5.8798,5.864,5.8446,5.8315,5.7782,5.619,5.4905,5.3447,5.2183,5.0519,4.8938,4.7626,4.6384,4.5094,6.2249,6.1842,6.1482,6.1088,6.0751,6.0951,6.1065,6.1239,6.1907,6.2284,6.249,6.3397,6.4093,6.4492,6.508,6.5258,6.5058,6.4511,6.3612,6.2439,6.226,6.1938,6.1486,6.1394,6.1337,6.122,6.1173,6.1118,6.1195,6.1698,6.1737,6.137,6.222,6.2084,6.1157,6.1481,6.1593,6.0938,6.0169,5.9765,5.9669,5.8811,5.8071,5.7521,5.7325,5.7284,5.729,5.7868,5.8577,5.9502,6.0074,6.0776,6.1452,6.1426,6.1426,6.1609,6.1547,6.15,6.1507,6.1419,6.1663,6.2405,6.2954,6.3787,6.485,6.5406,6.5727,6.5905,6.5795,6.5635,6.5465,6.5352,6.5161,6.4993,6.4888,6.4853,6.4924,6.492,6.4993,6.5061,6.4958,6.4817,6.4707,6.4633,6.4634,6.452,6.4403,6.4284,6.4131,6.3484,6.2803,6.2595,6.162,6.0823,6.061,6.0349,6.0137,6.0197,5.9854,5.9549,5.9528,5.9482,5.9355,5.9197,5.9102,5.8303,5.6742,5.5254,5.3764,5.2272,5.0739,4.9136,4.7523,4.6254,4.509,6.3074,6.2399,6.2002,6.1675,6.1325,6.1593,6.185,6.2174,6.2874,6.3182,6.3424,6.4301,6.4817,6.4883,6.5159,6.5218,6.5058,6.4837,6.3977,6.2857,6.2701,6.221,6.1499,6.1381,6.1352,6.1252,6.1134,6.1118,6.1118,6.164,6.1833,6.1872,6.2684,6.2859,6.2105,6.2491,6.2374,6.1523,6.106,6.0635,6.021,5.9564,5.8978,5.8519,5.8219,5.7878,5.7531,5.7992,5.8552,5.9201,6.0222,6.1158,6.1666,6.1705,6.1705,6.1641,6.1603,6.1549,6.1468,6.1394,6.1834,6.2809,6.3437,6.4232,6.5218,6.593,6.6041,6.599,6.5782,6.5663,6.5552,6.5383,6.5226,6.5128,6.5027,6.4958,6.4958,6.5061,6.5095,6.5095,6.4993,6.4886,6.4779,6.4743,6.467,6.4596,6.4443,6.4324,6.4172,6.3712,6.3456,6.3011,6.222,6.1568,6.1202,6.0791,6.0273,6.0264,6.0256,6.0074,6.0006,5.9893,5.9772,5.9427,5.929,5.8418,5.6977,5.553,5.4129,5.2573,5.0871,4.9137,4.7495,4.634,4.5189,6.4787,6.4038,6.3223,6.2921,6.2885,6.2372,6.254,6.3182,6.3512,6.3676,6.3862,6.4685,6.4981,6.477,6.4445,6.448,6.4748,6.4333,6.3604,6.2881,6.2663,6.2263,6.1512,6.1381,6.1352,6.1352,6.1208,6.1118,6.1137,6.1426,6.1655,6.2391,6.2736,6.3008,6.3455,6.38,6.3398,6.253,6.2393,6.1908,6.1175,6.0489,6.0002,5.9905,5.9332,5.8939,5.885,5.902,5.9156,5.9378,6.0682,6.1463,6.1686,6.172,6.1666,6.1641,6.158,6.1568,6.1534,6.1616,6.2191,6.3485,6.386,6.4464,6.5819,6.6088,6.6102,6.6013,6.5846,6.569,6.5552,6.5383,6.5258,6.5296,6.5128,6.5023,6.5023,6.5194,6.5194,6.5095,6.5027,6.4993,6.4888,6.4853,6.4781,6.4634,6.4482,6.4364,6.4287,6.4059,6.3952,6.3427,6.282,6.2504,6.2173,6.1659,6.1247,6.1239,6.1115,6.0819,6.0417,6.0152,5.9923,5.965,5.9215,5.8381,5.7211,5.5733,5.408,5.2359,5.0676,4.8987,4.7597,4.6396,4.517,6.4794,6.4076,6.3855,6.3542,6.3271,6.3578,6.3911,6.432,6.4995,6.5134,6.5311,6.5677,6.5448,6.4925,6.4792,6.4537,6.4183,6.4054,6.3502,6.2779,6.2701,6.2238,6.1603,6.1408,6.1366,6.1366,6.1225,6.1137,6.125,6.181,6.2254,6.256,6.374,6.4128,6.3955,6.4477,6.4265,6.3416,6.2775,6.2444,6.2056,6.1423,6.0706,6.0112,5.9988,5.9668,5.9254,5.9729,6.005,6.0085,6.0415,6.1045,6.1623,6.169,6.171,6.1693,6.1612,6.1616,6.1695,6.2031,6.2803,6.3744,6.43,6.5178,6.6129,6.6225,6.6165,6.6036,6.587,6.5717,6.5552,6.5405,6.5352,6.529,6.5194,6.5161,6.5194,6.5258,6.5258,6.5161,6.5128,6.5061,6.4924,6.4817,6.4743,6.4633,6.4482,6.4326,6.4364,6.4364,6.4178,6.4143,6.3761,6.3482,6.3117,6.2597,6.2345,6.2404,6.2137,6.1678,6.0989,6.0258,5.9994,5.9681,5.929,5.8569,5.7168,5.5686,5.3943,5.2286,5.0575,4.8933,4.7591,4.6341,4.5109,6.4692,6.4076,6.4054,6.3925,6.3847,6.4321,6.4782,6.5296,6.5804,6.6058,6.6102,6.6144,6.576,6.4986,6.4656,6.4067,6.3424,6.3759,6.3323,6.2274,6.2147,6.1914,6.1537,6.1421,6.1381,6.1366,6.1225,6.1405,6.1772,6.231,6.2865,6.3712,6.4637,6.5025,6.5087,6.539,6.5242,6.4455,6.3812,6.3363,6.2603,6.2206,6.1538,6.0888,6.0799,6.0573,6.0314,6.0714,6.0811,6.0574,6.0728,6.1196,6.1629,6.1694,6.1715,6.1699,6.1666,6.1759,6.2036,6.2285,6.2964,6.409,6.4676,6.517,6.5991,6.6283,6.6244,6.599,6.5832,6.5678,6.5494,6.5405,6.5383,6.5352,6.5321,6.5321,6.5328,6.5321,6.529,6.5226,6.5199,6.5095,6.4853,6.4743,6.467,6.4596,6.4481,6.4366,6.4366,6.4403,6.4444,6.4444,6.4285,6.3921,6.36,6.3192,6.2917,6.3015,6.3015,6.2527,6.1934,6.0981,6.0741,6.0433,5.9628,5.8793,5.7728,5.6234,5.4092,5.2353,5.061,4.8931,4.7483,4.6185,4.4918,6.4731,6.4259,6.4146,6.4355,6.4705,6.4718,6.5288,6.6028,6.6123,6.6165,6.6225,6.6128,6.549,6.4831,6.3994,6.3253,6.2525,6.3347,6.2857,6.2069,6.1681,6.1523,6.1523,6.1421,6.1394,6.1366,6.1259,6.1673,6.2194,6.2532,6.3449,6.445,6.5023,6.562,6.5878,6.6347,6.6072,6.5413,6.5017,6.4333,6.3415,6.3002,6.251,6.2074,6.1733,6.1651,6.1537,6.1573,6.1321,6.0584,6.131,6.1616,6.1704,6.169,6.1715,6.1783,6.1855,6.2148,6.2492,6.2279,6.2746,6.4312,6.4181,6.4458,6.5558,6.5893,6.5935,6.5658,6.5793,6.5651,6.5503,6.5413,6.5405,6.5435,6.5465,6.5435,6.5383,6.5383,6.5352,6.5194,6.5161,6.5027,6.4815,6.467,6.4633,6.4521,6.4405,6.4405,6.4444,6.4558,6.4671,6.4779,6.4537,6.4209,6.3962,6.3711,6.3558,6.3512,6.3634,6.3413,6.3161,6.2465,6.2032,6.1451,6.0379,5.9766,5.922,5.7302,5.4613,5.2432,5.0686,4.8889,4.7204,4.5929,4.4724,6.5329,6.5283,6.5255,6.5421,6.5673,6.5697,6.5881,6.6185,6.6224,6.6185,6.6089,6.5567,6.4851,6.4018,6.3408,6.2393,6.1958,6.2687,6.2677,6.2471,6.1729,6.1518,6.1468,6.1434,6.1394,6.1352,6.1259,6.1729,6.2416,6.2797,6.3192,6.4298,6.5089,6.5375,6.5622,6.6218,6.6517,6.6164,6.5647,6.5142,6.4597,6.4001,6.362,6.3322,6.2867,6.2317,6.1827,6.1697,6.1587,6.1499,6.1568,6.1725,6.1725,6.1725,6.1759,6.191,6.234,6.2485,6.2265,6.2937,6.3457,6.3497,6.3881,6.4144,6.4318,6.5109,6.5218,6.5109,6.5433,6.5651,6.5541,6.5474,6.5532,6.5552,6.5618,6.559,6.5503,6.5444,6.5352,6.5194,6.5095,6.4955,6.4743,6.4558,6.4482,6.4405,6.4405,6.4405,6.4521,6.4671,6.4817,6.4961,6.4976,6.4718,6.4634,6.4428,6.4322,6.4138,6.4184,6.4229,6.3937,6.353,6.2905,6.2022,6.098,6.0401,5.9738,5.7377,5.4474,5.2634,5.0841,4.9169,4.7602,4.6061,4.4852,6.5665,6.6221,6.6165,6.6358,6.6607,6.6592,6.6488,6.6322,6.6303,6.6283,6.6205,6.5798,6.5196,6.4399,6.4,6.341,6.2701,6.2627,6.277,6.2561,6.1946,6.1518,6.1456,6.1408,6.1408,6.1394,6.1306,6.195,6.2874,6.3332,6.3998,6.5077,6.5311,6.5324,6.5349,6.5828,6.5959,6.6011,6.5985,6.557,6.4777,6.4761,6.4189,6.3717,6.3169,6.2602,6.1798,6.1701,6.1697,6.1725,6.172,6.172,6.172,6.1729,6.1889,6.2354,6.2662,6.3081,6.3143,6.3286,6.3577,6.3475,6.3556,6.3636,6.3973,6.4598,6.489,6.4916,6.5293,6.5717,6.5609,6.603,6.6001,6.5816,6.6062,6.6047,6.5666,6.5435,6.5321,6.5161,6.5061,6.485,6.4633,6.4482,6.4405,6.4405,6.4405,6.4444,6.4596,6.4743,6.4924,6.5061,6.5226,6.5238,6.5299,6.5222,6.5123,6.4946,6.4775,6.4813,6.4704,6.4187,6.3592,6.2593,6.162,6.0323,5.9316,5.6817,5.4706,5.2844,5.1081,4.954,4.8001,4.6486,4.543,6.6277,6.7093,6.6921,6.7011,6.7263,6.7155,6.6763,6.6436,6.6415,6.6376,6.6351,6.6278,6.5597,6.5203,6.4901,6.4556,6.3923,6.3145,6.278,6.2674,6.1918,6.1567,6.1534,6.1627,6.159,6.1421,6.1352,6.2215,6.3433,6.4046,6.4556,6.5907,6.5648,6.5193,6.5216,6.5384,6.5489,6.5543,6.6139,6.589,6.4831,6.4997,6.4536,6.3364,6.3032,6.2569,6.1915,6.1697,6.1704,6.169,6.1803,6.1876,6.1881,6.1928,6.2295,6.3149,6.3451,6.3706,6.3818,6.3656,6.3566,6.4053,6.3163,6.2951,6.3444,6.4046,6.4423,6.49,6.5317,6.605,6.5886,6.6346,6.6403,6.6101,6.641,6.6346,6.5827,6.5494,6.5314,6.5128,6.4955,6.4779,6.4596,6.4444,6.4405,6.4405,6.4444,6.4521,6.4707,6.485,6.5061,6.5161,6.5352,6.5375,6.5435,6.5352,6.5321,6.5226,6.5128,6.5061,6.5061,6.462,6.3949,6.3237,6.2258,6.0837,5.9218,5.7166,5.5133,5.3067,5.1603,5.032,4.8696,4.7039,4.614,6.7832,6.8021,6.7318,6.7141,6.7209,6.6703,6.6515,6.6322,6.6493,6.6433,6.6373,6.573,6.5436,6.5118,6.4478,6.4156,6.3962,6.3336,6.2841,6.2608,6.1967,6.1588,6.174,6.2145,6.2082,6.1538,6.1483,6.2346,6.3619,6.4061,6.4673,6.5336,6.5401,6.5076,6.4761,6.4966,6.5317,6.5345,6.6107,6.605,6.528,6.4965,6.456,6.3182,6.3076,6.2652,6.1998,6.174,6.1711,6.1755,6.2404,6.274,6.2896,6.29,6.3305,6.3979,6.4591,6.4765,6.4448,6.4253,6.374,6.3221,6.2492,6.1915,6.2279,6.2977,6.3773,6.4541,6.5649,6.6677,6.6765,6.688,6.6562,6.6154,6.6026,6.6064,6.5805,6.559,6.5375,6.5194,6.4955,6.4707,6.4521,6.4368,6.4293,6.4407,6.4596,6.4745,6.4888,6.5061,6.5258,6.5352,6.5405,6.5465,6.5494,6.5352,6.5226,6.5161,6.5027,6.485,6.4815,6.4745,6.4257,6.3691,6.2518,6.0986,5.9274,5.7442,5.5399,5.3323,5.2193,5.1162,4.9523,4.7956,4.7091,6.784,6.8279,6.7962,6.787,6.805,6.8197,6.8026,6.7635,6.7315,6.7115,6.6881,6.629,6.5917,6.5828,6.5635,6.4998,6.4087,6.372,6.299,6.2328,6.1792,6.1861,6.2129,6.269,6.2497,6.2185,6.209,6.2633,6.3906,6.3983,6.4697,6.5595,6.5557,6.4881,6.4477,6.4966,6.5055,6.5172,6.5933,6.6078,6.484,6.4489,6.365,6.3349,6.3355,6.3204,6.2662,6.2908,6.3041,6.3163,6.3473,6.3891,6.4158,6.436,6.4487,6.4959,6.5381,6.5477,6.5077,6.4921,6.4409,6.3154,6.2512,6.2009,6.1948,6.2522,6.3612,6.4811,6.5434,6.6474,6.6423,6.6845,6.6641,6.6167,6.6167,6.6179,6.5909,6.5656,6.5474,6.5182,6.4638,6.4398,6.4445,6.4294,6.4219,6.4369,6.4705,6.4924,6.5099,6.5226,6.5383,6.5474,6.5494,6.5523,6.5523,6.5345,6.5226,6.5128,6.4993,6.4779,6.467,6.4634,6.4558,6.4294,6.285,6.1204,5.9375,5.7587,5.5541,5.3718,5.2735,5.163,5.0289,4.9042,4.8241,6.7933,6.8614,6.8552,6.8675,6.9038,6.9533,6.9343,6.8696,6.8039,6.7602,6.7475,6.6919,6.6543,6.6594,6.6423,6.5745,6.4198,6.4052,6.3244,6.227,6.1997,6.2318,6.2896,6.3184,6.3158,6.2585,6.2866,6.3254,6.3867,6.3969,6.5008,6.5814,6.5661,6.5037,6.4699,6.5122,6.4821,6.5104,6.5787,6.5814,6.445,6.3305,6.2852,6.3008,6.3672,6.3672,6.3399,6.3728,6.405,6.4176,6.4452,6.4841,6.5495,6.5777,6.5859,6.5858,6.5852,6.5879,6.5824,6.5541,6.4916,6.3896,6.3364,6.2781,6.262,6.3249,6.4239,6.5677,6.6337,6.642,6.6538,6.6782,6.6628,6.6205,6.6384,6.659,6.6012,6.5674,6.5561,6.5116,6.4356,6.4199,6.4407,6.4106,6.3954,6.4554,6.4924,6.5095,6.5226,6.5383,6.5503,6.5561,6.558,6.558,6.5552,6.5405,6.5321,6.5194,6.5027,6.4817,6.467,6.4596,6.4521,6.4406,6.3072,6.1379,5.9585,5.7876,5.6166,5.4605,5.341,5.2301,5.1292,5.0311,4.9407,6.9475,6.9475,6.8834,6.9061,6.9648,6.934,6.8626,6.7945,6.793,6.7393,6.697,6.6685,6.6594,6.6633,6.6657,6.5706,6.4587,6.4169,6.3711,6.2854,6.2776,6.3175,6.3947,6.4714,6.3975,6.3323,6.355,6.3759,6.4046,6.4031,6.4846,6.6018,6.5842,6.5219,6.5076,6.5395,6.5338,6.5436,6.6204,6.5893,6.4403,6.2847,6.254,6.293,6.3321,6.3711,6.4145,6.447,6.4555,6.4587,6.5152,6.5468,6.5702,6.6367,6.6635,6.6742,6.6735,6.6742,6.6527,6.6043,6.5523,6.4854,6.4443,6.4068,6.3896,6.4234,6.5109,6.6012,6.6681,6.69,6.6756,6.7051,6.6679,6.6282,6.6076,6.6128,6.5872,6.5767,6.5618,6.5197,6.452,6.4453,6.459,6.4138,6.3835,6.4506,6.5061,6.5226,6.5383,6.5532,6.5618,6.5674,6.5646,6.5608,6.5552,6.5435,6.5352,6.5226,6.5061,6.4853,6.4707,6.4596,6.4482,6.4063,6.2878,6.1707,6.0063,5.8471,5.6843,5.5389,5.3954,5.3211,5.2564,5.1652,5.0681,6.8616,6.9065,6.8776,6.917,6.9949,7.0214,6.9905,6.9183,6.8754,6.8136,6.7347,6.6813,6.6669,6.668,6.6691,6.6029,6.5026,6.4803,6.4374,6.3711,6.3624,6.3993,6.4648,6.5103,6.4636,6.4372,6.4388,6.4566,6.4504,6.4326,6.4753,6.6167,6.6139,6.5725,6.5543,6.5862,6.5767,6.5514,6.5394,6.5237,6.4643,6.3516,6.2852,6.3711,6.4179,6.4609,6.497,6.5524,6.572,6.5829,6.624,6.6324,6.6361,6.6672,6.6895,6.6898,6.6852,6.6805,6.6756,6.6394,6.6063,6.5613,6.516,6.4831,6.4782,6.4999,6.5536,6.6205,6.6492,6.6637,6.6622,6.6563,6.6346,6.6076,6.6024,6.5999,6.5974,6.582,6.5635,6.5178,6.4832,6.4807,6.4757,6.4348,6.4196,6.4719,6.5188,6.5383,6.5532,6.5674,6.5755,6.5846,6.5728,6.5608,6.5523,6.5474,6.539,6.5302,6.5133,6.4961,6.4743,6.4633,6.4521,6.4101,6.3102,6.1886,6.0467,5.8694,5.6872,5.5574,5.446,5.3749,5.3076,5.2767,5.1589,6.7872,6.8668,6.8712,6.9336,7.0346,7.0951,7.0678,6.9878,6.908,6.8319,6.7606,6.6953,6.6712,6.6712,6.6634,6.6195,6.5377,6.5387,6.5036,6.4608,6.452,6.4927,6.5426,6.5648,6.5492,6.5188,6.4954,6.5015,6.486,6.476,6.5031,6.6367,6.645,6.6231,6.601,6.6213,6.6322,6.5883,6.5129,6.5088,6.5111,6.4101,6.3984,6.4531,6.5194,6.5707,6.5989,6.6383,6.6735,6.6805,6.677,6.6781,6.6823,6.6856,6.6887,6.6887,6.6839,6.6834,6.6829,6.6661,6.6518,6.6299,6.6039,6.602,6.545,6.5478,6.5613,6.6283,6.6242,6.6179,6.6074,6.6059,6.6059,6.6174,6.6227,6.6203,6.6255,6.632,6.6307,6.6008,6.559,6.5091,6.494,6.4616,6.4654,6.5067,6.5345,6.5503,6.5646,6.5781,6.5846,6.5872,6.5728,6.58,6.6097,6.5932,6.5734,6.5498,6.5399,6.5107,6.4893,6.4746,6.4634,6.3988,6.3252,6.1997,6.0599,5.8678,5.6865,5.5609,5.4523,5.3946,5.345,5.3212,5.243,6.7982,6.8878,6.8798,6.9705,7.112,7.0602,6.9899,6.9123,6.8326,6.7528,6.6866,6.668,6.6712,6.6751,6.6712,6.6322,6.5494,6.5426,6.5387,6.5377,6.5377,6.5734,6.6127,6.6218,6.5997,6.5406,6.5325,6.5252,6.5136,6.5231,6.5597,6.6306,6.6528,6.653,6.6489,6.6524,6.6693,6.6282,6.5644,6.5393,6.5379,6.4882,6.4726,6.5312,6.5624,6.5946,6.6745,6.682,6.6852,6.6873,6.6873,6.6883,6.6887,6.6878,6.6873,6.6829,6.6823,6.6856,6.6974,6.7039,6.7212,6.7578,6.7589,6.7091,6.6256,6.6295,6.6389,6.6303,6.6224,6.6102,6.608,6.6058,6.6267,6.6453,6.6738,6.7123,6.7138,6.7152,6.7039,6.6833,6.6381,6.5886,6.5456,6.5214,6.4963,6.5299,6.5435,6.5618,6.5728,6.5872,6.5872,6.5872,6.5728,6.603,6.6892,6.6736,6.6243,6.626,6.6273,6.5676,6.5154,6.497,6.501,6.4066,6.3259,6.1967,6.0635,5.8854,5.7163,5.5599,5.462,5.4445,5.3749,5.3179,5.2402,6.758,6.8878,6.8917,6.9924,7.1358,7.064,6.9822,6.8946,6.8132,6.7386,6.6696,6.6691,6.7024,6.7257,6.6907,6.6907,6.6868,6.6361,6.6244,6.6195,6.6262,6.6385,6.6594,6.6555,6.6358,6.5973,6.5907,6.5855,6.5875,6.5777,6.5989,6.6367,6.6538,6.6555,6.6594,6.6641,6.6722,6.6507,6.6065,6.5744,6.6115,6.5619,6.5507,6.6249,6.6327,6.6449,6.677,6.6809,6.6839,6.6823,6.6817,6.6823,6.6862,6.685,6.6844,6.6805,6.6837,6.7071,6.7454,6.7516,6.7725,6.7823,6.792,6.7665,6.6918,6.6606,6.6461,6.6358,6.6224,6.614,6.6119,6.6505,6.6907,6.7039,6.7402,6.7927,6.8096,6.8049,6.8,6.7808,6.7218,6.66,6.6238,6.5915,6.5666,6.5552,6.5646,6.5701,6.5846,6.5897,6.5897,6.5808,6.5701,6.6356,6.7217,6.7025,6.6712,6.6912,6.7075,6.6438,6.5836,6.5684,6.55,6.4445,6.3263,6.2011,6.0682,5.9081,5.76,5.6388,5.5741,5.5375,5.4445,5.3443,5.2606,6.7406,6.8549,6.9127,7.0192,7.1338,7.0404,6.9761,6.9273,6.8233,6.7761,6.7436,6.7509,6.7764,6.8037,6.753,6.7364,6.752,6.7091,6.6769,6.6591,6.6528,6.662,6.6594,6.6514,6.6454,6.6428,6.6376,6.6301,6.6205,6.6358,6.6376,6.6428,6.6493,6.6567,6.6633,6.668,6.6712,6.6527,6.6282,6.6088,6.6655,6.6316,6.6092,6.6717,6.6717,6.6717,6.68,6.68,6.6829,6.6811,6.6805,6.6798,6.6822,6.6814,6.6814,6.6892,6.7087,6.743,6.789,6.8573,6.8603,6.8593,6.8855,6.8366,6.7606,6.7072,6.6998,6.6838,6.6496,6.6239,6.6372,6.699,6.747,6.7679,6.8536,6.9038,6.8992,6.8945,6.8911,6.8796,6.809,6.7345,6.6653,6.6254,6.5855,6.5701,6.5728,6.582,6.5846,6.5897,6.5872,6.5781,6.5663,6.6557,6.7546,6.7267,6.7174,6.7791,6.78,6.7275,6.6785,6.652,6.588,6.489,6.3663,6.2197,6.0997,5.983,5.8646,5.7423,5.6851,5.6356,5.5588,5.4556,5.3617,6.758,6.785,6.9455,7.0637,7.1219,6.9833,6.95,6.9655,6.8466,6.8239,6.8813,6.8989,6.9089,6.9011,6.8271,6.8026,6.8004,6.7264,6.6735,6.6776,6.6633,6.6553,6.647,6.6439,6.6428,6.6376,6.634,6.6322,6.6264,6.6358,6.6376,6.6411,6.6477,6.6553,6.662,6.6641,6.6712,6.6712,6.6615,6.6658,6.672,6.6655,6.67,6.6745,6.679,6.679,6.679,6.679,6.6817,6.6798,6.6791,6.6783,6.6775,6.6884,6.6962,6.697,6.7656,6.7998,6.8202,6.9655,6.9907,6.944,6.9673,6.9585,6.9005,6.8358,6.7767,6.7631,6.7039,6.6861,6.7089,6.757,6.8111,6.8613,6.9447,6.9933,6.9865,6.9856,6.9784,6.9631,6.8847,6.8052,6.7205,6.6487,6.6077,6.5858,6.5872,6.5872,6.5872,6.5872,6.5846,6.5728,6.5674,6.603,6.6834,6.7321,6.7639,6.8365,6.8448,6.7846,6.7241,6.6711,6.6027,6.5295,6.4102,6.2761,6.1791,6.0823,5.9853,5.8827,5.7851,5.7213,5.6542,5.574,5.4834,6.7113,6.7709,6.8373,6.9127,6.9788,6.9383,6.8956,6.8622,6.8161,6.8384,6.9085,6.9262,6.9673,6.9557,6.8894,6.86,6.9161,6.737,6.6801,6.7281,6.681,6.6508,6.6422,6.6411,6.6376,6.634,6.6303,6.6284,6.6244,6.634,6.6376,6.6411,6.6493,6.6538,6.6567,6.6581,6.6657,6.663,6.6663,6.6702,6.6728,6.6783,6.6798,6.6805,6.6805,6.6805,6.6805,6.6805,6.6798,6.6775,6.6767,6.6789,6.6936,6.7082,6.7501,6.7745,6.8359,6.9148,6.9733,7.0726,7.092,7.057,7.0375,7.0247,6.9278,6.8942,6.8637,6.8502,6.7987,6.7926,6.8181,6.8822,6.9324,6.9594,7.0197,7.0645,7.0776,7.0706,7.0618,7.0375,6.9823,6.8655,6.7705,6.7102,6.6653,6.6154,6.6103,6.5923,6.5884,6.582,6.5793,6.5674,6.5628,6.5711,6.6014,6.6645,6.749,6.8291,6.8488,6.8262,6.7655,6.7011,6.6626,6.6116,6.47,6.3319,6.2667,6.2018,6.1263,6.0367,5.9213,5.8402,5.7834,5.6967,5.6027,6.6722,6.7293,6.7665,6.7942,6.8292,6.8574,6.8458,6.8356,6.867,6.928,7.0032,7.0197,7.0453,7.0492,6.978,6.9212,7.0239,6.8229,6.7139,6.7627,6.6881,6.6523,6.6394,6.6358,6.6303,6.6245,6.6284,6.6264,6.6244,6.634,6.6394,6.6445,6.6547,6.6524,6.6538,6.6542,6.662,6.6633,6.6669,6.6712,6.6702,6.672,6.6775,6.6783,6.6783,6.6822,6.6822,6.6775,6.6775,6.6711,6.6722,6.6857,6.7158,6.7525,6.8071,6.8511,6.9223,7.008,7.0909,7.131,7.1388,7.1115,7.1037,7.0715,7.0135,6.985,6.9624,6.9373,6.9053,6.9009,6.9131,6.9826,7.0049,7.0281,7.0637,7.1108,7.1163,7.1053,7.1249,7.1005,7.0925,6.9667,6.8525,6.7795,6.7307,6.6769,6.6269,6.6127,6.5947,6.5805,6.5816,6.5771,6.5618,6.5619,6.5759,6.6079,6.7037,6.8142,6.8262,6.8183,6.7952,6.7347,6.7105,6.6823,6.5583,6.4476,6.3775,6.3069,6.1914,6.1157,6.0475,5.9708,5.9159,5.8298,5.7256,6.6428,6.6625,6.7408,6.7294,6.6854,6.7554,6.8294,6.915,6.9993,7.0758,7.1614,7.1494,7.1583,7.1505,7.077,7.0473,7.0175,6.8578,6.8015,6.7509,6.6877,6.6552,6.6303,6.6264,6.6205,6.6185,6.6185,6.6244,6.6244,6.634,6.6428,6.6477,6.6508,6.6508,6.6538,6.6514,6.6581,6.6594,6.6672,6.668,6.6712,6.6732,6.675,6.6759,6.6798,6.6759,6.6759,6.6759,6.6711,6.6693,6.6673,6.7197,6.7603,6.7917,6.8488,6.928,7.02,7.0901,7.1459,7.1755,7.1767,7.1572,7.1661,7.1716,7.1459,7.0836,7.0533,7.0166,6.9866,6.9825,6.991,7.0127,7.0362,7.0681,7.1023,7.1201,7.1178,7.1323,7.1609,7.1761,7.1996,7.1286,7.0335,6.9452,6.8356,6.7741,6.728,6.6869,6.6535,6.5751,6.5771,6.5953,6.5796,6.5595,6.5808,6.6356,6.7002,6.822,6.796,6.7841,6.7686,6.771,6.7541,6.7128,6.6444,6.5545,6.4545,6.3414,6.215,6.1528,6.1055,6.0473,5.9761,5.9494,5.8623,6.6428,6.6547,6.6814,6.6828,6.6735,6.6953,6.7514,6.8333,6.9188,7.0057,7.0913,7.1533,7.1622,7.1739,7.0886,7.0888,7.0239,6.9264,6.8529,6.7825,6.7017,6.6496,6.6205,6.6204,6.6165,6.6165,6.6185,6.6185,6.6244,6.634,6.6428,6.6493,6.6508,6.6508,6.6508,6.647,6.6524,6.6553,6.6633,6.6672,6.6669,6.6691,6.6712,6.6712,6.6712,6.6712,6.6702,6.6652,6.6641,6.663,6.6633,6.7035,6.7801,6.8475,6.9278,7.0784,7.1303,7.1498,7.1693,7.1706,7.1719,7.1782,7.1782,7.1821,7.168,7.1485,7.1194,7.0865,7.0583,7.0539,7.0544,7.072,7.0876,7.1094,7.1439,7.1617,7.167,7.1891,7.2199,7.2419,7.2716,7.2647,7.1735,7.0767,6.9711,6.8981,6.8339,6.7801,6.7236,6.6451,6.6021,6.6208,6.6383,6.6293,6.6733,6.7313,6.7654,6.8072,6.7807,6.7839,6.8286,6.8269,6.8009,6.7393,6.6468,6.5717,6.4977,6.3673,6.2168,6.1914,6.1544,6.095,6.0432,6.01,5.9818,6.6445,6.65,6.6555,6.6645,6.6691,6.6702,6.7003,6.7553,6.8355,6.9223,7.0041,7.052,7.0804,7.0765,7.0563,7.0681,7.0901,6.9405,6.859,6.8256,6.7115,6.6516,6.6185,6.6144,6.6165,6.6185,6.6185,6.6185,6.6303,6.634,6.6428,6.6508,6.6508,6.6508,6.6493,6.6439,6.6439,6.6508,6.6538,6.662,6.6659,6.6645,6.6657,6.6657,6.6657,6.6633,6.662,6.6581,6.6581,6.6581,6.6594,6.7203,6.8306,6.9444,7.0231,7.149,7.1598,7.1651,7.1704,7.1679,7.1732,7.1745,7.1745,7.1732,7.1718,7.1598,7.1497,7.1317,7.13,7.1253,7.1294,7.1351,7.1454,7.1544,7.1866,7.2186,7.2392,7.2598,7.285,7.3129,7.3269,7.3392,7.2847,7.1918,7.1017,7.0123,6.9278,6.8569,6.8014,6.7343,6.6812,6.6656,6.6973,6.714,6.765,6.7996,6.7958,6.7959,6.7581,6.7803,6.8587,6.8484,6.7867,6.712,6.6358,6.5573,6.4835,6.3418,6.2095,6.2078,6.2145,6.1911,6.133,6.0653,6.0317,6.6422,6.6514,6.6569,6.6657,6.6702,6.6702,6.6741,6.679,6.7559,6.8388,6.9089,6.9284,6.9518,6.9741,7.0006,7.0317,7.0212,6.9274,6.8652,6.8741,6.7115,6.6284,6.6205,6.6185,6.6165,6.6185,6.6224,6.6322,6.6419,6.6611,6.6778,6.6664,6.6897,6.7091,6.7115,6.6794,6.6755,6.6772,6.6594,6.6508,6.6553,6.6594,6.6569,6.6607,6.6607,6.6569,6.6569,6.6569,6.6607,6.6594,6.6892,6.7549,6.9104,7.0487,7.127,7.1525,7.1636,7.1653,7.163,7.1661,7.1651,7.1704,7.1679,7.1637,7.163,7.1645,7.1581,7.1455,7.1355,7.1247,7.1246,7.1647,7.1929,7.2134,7.2456,7.2791,7.3061,7.3366,7.3735,7.3998,7.428,7.4357,7.4159,7.33,7.24,7.1381,7.0525,6.9701,6.9078,6.8454,6.7928,6.7502,6.7593,6.7981,6.8334,6.8489,6.811,6.7846,6.7732,6.7877,6.8696,6.836,6.7617,6.7012,6.6427,6.5359,6.4363,6.3238,6.2676,6.2674,6.2759,6.2839,6.2344,6.1671,6.0988,6.6411,6.6439,6.6542,6.6645,6.668,6.6719,6.6691,6.6712,6.6907,6.753,6.831,6.8933,6.9245,6.9273,6.9383,6.9772,7.0109,6.9026,6.8596,6.8217,6.7096,6.6264,6.6224,6.6144,6.6144,6.6165,6.6263,6.6612,6.7019,6.7307,6.7748,6.8319,6.8296,6.8218,6.8179,6.7726,6.7342,6.7204,6.6782,6.6489,6.6422,6.6508,6.6538,6.6553,6.6553,6.65,6.6485,6.6454,6.6477,6.6484,6.7088,6.8269,6.9894,7.1003,7.149,7.1607,7.1589,7.155,7.1568,7.1547,7.1564,7.1542,7.1542,7.1508,7.1508,7.1581,7.1547,7.1396,7.1269,7.1178,7.1351,7.1891,7.2454,7.2762,7.3174,7.347,7.3767,7.4168,7.4605,7.4926,7.5212,7.5206,7.5079,7.4566,7.3774,7.2947,7.2052,7.1294,7.0671,7.0056,6.9451,6.8984,6.8579,6.8818,6.9093,6.9133,6.8755,6.8793,6.879,6.8935,6.8918,6.8496,6.8017,6.7284,6.6596,6.5527,6.4639,6.3857,6.3437,6.3342,6.3589,6.3739,6.3741,6.3199,6.2265,6.5829,6.584,6.5997,6.6283,6.6606,6.6645,6.6669,6.6691,6.6691,6.6964,6.7403,6.7909,6.8349,6.866,6.8643,6.9422,6.9915,6.8598,6.848,6.8217,6.7251,6.6458,6.6165,6.62,6.6144,6.6204,6.6688,6.7154,6.7696,6.8121,6.8584,6.9079,6.9134,6.915,6.9095,6.8502,6.8041,6.7653,6.7115,6.6766,6.6493,6.6411,6.6445,6.6461,6.6461,6.6461,6.6445,6.6411,6.6411,6.6821,6.7519,6.8315,6.9652,7.0776,7.1397,7.1475,7.1455,7.1455,7.1435,7.1474,7.1474,7.1494,7.1435,7.1394,7.1317,7.1396,7.1337,7.1224,7.113,7.1005,7.1761,7.2399,7.3082,7.3552,7.4264,7.4793,7.4938,7.511,7.5295,7.5347,7.5545,7.5507,7.5271,7.4804,7.4136,7.3927,7.3149,7.2601,7.2054,7.1458,7.0891,7.031,6.9828,6.95,6.9623,6.9664,6.955,6.9625,6.9659,6.934,6.8972,6.8817,6.8416,6.7543,6.6706,6.5856,6.5004,6.4402,6.3997,6.3827,6.4216,6.4675,6.4638,6.4491,6.3476,6.5308,6.5297,6.5284,6.579,6.6543,6.6581,6.6633,6.6696,6.6669,6.6708,6.6824,6.6964,6.7325,6.7743,6.7837,6.9007,6.9239,6.8,6.8075,6.8005,6.6942,6.6592,6.6495,6.6415,6.6608,6.6938,6.7384,6.7792,6.8219,6.8743,6.9129,6.9261,6.939,6.9445,6.9367,6.9157,6.889,6.8411,6.789,6.7368,6.6922,6.6399,6.6397,6.6376,6.6415,6.6415,6.6415,6.6376,6.6376,6.6862,6.7638,6.8433,6.913,7.0157,7.0738,7.095,7.0986,7.1081,7.1291,7.1501,7.1501,7.1501,7.1433,7.1386,7.1347,7.1323,7.1323,7.1249,7.1183,7.1371,7.2121,7.2976,7.3691,7.4274,7.5065,7.571,7.5749,7.5749,7.5756,7.5692,7.5692,7.5692,7.5424,7.4957,7.4689,7.452,7.4136,7.3676,7.3138,7.2571,7.1981,7.1363,7.0806,7.0484,7.0153,6.9929,6.9854,6.9737,6.9579,6.9327,6.9065,6.8884,6.8416,6.7543,6.6721,6.6129,6.5624,6.5093,6.4722,6.4549,6.4973,6.543,6.5273,6.5054,6.4314,6.6105,6.6096,6.5498,6.5775,6.6503,6.6581,6.6594,6.6633,6.6594,6.6594,6.6789,6.7372,6.7839,6.7878,6.7113,6.7864,6.9264,6.779,6.7376,6.7501,6.6729,6.6806,6.6959,6.6879,6.7574,6.7961,6.827,6.8854,6.9069,6.9574,7.0273,7.0852,7.0986,7.0982,7.0921,7.0516,6.986,6.9359,6.8878,6.8374,6.7869,6.7251,6.6419,6.634,6.6397,6.634,6.634,6.6322,6.6303,6.6593,6.7251,6.8084,6.8743,6.9324,6.9845,7.0423,7.0457,7.0761,7.1047,7.154,7.1632,7.1786,7.1788,7.1891,7.1864,7.1898,7.1871,7.1881,7.1833,7.1909,7.2579,7.3576,7.4319,7.4625,7.5264,7.5539,7.566,7.5692,7.5692,7.5731,7.5731,7.5731,7.5654,7.5347,7.5162,7.4957,7.4643,7.4183,7.3829,7.3445,7.3077,7.2371,7.1707,7.0896,7.0228,7.0041,6.9891,6.9738,6.9536,6.9284,6.9065,6.8967,6.8426,6.7691,6.7178,6.6659,6.6208,6.5783,6.5794,6.5692,6.5971,6.6235,6.592,6.5519,6.4813]},{"header":{"parameterUnit":"m.s-1","parameterCategory":1,"la1":31.0,"la2":29.5877,"lo1":-88.7671,"lo2":-86.6584,"dy":0.0162,"dx":0.0185,"nx":115,"ny":88,"refTime":"2026-05-13T12:00:00:Z","depth":0,"parameterNumber":3,"parameterNumberName":"V-component_of_WINDS"},"data":[0.0,0.0,0.0,0.0,0.0,0.0,0.0,0.0,0.0,0.0,0.0,0.0,0.0,0.0,0.0,0.0,0.0,0.0,0.0,0.0,0.0,0.0,0.0,0.0,0.0,0.0,0.0,0.0,0.0,0.0,0.0,0.0,0.0,0.0,0.0,0.0,0.0,0.0,0.0,0.0,0.0,0.0,0.0,0.0,0.0,0.0,0.0,0.0,0.0,0.0,0.0,0.0,0.0,0.0,0.0,0.0,0.0,0.0,0.0,0.0,0.0,0.0,0.0,0.0,0.0,0.0,0.0,0.0,0.0,0.0,0.0,0.0,0.0,0.0,0.0,0.0,0.0,0.0,0.0,0.0,0.0,0.0,0.0,0.0,0.0,0.0,0.0,0.0,0.0,0.0,0.0,0.0,0.0,0.0,0.0,0.0,0.0,0.0,0.0,0.0,0.0,0.0,0.0,0.0,0.0,0.0,0.0,0.0,0.0,0.0,0.0,0.0,0.0,0.0,0.0,0.0,0.0,0.0,0.0,0.0,0.0,0.0,0.0,0.0,0.0,0.0,0.0,0.0,0.0,0.0,0.0,0.0,0.0,0.0,0.0,0.0,0.0,0.0,0.0,0.0,0.0,0.0,0.0,0.0,0.0,0.0,0.0,0.0,0.0,0.0,0.0,0.0,0.0,0.0,0.0,0.0,0.0,0.0,0.0,0.0,0.0,0.0,0.0,0.0,0.0,0.0,0.0,0.0,0.0,0.0,0.0,0.0,0.0,0.0,0.0,0.0,0.0,0.0,0.0,0.0,0.0,0.0,0.0,0.0,0.0,0.0,0.0,0.0,0.0,0.0,0.0,0.0,0.0,0.0,0.0,0.0,0.0,0.0,0.0,0.0,0.0,0.0,0.0,0.0,0.0,0.0,0.0,0.0,0.0,0.0,0.0,0.0,0.0,0.0,0.0,0.0,0.0,0.0,0.0,0.0,0.0,0.0,0.0,0.0,0.0,0.0,0.0,0.0,0.0,0.0,0.0,0.0,0.0,0.0,0.0,0.0,0.0,0.0,0.0,0.0,0.0,0.0,0.0,0.0,0.0,0.0,0.0,0.0,0.0,0.0,0.0,0.0,0.0,0.0,0.0,0.0,0.0,0.0,0.0,0.0,0.0,0.0,0.0,0.0,0.0,0.0,0.0,0.0,0.0,0.0,0.0,0.0,0.0,0.0,0.0,0.0,0.0,0.0,0.0,0.0,0.0,0.0,0.0,0.0,0.0,0.0,0.0,0.0,0.0,0.0,0.0,0.0,0.0,0.0,0.0,0.0,0.0,0.0,0.0,0.0,0.0,0.0,0.0,0.0,0.0,0.0,0.0,0.0,0.0,0.0,0.0,0.0,0.0,0.0,0.0,0.0,0.0,0.0,0.0,0.0,0.0,0.0,0.0,0.0,0.0,0.0,0.0,0.0,0.0,0.0,0.0,0.0,0.0,0.0,0.0,0.0,0.0,0.0,0.0,0.0,0.0,0.0,0.0,0.0,0.0,0.0,0.0,0.0,0.0,0.0,0.0,0.0,0.0,0.0,0.0,0.0,0.0,0.0,0.0,0.0,0.0,0.0,0.0,0.0,0.0,0.0,0.0,0.0,0.0,0.0,0.0,0.0,0.0,0.0,0.0,0.0,0.0,0.0,0.0,0.0,0.0,0.0,0.0,0.0,0.0,0.0,0.0,0.0,0.0,0.0,0.0,0.0,0.0,0.0,0.0,0.0,0.0,0.0,0.0,0.0,0.0,0.0,0.0,0.0,0.0,0.0,0.0,0.0,0.0,0.0,0.0,0.0,0.0,0.0,0.0,0.0,0.0,0.0,0.0,0.0,0.0,0.0,0.0,0.0,0.0,0.0,0.0,0.0,0.0,0.0,0.0,0.0,0.0,0.0,0.0,0.0,0.0,0.0,0.0,0.0,0.0,0.0,0.0,0.0,0.0,0.0,0.0,0.0,0.0,0.0,0.0,0.0,0.0,0.0,0.0,0.0,0.0,0.0,0.0,0.0,0.0,0.0,0.0,0.0,0.0,0.0,0.0,0.0,0.0,0.0,0.0,0.0,0.0,0.0,0.0,0.0,0.0,0.0,0.0,0.0,0.0,0.0,0.0,0.0,0.0,0.0,0.0,0.0,0.0,0.0,0.0,0.0,0.0,0.0,0.0,0.0,0.0,0.0,0.0,0.0,0.0,0.0,0.0,0.0,0.0,0.0,0.0,0.0,0.0,0.0,0.0,0.0,0.0,0.0,0.0,0.0,0.0,0.0,0.0,0.0,0.0,0.0,0.0,0.0,0.0,0.0,0.0,0.0,0.0,0.0,0.0,0.0,0.0,0.0,0.0,0.0,0.0,0.0,0.0,0.0,0.0,0.0,0.0,0.0,0.0,0.0,0.0,0.0,0.0,0.0,0.0,0.0,0.0,0.0,0.0,0.0,0.0,0.0,0.0,0.0,0.0,0.0,0.0,0.0,0.0,0.0,0.0,0.0,0.0,0.0,0.0,0.0,0.0,0.0,0.0,0.0,0.0,0.0,0.0,0.0,0.0,0.0,0.0,0.0,0.0,0.0,0.0,0.0,0.0,0.0,0.0,0.0,0.0,0.0,0.0,0.0,0.0,0.0,0.0,0.0,0.0,0.0,0.0,0.0,0.0,0.0,0.0,0.0,0.0,0.0,0.0,0.0,0.0,0.0,0.0,0.0,0.0,0.0,0.0,0.0,0.0,0.0,0.0,0.0,0.0,0.0,0.0,0.0,0.0,0.0,0.0,0.0,0.0,0.0,0.0,0.0,0.0,0.0,0.0,0.0,0.0,0.0,0.0,0.0,0.0,0.0,0.0,0.0,0.0,0.0,0.0,0.0,0.0,0.0,0.0,0.0,0.0,0.0,0.0,0.0,0.0,0.0,0.0,0.0,0.0,0.0,0.0,0.0,0.0,0.0,0.0,0.0,0.0,0.0,0.0,0.0,0.0,0.0,0.0,0.0,0.0,0.0,0.0,0.0,0.0,0.0,0.0,0.0,0.0,0.0,0.0,0.0,0.0,0.0,0.0,0.0,0.0,0.0,0.0,0.0,0.0,0.0,0.0,0.0,0.0,0.0,0.0,0.0,0.0,0.0,0.0,0.0,0.0,0.0,0.0,0.0,0.0,0.0,0.0,0.0,0.0,0.0,0.0,0.0,0.0,0.0,0.0,0.0,0.0,0.0,0.0,0.0,0.0,0.0,0.0,0.0,0.0,0.0,0.0,0.0,0.0,0.0,0.0,0.0,0.0,0.0,0.0,0.0,0.0,0.0,0.0,0.0,0.0,0.0,0.0,0.0,0.0,0.0,0.0,0.0,0.0,0.0,0.0,0.0,0.0,0.0,0.0,0.0,0.0,0.0,0.0,0.0,0.0,0.0,0.0,0.0,0.0,0.0,0.0,0.0,0.0,0.0,0.0,0.0,0.0,0.0,0.0,0.0,0.0,0.0,0.0,0.0,0.0,0.0,0.0,0.0,0.0,0.0,0.0,0.0,0.0,0.0,0.0,0.0,0.0,0.0,0.0,0.0,0.0,0.0,0.0,0.0,0.0,0.0,0.0,0.0,0.0,0.0,0.0,0.0,0.0,0.0,0.0,0.0,0.0,0.0,0.0,0.0,0.0,0.0,0.0,0.0,0.0,0.0,0.0,0.0,0.0,0.0,0.0,0.0,0.0,0.0,0.0,0.0,0.0,0.0,0.0,0.0,0.0,0.0,0.0,0.0,0.0,0.0,0.0,0.0,0.0,0.0,0.0,0.0,0.0,0.0,0.0,0.0,0.0,0.0,0.0,0.0,0.0,0.0,0.0,0.0,0.0,0.0,0.0,0.0,0.0,0.0,0.0,0.0,0.0,0.0,0.0,0.0,0.0,0.0,0.0,0.0,0.0,0.0,0.0,0.0,0.0,0.0,0.0,0.0,0.0,0.0,0.0,0.0,0.0,0.0,0.0,0.0,0.0,0.0,0.0,0.0,0.0,0.0,0.0,0.0,0.0,0.0,0.0,0.0,0.0,0.0,0.0,0.0,0.0,0.0,0.0,0.0,0.0,0.0,0.0,0.0,0.0,0.0,0.0,0.0,0.0,0.0,0.0,0.0,0.0,0.0,0.0,0.0,0.0,0.0,0.0,0.0,0.0,0.0,0.0,0.0,0.0,0.0,0.0,0.0,0.0,0.0,0.0,0.0,0.0,0.0,0.0,0.0,0.0,0.0,0.0,0.0,0.0,0.0,-0.1827,0.0,0.0,0.0,0.0,0.0,0.0,0.0,0.0,0.0,0.0,0.0,0.0,0.0,0.0,0.0,0.0,0.0,0.0,0.0,0.0,0.0,0.0,0.0,0.0,0.0,0.0,0.0,0.0,0.0,0.0,0.0,0.0,0.0,0.0,0.0,0.0,0.0,0.0,0.0,0.0,0.0,0.0,0.0,0.0,0.0,0.0,0.0,0.0,0.0,0.0,0.0,0.0,0.0,0.0,0.0,0.0,0.0,0.0,0.0,0.0,0.0,0.0,0.0,0.0,0.0,0.0,0.0,0.0,0.0,0.0,0.0,0.0,0.0,0.0,0.0,0.0,0.0,0.0,0.0,0.0,0.0,0.0,0.0,0.0,0.0,0.0,0.0,0.0,0.0,0.0,0.0,0.0,0.0,0.0,0.0,0.0,0.0,0.0,0.0,0.0,0.0,0.0,0.0,0.0,0.0,0.0,0.0,0.0,0.0,0.0,0.1417,0.045,-0.0874,-0.1698,-0.2062,0.0,0.0,0.0,0.0,0.0,0.0,0.0,0.0,0.0,0.0,0.0,0.0,0.0,0.0,0.0,0.0,0.0,0.0,0.0,0.0,0.0,0.0,0.0,0.0,0.0,0.0,0.0,0.0,0.0,0.0,0.0,0.0,0.0,0.0,0.0,0.0,0.0,0.0,0.0,0.0,0.0,0.0,0.0,0.0,0.0,0.0,0.0,0.0,0.0,0.0,0.0,0.0,0.0,0.0,0.0,0.0,0.0,0.0,0.0,0.0,0.0,0.0,0.0,0.0,0.0,0.0,0.0,0.0,0.0,0.0,0.0,0.0,0.0,0.0,0.0,0.0,0.0,0.0,0.0,0.0,0.0,0.0,0.0,0.0,0.0,0.0,0.0,0.0,0.0,0.0,0.0,0.0,0.0,0.0,0.0,0.0,0.0,0.0,0.0,0.0,0.0,0.0,0.0,0.0,0.0,0.0,0.0,0.0,0.0,0.0,0.0,0.0,-0.0883,-0.1962,-0.2516,0.0,0.0,0.0,0.0,0.0,0.0,0.0,0.0,0.0,0.0,0.0,0.0,0.0,0.0,0.0,0.0,0.0,0.0,0.0,0.0,0.0,0.0,0.0,0.0,0.0,0.0,0.0,0.0,0.0,0.0,0.0,0.0,0.0,0.0,0.0,0.0,0.0,0.0,0.0,0.0,0.0,0.0,0.0,0.0,0.0,0.0,0.0,0.0,0.0,0.0,0.0,0.0,0.0,0.0,0.0,0.0,0.0,0.0,0.0,0.0,0.0,0.0,0.0,0.0,0.0,0.0,0.0,0.0,0.0,0.0,0.0,0.0,0.0,0.0,0.0,0.0,0.0,0.0,0.0,0.0,0.0,0.0,0.0,0.0,0.0,0.0,0.0,0.0,0.0,0.0,0.0,0.0,0.0,0.0,0.0,0.0,0.0,0.0,0.0,0.0,0.0,0.0,0.0,0.0,0.0,0.0,0.0,0.0,0.0,0.0,0.1202,0.0287,-0.056,0.0,-0.3105,0.0,0.0,0.0,0.0,0.0,0.0,0.0,0.0,0.0,0.0,0.0,0.0,0.0,0.0,0.0,0.0,0.0,0.0,0.0,0.0,0.0,0.0,0.0,0.0,0.0,0.0,0.0,0.0,0.0,0.0,0.0,0.0,0.0,0.0,0.0,0.0,0.0,0.0,0.0,0.0,0.0,0.0,0.0,0.0,0.0,0.0,0.0,0.0,0.0,0.0,0.0,0.0,0.0,0.0,0.0,0.0,0.0,0.0,0.0,0.0,0.0,0.0,0.0,0.0,0.0,0.0,0.0,0.0,0.0,0.0,0.0,0.0,0.0,0.0,0.0,0.0,0.0,0.0,0.0,0.0,0.0,0.0,0.0,0.0,0.0,0.0,0.0,0.0,0.0,0.0,0.0,0.0,0.0,0.0,0.0,0.0,0.0,0.0,0.0,0.0,0.0,0.0,0.0,0.0,0.0,0.0,0.0,0.0,0.0,0.0,0.1488,0.0142,-0.075,-0.1796,0.0,0.0,0.0,0.0,0.0,0.0,0.0,0.0,0.0,0.0,0.0,0.0,0.0,0.0,0.0,0.0,0.0,0.0,0.0,0.0,0.0,0.0,0.0,0.0,0.0,0.0,0.0,0.0,0.0,0.0,0.0,0.0,0.0,0.0,0.0,0.0,0.0,0.0,0.0,0.0,0.0,0.0,0.0,0.0,0.0,0.0,0.0,0.0,0.0,0.0,0.0,0.0,0.0,0.0,0.0,0.0,0.0,0.0,0.0,0.0,0.0,0.0,0.0,0.0,0.0,0.0,0.0,0.0,0.0,0.0,0.0,0.0,0.0,0.0,0.0,0.0,0.0,0.0,0.0,0.0,0.0,0.0,0.0,0.0,0.0,0.0,0.0,0.0,0.0,0.0,0.0,0.0,0.0,0.0,0.0,0.0,0.0,0.0,0.0,0.0,0.0,0.0,0.0,0.0,0.0,0.0,0.0,0.0,0.0,0.0,0.2679,0.152,-0.0285,-0.0832,-0.1678,-0.2929,0.0,0.0,0.0,0.0,0.0,0.0,0.0,0.0,0.0,0.0,0.0,0.0,0.0,0.0,0.0,0.0,0.0,0.0,0.0,0.0,0.0,0.0,0.0,0.0,0.0,0.0,0.0,0.0,0.0,0.0,0.0,0.0,0.0,0.0,0.0,0.0,0.0,0.0,0.0,0.0,0.0,0.0,0.0,0.0,0.0,0.0,0.0,0.0,0.0,0.0,0.0,0.0,0.0,0.0,0.0,0.0,0.0,0.0,0.0,0.0,0.0,0.0,0.0,0.0,0.0,0.0,0.0,0.0,0.0,0.0,0.0,0.0,0.0,0.0,0.0,0.0,0.0,0.0,0.0,0.0,0.0,0.0,0.0,0.0,0.0,0.0,0.0,0.0,0.0,0.0,0.0,0.0,0.0,0.0,0.0,0.0,0.0,0.0,0.0,0.0,0.0,0.0,0.0,0.0,0.0,0.0,0.0,0.0,0.0,0.25,0.1074,-0.1357,-0.0539,-0.1266,0.0,0.0,0.0,0.0,0.0,0.0,0.0,0.0,0.0,0.0,0.0,0.0,0.0,0.0,0.0,0.0,0.0,0.0,0.0,0.0,0.0,0.0,0.0,0.0,0.0,0.0,0.0,0.0,0.0,0.0,0.0,0.0,0.0,0.0,0.0,0.0,0.0,0.0,0.0,0.0,0.0,0.0,0.0,0.0,0.0,0.0,0.0,0.0,0.0,0.0,0.0,0.0,0.0,0.0,0.0,0.0,0.0,0.0,0.0,0.0,0.0,0.0,0.0,0.0,0.0,0.0,0.0,0.0,0.0,0.0,0.0,0.0,0.0,0.0,0.0,0.0,0.0,0.0,0.0,0.0,0.0,0.0,0.0,0.0,0.0,0.0,0.0,0.0,0.0,0.0,0.0,0.0,0.0,0.0,0.0,0.0,0.0,0.0,0.0,0.0,0.0,0.0,0.0,0.0,0.0,0.0,0.0,0.0,0.0,0.2931,0.1622,0.0224,-0.1128,-0.172,-0.2131,0.0,0.0,0.0,0.0,0.0,0.0,0.0,0.0,0.0,0.0,0.0,0.0,0.0,0.0,0.0,0.0,0.0,0.0,0.0,0.0,0.0,0.0,0.0,0.0,0.0,0.0,0.0,0.0,0.0,0.0,0.0,0.0,0.0,0.0,0.0,0.0,0.0,0.0,0.0,0.0,0.0,0.0,0.0,0.0,0.0,0.0,0.0,0.0,0.0,0.0,0.0,0.0,0.0,0.0,0.0,0.0,0.0,0.0,0.0,0.0,0.0,0.0,0.0,0.0,0.0,0.0,0.0,0.0,0.0,0.0,0.0,0.0,0.0,0.0,0.0,0.0,0.0,0.0,0.0,0.0,0.0,0.0,0.0,0.0,0.0,0.0,0.0,0.0,0.0,0.0,0.0,0.0,0.0,0.0,0.0,0.0,0.0,0.0,0.0,0.0,0.0,0.0,0.0,0.0,0.0,0.0,0.0,0.0,0.0,0.2754,0.0,-0.0078,0.0,-0.207,-0.2567,0.0,0.0,0.0,0.0,0.0,0.0,0.0,0.0,0.0,0.0,0.0,0.0,0.0,0.0,0.0,0.0,0.0,0.0,0.0,0.0,0.0,0.0,0.0,0.0,0.0,0.0,0.0,0.0,0.0,0.0,0.0,0.0,0.0,0.0,0.0,0.0,0.0,0.0,0.0,0.0,0.0,0.0,0.0,0.0,0.0,0.0,0.0,0.0,0.0,0.0,0.0,0.0,0.0,0.0,0.0,0.0,0.0,0.0,0.0,0.0,0.0,0.0,0.0,0.0,0.0,0.0,0.0,0.0,0.0,0.0,0.0,0.0,0.0,0.0,0.0,0.0,0.0,0.0,0.0,0.0,0.0,0.0,0.0,0.0,0.0,0.0,0.0,0.0,0.0,0.0,0.0,0.0,0.0,0.0,0.0,0.0,0.0,0.0,0.0,0.0,0.0,0.0,0.0,0.0,0.0,0.0,0.0,0.0,0.3783,0.2333,0.1223,0.0324,-0.0457,-0.1433,-0.2315,0.0,0.0,0.0,0.0,0.0,0.0,0.0,0.0,0.0,0.0,0.0,0.0,0.0,0.0,0.0,0.0,0.0,0.0,0.0,0.0,0.0,0.0,0.0,0.0,0.0,0.0,0.0,0.0,0.0,0.0,0.0,0.0,0.0,0.0,0.0,0.0,0.0,0.0,0.0,0.0,0.0,0.0,0.0,0.0,0.0,0.0,0.0,0.0,0.0,0.0,0.0,0.0,0.0,0.0,0.0,0.0,0.0,0.0,0.0,0.0,0.0,0.0,0.0,0.0,0.0,0.0,0.0,0.0,0.0,0.0,0.0,0.0,0.0,0.0,0.0,0.0,0.0,0.0,0.0,0.0,0.0,0.0,0.0,0.0,0.0,0.0,0.0,0.0,0.0,0.0,0.0,0.0,0.0,0.0,0.0,0.0,0.0,0.0,0.0,0.0,0.0,0.0,0.0,0.0,0.0,0.0,0.0,0.0,0.0,0.1819,0.1145,0.1039,0.1492,-0.0513,-0.1511,0.0,0.0,0.0,0.0,0.0,0.0,0.0,0.0,0.0,0.0,0.0,0.0,0.0,0.0,0.0,0.0,0.0,0.0,0.0,0.0,0.0,0.0,0.0,0.0,0.0,0.0,0.0,0.0,0.0,0.0,0.0,0.0,0.0,0.0,0.0,0.0,0.0,0.0,0.0,0.0,0.0,0.0,0.0,0.0,0.0,0.0,0.0,0.0,0.0,0.0,0.0,0.0,0.0,0.0,0.0,0.0,0.0,0.0,0.0,0.0,0.0,0.0,0.0,0.0,0.0,0.0,0.0,0.0,0.0,0.0,0.0,0.0,0.0,0.0,0.0,0.0,0.0,0.0,0.0,0.0,0.0,0.0,0.0,0.0,0.0,0.0,0.0,0.0,0.0,0.0,0.0,0.0,0.0,0.0,0.0,0.0,0.0,0.0,0.0,0.0,0.0,0.0,0.0,0.0,0.0,0.0,0.0,0.0,0.0,0.204,0.1752,0.1739,0.1949,0.0374,-0.0631,-0.0853,0.0,0.0,0.0,0.0,0.0,0.0,0.0,0.0,0.0,0.0,0.0,0.0,0.0,0.0,0.0,0.0,0.0,0.0,0.0,0.0,0.0,0.0,0.0,0.0,0.0,0.0,0.0,0.0,0.0,0.0,0.0,0.0,0.0,0.0,0.0,0.0,0.0,0.0,0.0,0.0,0.0,0.0,0.0,0.0,0.0,0.0,0.0,0.0,0.0,0.0,0.0,0.0,0.0,0.0,0.0,0.0,0.0,0.0,0.0,0.0,0.0,0.0,0.0,0.0,0.0,0.0,0.0,0.0,0.0,0.0,0.0,0.0,0.0,0.0,0.0,0.0,0.0,0.0,0.0,0.0,0.0,0.0,0.0,0.0,0.0,0.0,0.0,0.0,0.0,0.0,0.0,0.0,0.0,0.0,0.0,0.0,0.0,0.0,0.0,0.0,0.0,0.0,0.0,0.0,0.0,0.0,0.0,0.0,0.279,0.2973,0.2417,0.1241,0.1196,0.0445,0.0,0.0,0.0,0.0,0.0,0.0,0.0,0.0,0.0,0.0,0.0,0.0,0.0,0.0,0.0,0.0,0.0,0.0,0.0,0.0,0.0,0.0,0.0,0.0,0.0,0.0,0.0,0.0,0.0,0.0,0.0,0.0,0.0,0.0,0.0,0.0,0.0,0.0,0.0,0.0,0.0,0.0,0.0,0.0,0.0,0.0,0.0,0.0,0.0,0.0,0.0,0.0,0.0,0.0,0.0,0.0,0.0,0.0,0.0,0.0,0.0,0.0,0.0,0.0,0.0,0.0,0.0,0.0,0.0,0.0,0.0,0.0,0.0,0.0,0.0,0.0,0.0,0.0,0.0,0.0,0.0,0.0,0.0,0.0,0.0,0.0,0.0,0.0,0.0,0.0,0.0,0.0,0.0,0.0,0.0,0.0,0.0,0.0,0.0,0.0,0.0,0.0,0.0,0.0,0.0,0.0,0.0,0.0,0.0,0.3246,0.3639,0.3613,0.3245,0.1942,0.1246,0.0,0.0,0.0,0.0,0.0,0.0,0.0,0.0,0.0,0.0,0.0,0.0,0.0,0.0,0.0,0.0,0.0,0.0,0.0,0.0,0.0,0.0,0.0,0.0,0.0,0.0,0.0,0.0,0.0,0.0,0.0,0.0,0.0,0.0,0.0,0.0,0.0,0.0,0.0,0.0,0.0,0.0,0.0,0.0,0.0,0.0,0.0,0.0,0.0,0.0,0.0,0.0,0.0,0.0,0.0,0.0,0.0,0.0,0.0,0.0,0.0,0.0,0.0,0.0,0.0,0.0,0.0,0.0,0.0,0.0,0.0,0.0,0.0,0.0,0.0,0.0,0.0,0.0,0.0,0.0,0.0,0.0,0.0,0.0,0.0,0.0,0.0,0.0,0.0,0.0,0.0,0.0,0.0,0.0,0.0,0.0,0.0,0.0,0.0,0.0,0.0,0.0,0.0,0.0,0.0,0.0,0.0,0.0,0.3393,0.3691,0.4045,0.4264,0.4541,0.3392,0.2425,0.0,0.0,0.0,0.0,0.0,0.0,0.0,0.0,0.0,0.0,0.0,0.0,0.0,0.0,0.0,0.0,0.0,0.0,0.0,0.0,0.0,0.0,0.0,0.0,0.0,0.0,0.0,0.0,0.0,0.0,0.0,0.0,0.0,0.0,0.0,0.0,0.0,0.0,0.0,0.0,0.0,0.0,0.0,0.0,0.0,0.0,0.0,0.0,0.0,0.0,0.0,0.0,0.0,0.0,0.0,0.0,0.0,0.0,0.0,0.0,0.0,0.0,0.0,0.0,0.0,0.0,0.0,0.0,0.0,0.0,0.0,0.0,0.0,0.0,0.0,0.0,0.0,0.0,0.0,0.0,0.0,0.0,0.0,0.0,0.0,0.0,0.0,0.0,0.0,0.0,0.0,0.0,0.0,0.0,0.0,0.0,0.0,0.0,0.0,0.0,0.0,0.0,0.0,0.0,0.0,0.0,0.0,0.0,0.3701,0.4037,0.4225,0.4665,0.5116,0.4864,0.3695,0.0,0.0,0.0,0.0,0.0,0.0,0.0,0.0,0.0,0.0,0.0,0.0,0.0,0.0,0.0,0.0,0.0,0.0,0.0,0.0,0.0,0.0,0.0,0.0,0.0,0.0,0.0,0.0,0.0,0.0,0.0,0.0,0.0,0.0,0.0,0.0,0.0,0.0,0.0,0.0,0.0,0.0,0.0,0.0,0.0,0.0,0.0,0.0,0.0,0.0,0.0,0.0,0.0,0.0,0.0,0.0,0.0,0.0,0.0,0.0,0.0,0.0,0.0,0.0,0.0,0.0,0.0,0.0,0.0,0.0,0.0,0.0,0.0,0.0,0.0,0.0,0.0,0.0,0.0,0.0,0.0,0.0,0.0,0.0,0.0,0.0,0.0,0.0,0.0,0.0,0.0,0.0,0.0,0.0,0.0,0.0,0.0,0.0,0.0,0.0,0.0,0.0,0.0,0.0,0.0,0.0,0.0,0.0,0.3658,0.4194,0.4279,0.4695,0.5214,0.4495,0.3835,0.0,0.0,0.0,0.0,0.0,0.0,0.0,0.0,0.0,0.0,0.0,0.0,0.0,0.0,0.0,0.0,0.0,0.0,0.0,0.0,0.0,0.0,0.0,0.0,0.0,0.0,0.0,0.0,0.0,0.0,0.0,0.0,0.0,0.0,0.0,0.0,0.0,0.0,0.0,0.0,0.0,0.0,0.0,0.0,0.0,0.0,0.0,0.0,0.8904,0.0,0.0,0.0,0.0,0.0,0.0,0.0,0.0,0.0,0.0,0.0,0.0,0.0,0.0,0.0,0.0,0.0,0.0,0.0,0.0,0.0,0.0,0.0,0.0,0.0,0.0,0.0,0.0,0.0,0.0,0.0,0.0,0.0,0.0,0.0,0.0,0.0,0.0,0.0,0.0,0.0,0.0,0.0,0.0,0.0,0.0,0.0,0.0,0.0,0.0,0.0,0.0,0.0,0.0,0.0,0.0,0.0,0.0,0.0,0.3891,0.4396,0.4456,0.4845,0.5778,0.5235,0.4454,0.0,0.0,0.0,0.0,0.0,0.0,0.0,0.0,0.0,0.0,0.0,0.0,0.0,0.0,0.0,0.0,0.0,0.0,0.0,0.0,0.0,0.0,0.0,0.0,0.0,0.0,0.0,0.0,0.0,0.0,0.0,0.0,0.0,0.0,0.0,0.0,0.0,0.0,0.0,0.0,0.0,0.0,0.0,0.0,0.0,0.0,0.0,0.0,0.0,0.0,0.0,0.0,0.0,0.0,0.0,0.0,0.0,0.0,0.0,0.0,0.0,0.0,0.0,0.0,0.0,0.0,0.0,0.0,0.0,0.0,0.0,0.0,0.0,0.0,0.0,0.0,0.0,0.0,0.0,0.0,0.0,0.0,0.0,0.0,0.0,0.0,0.0,0.0,0.0,0.0,0.0,0.0,0.0,0.0,0.0,0.0,0.0,0.0,0.0,0.0,0.0,0.0,0.0,0.0,0.0,0.0,0.0,0.366,0.4011,0.4585,0.4519,0.5115,0.6463,0.6037,0.533,0.4214,0.0,0.0,0.0,0.0,0.0,0.0,0.0,0.0,0.0,0.0,0.0,0.0,0.0,0.0,0.0,0.0,0.0,0.0,0.0,0.0,0.0,0.0,0.0,0.0,0.0,0.0,0.0,0.0,0.0,0.0,0.0,0.0,0.0,0.0,0.0,0.0,0.0,0.0,0.473,0.6849,0.0,0.0,0.0,0.0,0.0,0.0,0.0,0.0,0.8373,0.0,0.0,0.0,0.0,0.0,0.0,0.0,0.0,0.0,0.0,0.0,0.0,0.0,0.0,0.0,0.0,0.0,0.0,0.0,0.0,0.0,0.0,0.0,0.0,0.0,0.0,0.0,0.0,0.0,0.0,0.0,0.0,0.0,0.0,0.0,0.0,0.0,0.0,0.0,0.0,0.0,0.0,0.0,0.0,0.0,0.0,0.0,0.0,0.0,0.0,0.0,0.0,0.0,0.0,0.0,0.0,0.3778,0.3602,0.3739,0.4016,0.4325,0.492,0.5904,0.5934,0.5732,0.5374,0.0,0.0,0.0,0.0,0.0,0.0,0.0,0.0,0.0,0.0,0.0,0.0,0.0,0.0,0.0,0.0,0.0,0.0,0.0,0.0,0.0,0.0,0.0,0.0,0.0,0.0,0.0,0.0,0.0,0.0,0.0,0.0,0.0,0.0,0.0,0.0,0.0,0.0,0.0,0.7114,0.8487,0.0,0.0,0.0,0.0,0.0,0.0,0.0,0.0,0.7825,0.0,0.0,0.0,0.0,0.0,0.0,0.0,0.0,0.0,0.0,0.0,0.0,0.0,0.0,0.0,0.0,0.0,0.0,0.0,0.0,0.0,0.0,0.0,0.0,0.0,0.0,0.0,0.0,0.0,0.0,0.0,0.0,0.0,0.0,0.0,0.0,0.0,0.0,0.0,0.0,0.0,0.0,0.0,0.0,0.0,0.0,0.0,0.0,0.0,0.0,0.0,0.0,0.0,0.0,0.0,0.4101,0.3947,0.403,0.4416,0.4575,0.5262,0.6478,0.6322,0.6171,0.0,0.0,0.0,0.0,0.0,0.0,0.0,0.0,0.0,0.0,0.0,0.0,0.0,0.0,0.0,0.0,0.0,0.0,0.0,0.0,0.0,0.0,0.0,0.0,0.0,0.0,0.0,0.0,0.0,0.0,0.0,0.0,0.0,0.0,0.0,0.0,0.0,0.0,0.0,0.0,0.7371,0.8599,0.9483,0.0,0.0,0.0,0.0,0.0,0.0,0.8903,0.7856,0.0,0.0,0.0,0.0,0.0,0.0,0.0,0.0,0.0,0.0,0.0,0.0,0.0,0.0,0.0,0.0,0.0,0.0,0.0,0.0,0.0,0.0,0.0,0.0,0.0,0.0,0.0,0.0,0.0,0.0,0.0,0.0,0.0,0.0,0.0,0.0,0.0,0.0,0.0,0.0,0.0,0.0,0.0,0.0,0.0,0.0,0.0,0.0,0.0,0.0,0.0,0.0,0.0,0.0,0.0,0.4285,0.4168,0.43,0.4697,0.4819,0.5596,0.6811,0.6746,0.6643,0.0,0.0,0.0,0.0,0.0,0.0,0.0,0.0,0.0,0.0,0.0,0.0,0.0,0.0,0.0,0.0,0.0,0.0,0.0,0.0,0.0,0.0,0.0,0.0,0.0,0.0,0.0,0.0,0.0,0.0,0.0,0.0,0.0,0.0,0.0,0.0,0.0,0.0,0.0,0.0,0.0,0.9028,0.9815,1.014,0.0,0.0,0.0,0.0,1.0178,0.9228,0.0,0.0,0.0,0.0,0.0,0.0,0.0,0.0,0.0,0.0,0.0,0.0,0.0,0.0,0.0,0.0,0.0,0.0,0.0,0.0,0.0,0.0,0.0,0.0,0.0,0.0,0.0,0.0,0.0,0.0,0.0,0.0,0.0,0.0,0.0,0.0,0.0,0.0,0.0,0.0,0.0,0.0,0.0,0.0,0.0,0.0,0.0,0.0,0.0,0.0,0.0,0.0,0.0,0.0,0.0,0.0,0.4364,0.4085,0.3988,0.4132,0.4596,0.5262,0.5931,0.6669,0.6913,0.0,0.0,0.0,0.0,0.0,0.0,0.0,0.0,0.0,0.0,0.0,0.0,0.0,0.0,0.0,0.0,0.0,0.0,0.0,0.0,0.0,0.0,0.0,0.0,0.0,0.0,0.0,0.0,0.0,0.0,0.0,0.0,0.0,0.0,0.0,0.0,0.0,0.0,0.0,0.0,0.0,0.9845,1.0172,1.05,1.1018,0.0,0.0,1.1098,1.163,1.1049,0.0,0.0,0.0,0.0,0.0,0.0,0.0,0.0,0.0,0.0,0.0,0.0,0.0,0.0,0.0,0.0,0.0,0.0,0.0,0.0,0.0,0.0,0.0,0.0,0.0,0.0,0.0,0.0,0.0,0.0,0.0,0.0,0.0,0.0,0.0,0.0,0.0,0.0,0.0,0.0,0.0,0.0,0.0,0.0,0.0,0.0,0.0,0.0,0.0,0.0,0.0,0.0,0.0,0.0,0.0,0.4351,0.464,0.4442,0.4325,0.4373,0.4911,0.5451,0.5899,0.6658,0.6834,0.0,0.0,0.0,0.0,0.0,0.0,0.0,0.0,0.0,0.0,0.0,0.0,0.0,0.0,0.0,0.0,0.0,0.0,0.0,0.0,0.0,0.0,0.0,0.0,0.0,0.0,0.0,0.0,0.0,0.0,0.0,0.0,0.0,0.0,0.0,0.0,0.0,0.0,0.0,0.0,0.0,0.0,1.1038,1.0998,0.0,0.0,0.0,1.1337,1.1589,0.0,0.0,0.0,0.0,0.0,0.0,0.0,0.0,0.0,0.0,0.0,0.0,0.0,0.0,0.0,0.0,0.0,0.0,0.0,0.0,0.0,0.0,0.0,0.0,0.0,0.0,0.0,0.0,0.0,0.0,0.0,0.0,0.0,0.0,0.0,0.0,0.0,0.0,0.0,0.0,0.0,0.0,0.0,0.0,0.0,0.0,0.0,0.0,0.0,0.0,0.0,0.0,0.0,0.0,0.0,0.0,0.0,0.4733,0.4751,0.4746,0.4936,0.5346,0.5758,0.6066,0.6647,0.0,0.0,0.0,0.0,0.0,0.0,0.0,0.0,0.0,0.0,0.0,0.0,0.0,0.0,0.0,0.0,0.0,0.0,0.0,0.0,0.0,0.0,0.0,0.0,0.0,0.0,0.0,-0.048,0.0,0.0,0.0,0.0,0.0,0.0,0.0,0.0,0.0,0.0,0.0,0.0,0.0,0.0,1.1754,1.1813,1.1687,1.1952,0.0,0.0,1.1752,1.194,1.1405,1.0211,0.0,0.0,0.0,0.0,0.0,0.0,0.0,0.0,0.0,0.0,0.0,0.0,0.0,0.0,0.0,0.0,0.0,0.0,0.0,0.0,0.0,0.0,0.0,0.0,0.0,0.0,0.0,0.0,0.0,0.0,0.0,0.0,0.0,0.0,0.0,0.0,0.0,0.0,0.0,0.0,0.0,0.0,0.0,0.0,0.0,0.0,0.0,0.0,0.0,0.0,0.0,0.0,0.0,0.0,0.0,0.4736,0.4939,0.5211,0.5643,0.5869,0.617,0.6422,0.6963,0.7059,0.0,0.0,0.0,0.0,0.0,0.0,0.0,0.0,0.0,0.0,0.0,0.0,0.0,0.0,0.0,0.0,0.0,0.0,0.0,0.0,0.0,0.0,0.0,0.0,0.0,0.0,0.0,0.0,0.0,0.0,0.0,0.0,0.0,0.0,0.0,0.0,0.0,0.0,0.0,0.0,0.0,1.1853,1.2349,1.2704,1.3243,0.0,1.3623,1.3089,1.3549,1.3583,1.2177,0.8535,0.0,0.0,0.0,0.0,0.0,0.0,0.0,0.0,0.0,0.0,0.0,0.0,0.0,0.0,0.0,0.0,0.0,0.0,0.0,0.0,0.0,0.0,0.0,0.0,0.0,0.0,0.0,0.0,0.0,0.0,0.0,0.0,0.0,0.0,0.0,0.0,0.0,0.0,0.0,0.0,0.0,0.0,0.0,0.0,0.0,0.0,0.0,0.0,0.0,0.0,0.0,0.0,0.0,0.4599,0.4776,0.5174,0.5522,0.572,0.6142,0.6411,0.6645,0.7029,0.7053,0.0,0.0,0.0,0.0,0.0,0.0,0.0,0.0,0.0,0.0,0.0,0.0,0.0,0.0,0.0,0.0,0.0,0.0,0.0,0.0,0.0,0.0,0.0,0.0,0.0,0.0,0.0,0.0,0.2629,0.321,0.3716,0.0,0.0,0.0,0.0,0.0,0.0,0.0,0.0,0.0,0.0,1.2491,1.3604,1.3581,0.0,0.0,1.3976,1.3456,1.4104,1.2782,1.0985,0.9051,0.7125,0.0,0.0,0.0,0.0,0.0,0.0,0.0,0.0,0.0,0.0,0.0,0.0,0.0,0.0,0.0,0.0,0.0,0.0,0.0,0.0,0.0,0.0,0.0,0.0,0.0,0.0,0.0,0.0,0.0,0.0,0.0,0.0,0.0,0.0,0.0,0.0,0.0,0.0,0.0,0.0,0.0,0.0,0.0,0.0,0.0,0.0,0.0,0.0,0.0,0.0,0.0,0.0,0.467,0.4893,0.5493,0.5949,0.6137,0.6546,0.691,0.7101,0.7345,0.7286,0.0,0.0,0.0,0.0,0.0,0.0,0.0,0.0,0.0,0.0,0.0,0.0,0.0,0.0,0.0,0.0,0.0,0.0,0.0,0.0,0.0,0.0,0.0,0.0,0.0,0.0,0.0,0.0,0.3428,0.3757,0.3585,0.0,0.0,0.0,0.0,0.0,0.0,0.0,0.0,0.0,0.0,1.3227,1.4564,1.4351,1.4319,1.4953,1.4035,1.3423,1.3819,1.2103,1.0247,0.8444,0.0,0.0,0.0,0.0,0.0,0.0,0.0,0.0,0.0,0.0,0.0,0.0,0.0,0.0,0.0,0.0,0.0,0.0,0.0,0.0,0.0,0.0,0.0,0.0,0.0,0.0,0.0,0.307,0.0,0.0,0.4212,0.0,0.0,0.0,0.0,0.0,0.0,0.0,0.0,0.0,0.0,0.0,0.0,0.0,0.0,0.0,0.0,0.0,0.0,0.0,0.0,0.0,0.0,0.4795,0.5201,0.5971,0.6612,0.709,0.7454,0.769,0.7789,0.7981,0.7729,0.6844,0.0,0.0,0.0,0.0,0.0,0.0,0.0,0.0,0.0,0.0,0.0,0.0,0.0,0.0,0.0,0.0,0.0,0.0,0.0,0.0,0.0,0.0,0.0,0.0,0.0,0.0,0.3248,0.3494,0.3591,0.0,0.0,0.0,0.0,0.0,0.0,0.0,0.0,0.0,0.0,1.2763,1.4015,1.5023,1.502,1.4852,1.5192,1.3999,1.2929,1.2571,1.1889,1.0289,0.0,0.0,0.0,0.0,0.0,0.0,0.0,0.0,0.0,0.0,0.0,0.0,0.0,0.0,0.0,0.0,0.0,0.0,0.0,0.0,0.0,0.0,0.0,0.0,0.0,0.0,0.0,0.3275,0.3517,0.0,0.0,0.0,0.0,0.0,0.0,0.0,0.0,0.0,0.0,0.0,-0.1047,-0.076,0.0,0.0,0.0,0.0,0.0,0.0,0.0,0.0,0.0,0.0,0.0,0.0,0.4767,0.539,0.6088,0.6754,0.7343,0.7696,0.8037,0.8227,0.796,0.7459,0.6593,0.0,0.0,0.0,0.0,0.0,0.0,0.0,0.0,0.0,0.0,0.0,0.0,0.0,0.0,0.0,0.0,0.0,0.0,0.0,0.0,0.0,0.0,0.0,0.0,0.0,0.3143,0.0,0.0,0.0,0.0,0.0,0.0,0.0,0.0,0.0,0.0,0.0,1.0173,1.2135,1.3354,1.4473,1.5686,1.5184,1.4917,0.0,0.0,0.0,0.0,0.0,0.0,0.0,0.0,0.0,0.0,0.0,0.0,0.0,0.0,0.6629,0.5099,0.4886,0.4859,0.4425,0.0,0.0,0.0,0.0,0.0,0.0,0.0,0.0,0.0,0.0,0.0,0.0,0.0,0.0,0.4013,0.0,0.4527,0.0,0.0,0.0,0.0,0.0,0.0,0.0,0.0,-0.0155,-0.048,-0.0412,-0.0084,0.0661,0.0,0.2523,0.3354,0.0,0.0,0.0,0.0,0.0,0.0,0.0,0.0,0.526,0.5851,0.6635,0.7364,0.7752,0.8102,0.8317,0.8491,0.7999,0.751,0.6956,0.627,0.556,0.0,0.0,0.0,0.0,0.0,0.0,0.0,0.0,0.0,0.0,0.0,0.0,0.0,0.0,0.0,0.0,0.0,0.0,0.0,0.0,0.0,0.0,0.0,0.4423,0.0,0.0,0.0,0.0,0.0,0.0,0.0,0.0,0.0,0.776,0.9235,1.1063,1.3125,1.4063,1.4901,1.5718,0.0,0.0,0.0,0.0,0.0,0.0,0.0,0.8848,0.7129,0.5746,0.4445,0.3243,0.4351,0.5765,0.6564,0.0,0.0,0.6186,0.5794,0.5479,0.4973,0.5381,0.5794,0.5915,0.6753,0.7781,0.0,0.0,0.0,0.0,0.0,0.0,0.0,0.0,0.383,0.4604,0.0,0.5105,0.0,0.0,0.0,0.0,0.0,0.212,0.0,0.0,0.0261,-0.0179,0.027,0.0899,0.169,0.2532,0.3282,0.4368,0.5724,0.5698,0.0,0.0,0.0,0.0,0.0,0.0,0.6112,0.66,0.7502,0.8108,0.8451,0.8678,0.8775,0.8484,0.822,0.8018,0.7935,0.6734,0.5829,0.5151,0.4496,0.0,0.0,0.0,0.0,0.0,0.0,0.0,0.0,0.0,0.0,0.0,0.0,0.0,0.0,0.0,0.0,0.0,0.0,0.0,0.0,0.5194,0.0,0.0,0.0,0.0,0.0,0.0,0.0,0.0,0.0,0.0,0.9096,1.0611,1.2411,1.4198,0.0,0.0,0.0,0.0,1.4744,1.4558,1.3306,1.2117,1.1661,1.0001,0.82,0.6122,0.0,0.0,0.3985,0.5124,0.6328,0.6737,0.7699,0.8337,0.8306,0.7395,0.6608,0.6345,0.6018,0.5974,0.6526,0.7143,0.8007,0.528,0.0,0.0,0.0,0.0,0.4022,0.476,0.5818,0.5832,0.6037,0.6492,0.6374,0.0,0.0,0.0,0.0,0.0,0.0,0.1906,0.1397,0.0903,0.0838,0.0958,0.1149,0.2099,0.3503,0.4073,0.497,0.6174,0.6512,0.6256,0.5443,0.0,0.0,0.0,0.0,0.6353,0.7046,0.7746,0.8266,0.8684,0.88,0.8843,0.8675,0.8151,0.7836,0.7685,0.683,0.6123,0.5345,0.4743,0.0,0.0,0.0,0.0,0.0,0.0,0.0,0.0,0.0,0.0,0.0,0.0,0.0,0.0,0.0,0.0,0.0,0.0,0.0,0.4836,0.5175,0.5435,0.0,0.0,0.0,0.0,0.0,0.0,0.0,0.0,0.0,1.1109,1.2095,1.3241,0.0,0.0,1.5367,1.5104,1.4921,1.4583,1.3945,1.3156,0.0,1.1012,0.9894,0.8387,0.6205,0.5221,0.4874,0.5588,0.6337,0.7287,0.8366,0.8925,0.9154,0.9518,0.8459,0.7334,0.6703,0.6755,0.7,0.6976,0.7932,0.9006,0.6509,0.5561,0.5023,0.4793,0.4921,0.5291,0.6101,0.7247,0.7038,0.7285,0.7857,0.733,0.6838,0.6335,0.5575,0.0,0.0,0.0,0.2494,0.2048,0.1915,0.1873,0.1825,0.2016,0.2709,0.4004,0.4756,0.5636,0.6596,0.7169,0.7162,0.6578,0.0,0.0,0.5464,0.6255,0.7032,0.7774,0.8518,0.9023,0.9593,0.9415,0.9111,0.8679,0.8336,0.7985,0.7614,0.7229,0.6588,0.5887,0.5321,0.4522,0.0,0.0,0.0,0.0,0.0,0.0,0.0,0.0,0.0,0.0,0.0,0.3441,0.3238,0.0,0.0,0.0,0.4158,0.5144,0.5916,0.6094,0.0,0.0,0.0,0.0,0.0,0.0,0.0,0.7775,0.951,1.1122,1.2381,1.3365,1.4152,1.4712,1.5199,1.514,1.4663,0.0,1.4182,1.3672,1.2917,1.2068,1.0989,0.9731,0.8141,0.6188,0.5381,0.535,0.6317,0.7161,0.7997,0.9064,0.9816,1.017,1.035,0.9793,0.8945,0.7704,0.7644,0.7792,0.7736,0.8668,0.9625,0.7812,0.724,0.5887,0.5557,0.5904,0.66,0.7451,0.8237,0.7677,0.8292,0.9619,0.8223,0.7567,0.745,0.5561,0.0,0.4502,0.3648,0.3198,0.3166,0.3076,0.2838,0.2775,0.315,0.3647,0.4164,0.5205,0.6263,0.7065,0.7766,0.8028,0.7949,0.7407,0.6759,0.6233,0.7304,0.8087,0.8495,0.9361,1.0116,1.0562,1.0157,0.9537,0.8704,0.8704,0.8345,0.7762,0.7651,0.7172,0.6531,0.6083,0.5331,0.4032,0.0,0.0,0.0,0.0,0.0,0.0,0.0,0.0,0.0,0.0,0.0,0.0,0.0,0.0,0.0,0.5246,0.0,0.726,0.7579,0.0,0.0,0.0,0.8058,0.6883,0.7636,0.8633,0.962,0.0,0.0,1.3259,1.4263,1.5091,1.5281,1.5082,1.4754,1.429,1.3979,1.3717,1.3339,1.254,1.1797,1.1009,0.949,0.7763,0.6116,0.5761,0.6038,0.6809,0.7545,0.8514,0.9404,1.0374,1.0982,1.0603,1.1148,1.1304,0.9313,0.8737,0.8595,0.8772,0.9374,1.0115,0.8256,0.8577,0.7891,0.763,0.7498,0.7711,0.8343,0.9087,0.8911,0.8967,0.9053,0.8743,0.8144,0.7367,0.6579,0.5898,0.5376,0.4847,0.4311,0.3871,0.3526,0.3571,0.3802,0.3569,0.3886,0.4632,0.5716,0.65,0.7229,0.7962,0.824,0.8084,0.8112,0.7846,0.7421,0.7837,0.8482,0.9248,0.9827,1.0236,1.0206,1.004,0.9537,0.8704,0.8477,0.817,0.768,0.7476,0.7171,0.6756,0.6275,0.5557,0.4739,0.3952,0.0,0.0,0.0,0.0,0.0,0.0,0.0,0.0,0.0,0.3509,0.3296,0.0,0.4096,0.0,0.5284,0.6476,0.7504,0.748,0.0,0.0,0.8487,0.8742,0.8546,0.9026,0.9669,1.0701,1.1894,1.293,1.3866,1.4955,1.5715,1.5924,1.5701,1.5488,1.5144,1.4818,1.4207,1.3276,1.259,1.1807,1.0543,0.8726,0.722,0.6169,0.6322,0.6829,0.7692,0.8164,0.8745,0.9831,1.0373,1.0803,1.1077,1.1297,1.1532,1.1338,1.0723,0.9891,0.9618,1.0381,1.1276,0.8794,0.891,0.9142,0.9178,0.9318,0.9099,0.9494,1.0077,0.9785,0.9707,0.9768,0.918,0.8592,0.8012,0.7107,0.66,0.6353,0.5558,0.507,0.4796,0.4212,0.412,0.4309,0.4166,0.4385,0.5072,0.6173,0.6904,0.739,0.8259,0.8582,0.8481,0.8582,0.8608,0.856,0.862,0.9116,0.9829,1.059,1.0876,1.0898,1.0384,0.9757,0.8909,0.8452,0.7844,0.7111,0.6888,0.6697,0.6318,0.6079,0.5647,0.4841,0.4384,0.381,0.0,0.0,0.0,0.0,0.0,0.0,0.0,0.0,0.0,0.0,0.0,0.4562,0.4988,0.6147,0.7206,0.8188,0.8146,0.8264,0.9069,0.9634,0.9926,0.9985,1.0443,1.1113,1.2082,1.3012,1.3961,1.5073,1.5725,1.6234,1.6666,1.6241,1.5698,1.524,1.467,1.3917,1.325,1.2529,1.1454,0.9876,0.8245,0.7148,0.7006,0.7273,0.7897,0.8395,0.8876,0.9389,1.0247,1.0787,1.1247,1.1634,1.2081,1.2445,1.2284,1.2325,1.1871,1.1186,1.1673,1.2427,0.9345,0.9261,0.971,1.0398,1.098,1.0747,1.0862,1.1101,1.05,1.046,1.0849,0.9678,0.8977,0.8906,0.7599,0.7135,0.7155,0.6149,0.563,0.5522,0.5036,0.4679,0.4603,0.4761,0.5088,0.5477,0.6508,0.7177,0.7604,0.8406,0.8856,0.8974,0.8778,0.8915,0.9415,0.9571,0.9884,1.0368,1.1335,1.1889,1.1752,1.1017,1.0126,0.8993,0.8401,0.758,0.6469,0.6353,0.6042,0.5633,0.5692,0.5456,0.4709,0.4669,0.4286,0.0,0.3048,0.0,0.0,0.0,0.0,0.0,0.0,0.0,0.0,0.4893,0.5394,0.6484,0.7368,0.8136,0.9072,0.9207,0.9483,0.9978,1.0885,1.1439,1.1202,1.1872,1.2759,1.3772,1.4376,1.511,1.6244,1.658,1.6877,1.7169,1.6601,1.5879,1.5109,1.4277,1.3631,1.3483,1.2463,1.123,0.9673,0.8361,0.7685,0.7823,0.8219,0.8878,0.9099,0.9411,0.9906,1.0506,1.115,1.1722,1.2038,1.2912,1.3451,1.303,1.3517,1.3575,1.2879,1.3048,1.3578,0.9883,1.0842,1.0595,1.1141,1.2117,1.2126,1.209,1.1977,1.1828,1.1566,1.1167,1.0406,0.9758,0.9298,0.8725,0.8097,0.7404,0.7322,0.6633,0.5702,0.5494,0.5342,0.5032,0.5017,0.5205,0.5489,0.6444,0.7118,0.761,0.8382,0.8891,0.9117,0.8922,0.9065,0.9571,0.0,0.0,0.0,1.1938,1.2001,1.1752,1.1117,1.0184,0.8869,0.8239,0.0,0.637,0.5935,0.5656,0.5629,0.5435,0.0,0.0,0.0,0.0,0.0,0.0,0.0,0.0,0.0,0.0,0.0,0.4759,0.4918,0.4838,0.5691,0.6581,0.722,0.8113,0.884,0.9613,1.0393,1.0878,1.0885,1.1783,1.2548,1.2572,1.3013,1.3754,1.4647,1.5266,1.5819,1.6431,1.7127,1.7513,1.7329,1.7047,1.6686,1.5894,1.5062,1.4512,1.4131,1.2854,1.1558,1.0635,0.9462,0.8627,0.8488,0.8418,0.8903,0.9651,0.9666,1.0062,1.0799,1.1065,1.152,1.2207,1.2922,1.3542,1.4275,1.4406,1.4249,1.3919,1.4104,1.4594,1.0642,0.0,1.1454,1.1744,0.0,1.2645,1.2673,1.2425,1.2328,1.2125,1.1676,1.1037,1.0607,1.0293,0.956,0.8922,0.8419,0.7954,0.7364,0.6769,0.63,0.5898,0.5582,0.5582,0.5784,0.5965,0.6824,0.7366,0.7708,0.828,0.866,0.871,0.8567,0.8822,0.9367,1.055,1.1571,1.2521,1.2335,1.2113,1.1993,1.1199,1.0162,0.8922,0.8084,0.0,0.0,0.0,0.0,0.0,0.0,0.0,0.0,0.0,0.0,0.3477,0.3474,0.3397,0.3459,0.3704,0.4246,0.4807,0.5752,0.6076,0.5837,0.6788,0.76,0.8142,0.8995,0.981,1.0644,1.1426,1.188,1.2195,1.3328,1.4077,1.3892,1.4325,1.5063,1.5805,1.6077,1.646,1.7266,1.7544,1.7696,1.7516,1.7357,1.7034,1.6316,1.5583,1.5029,1.4374,1.356,1.2586,1.1628,1.0802,1.0104,0.9651,0.9594,0.989,1.0372,1.0402,1.057,1.1205,1.1443,1.1761,1.2684,1.3379,1.4203,1.5035,1.5341,1.5701,1.6211,1.6486,1.6691,1.1456,1.1629,1.2115,1.2389,1.2374,1.2871,1.3005,1.2812,0.0,0.0,0.0,1.172,1.1386,1.1294,1.0179,0.9551,0.946,0.8336,0.7851,0.7752,0.689,0.6354,0.6264,0.626,0.6368,0.6701,0.7189,0.7602,0.7829,0.8188,0.8317,0.8238,0.8072,0.8564,0.9353,1.0899,1.2142,1.2926,1.2474,1.2234,1.2234,1.1144,1.003,0.891,0.7967,0.6792,0.5525,0.4943,0.4457,0.4259,0.3953,0.3814,0.4053,0.3849,0.3588,0.3499,0.3564,0.3635,0.3706,0.4299,0.4843,0.5255,0.6602,0.7272,0.7113,0.7825,0.8489,0.9086,0.9876,1.0795,1.1851,1.2216,1.2641,1.346,1.4645,1.529,1.5213,1.5489,1.6226,1.6975,1.6897,1.7106,1.811,1.7993,1.7644,1.7684,1.7626,1.7192,1.6686,1.6053,1.5406,1.4993,1.4433,1.3788,1.2867,1.1992,1.1659,1.1037,1.1005,1.1078,1.1109,1.1041,1.1346,1.1744,1.1896,1.2438,1.3398,1.4272,1.5161,1.602,1.6488,1.7287,1.8739,1.9338,1.9317,1.1841,1.262,1.2596,1.3029,1.3779,1.3642,1.3409,1.3207,1.3023,1.3048,1.3265,1.2289,1.1872,1.1619,1.0966,1.0148,0.9387,0.8916,0.8261,0.749,0.704,0.6822,0.6722,0.6722,0.6788,0.7057,0.7267,0.7606,0.7979,0.8083,0.8135,0.8124,0.8158,0.8824,1.0134,1.0813,1.1712,1.2758,1.2664,1.2483,1.2234,1.1004,0.9772,0.8561,0.7494,0.6369,0.5202,0.4579,0.4219,0.4116,0.4174,0.4113,0.3925,0.4111,0.3932,0.3501,0.3602,0.3714,0.3828,0.4488,0.5598,0.6864,0.7407,0.7685,0.8205,0.8778,0.946,1.0175,1.0968,1.1761,1.2194,1.3046,1.3697,1.4332,1.4925,1.5519,1.6128,1.6619,1.6995,1.7627,1.7819,1.7819,1.8272,1.8261,1.8133,1.8056,1.7723,1.7486,1.6957,1.6444,1.6264,1.6392,1.5607,1.4781,1.4084,1.3193,1.2552,1.2364,1.1765,1.1487,1.1661,1.1342,1.1398,1.2397,1.2423,1.2919,1.4401,1.5343,1.6374,1.7579,1.8246,1.9098,2.0323,2.1433,2.1978,1.2694,1.3087,1.3265,1.3561,1.385,1.3352,1.313,1.3061,1.2817,1.3018,1.3305,1.2682,1.2348,1.2028,1.1378,1.0767,1.0136,0.9368,0.8466,0.7633,0.7461,0.7132,0.6912,0.7153,0.722,0.724,0.7522,0.7731,0.7875,0.7976,0.7878,0.7709,0.7944,0.8783,1.0088,1.0664,1.1619,1.28,1.2437,1.1993,1.1752,1.0543,0.948,0.8325,0.7211,0.6143,0.5111,0.4477,0.4006,0.4006,0.3926,0.396,0.4,0.4064,0.4002,0.3695,0.3807,0.391,0.3997,0.4728,0.5739,0.6784,0.7603,0.8355,0.9115,0.9484,0.9997,1.0625,1.124,1.1963,1.2943,1.3709,1.4481,1.5264,1.5827,1.6479,1.7082,1.7503,1.7886,1.8131,1.8153,1.8293,1.8433,1.8293,1.8143,1.7949,1.7583,1.7249,1.7303,1.6915,1.6615,1.6937,1.6361,1.5782,1.523,1.4321,1.3575,1.3142,1.2418,1.2038,1.2073,1.1758,1.1799,1.2577,1.2844,1.3674,1.5343,1.629,1.7349,1.8584,1.968,2.0457,2.1186,2.2391,2.3191,1.3498,1.3621,1.3884,1.3926,1.3775,1.3242,1.3054,1.2953,1.2701,1.2805,1.3063,1.2808,1.2553,1.229,1.1622,1.0991,1.0378,0.9666,0.8625,0.775,0.7601,0.7419,0.7219,0.7471,0.7546,0.7588,0.7803,0.7867,0.7801,0.7872,0.776,0.7474,0.7878,0.8834,1.0084,1.077,1.1587,1.2455,1.2004,1.1558,1.1277,1.0186,0.9163,0.8216,0.7143,0.5994,0.5111,0.4458,0.4082,0.4082,0.3853,0.3876,0.4044,0.3989,0.3937,0.388,0.3976,0.4068,0.4274,0.504,0.5781,0.6589,0.7854,0.8948,0.9648,1.0113,1.0607,1.1275,1.1847,1.2685,1.3817,1.4483,1.5395,1.6255,1.6746,1.7113,1.7749,1.8186,1.8433,1.8433,1.8433,1.8433,1.8293,1.8153,1.7993,1.7873,1.7475,1.7369,1.7391,1.7228,1.7077,1.7087,1.6903,1.6523,1.5959,1.5168,1.445,1.3692,1.2976,1.2438,1.2192,1.2001,1.2363,1.2964,1.3803,1.4867,1.629,1.7467,1.8519,1.9754,2.0754,2.1649,2.2167,2.298,2.3954,1.3761,1.4277,1.4408,1.4399,1.4232,1.3953,1.3552,1.3308,1.2939,1.28,1.2767,1.2521,1.2382,1.2235,1.1698,1.0932,0.9852,0.9362,0.8676,0.7852,0.7379,0.7331,0.7586,0.7714,0.7832,0.8055,0.8084,0.8024,0.8013,0.803,0.8084,0.8176,0.8209,0.905,1.0337,1.0848,1.1357,1.2009,1.1439,1.1187,1.1163,1.0065,0.8842,0.7978,0.6895,0.5881,0.4917,0.4372,0.4217,0.4214,0.41,0.422,0.4232,0.4172,0.4119,0.3937,0.4003,0.4212,0.4723,0.5468,0.618,0.7,0.8123,0.9226,0.9932,1.0838,1.1844,1.258,1.3579,1.4282,1.4849,1.542,1.6082,1.6887,1.7066,1.7323,1.8068,1.8422,1.8433,1.8433,1.8433,1.8433,1.8433,1.8272,1.8175,1.7919,1.7895,1.769,1.751,1.7434,1.7347,1.7378,1.6899,1.6637,1.6675,1.5629,1.461,1.4043,1.3297,1.2706,1.2363,1.2483,1.2955,1.3674,1.4857,1.6161,1.7701,1.9113,2.0141,2.0887,2.1892,2.2912,2.3756,2.396,2.4369,1.4146,1.4408,1.467,1.4539,1.4408,1.4268,1.3884,1.3367,1.3235,1.2964,1.2708,1.2444,1.2173,1.2041,1.1571,1.0663,0.9649,0.9144,0.8465,0.772,0.7412,0.7365,0.7182,0.7692,0.792,0.7975,0.7985,0.8089,0.8149,0.7901,0.7965,0.8329,0.8339,0.9181,1.0478,1.0925,1.1264,1.1903,1.1462,1.0885,1.0443,0.9625,0.8604,0.7633,0.6662,0.5686,0.495,0.4465,0.4086,0.4052,0.4046,0.4029,0.3998,0.4021,0.406,0.4,0.409,0.418,0.453,0.5362,0.6046,0.6313,0.7927,0.9148,0.9781,1.108,1.2222,1.3024,1.4047,1.4625,1.475,1.553,1.6365,1.7137,1.7217,1.7487,1.8282,1.8433,1.8433,1.8433,1.8573,1.8573,1.8412,1.8315,1.8058,1.7803,1.7844,1.7766,1.7443,1.7499,1.7664,1.768,1.7229,1.6904,1.6816,1.5971,1.4991,1.4183,1.3265,1.2508,1.2509,1.2603,1.3075,1.4282,1.5483,1.6903,1.8298,1.9679,2.0831,2.1654,2.2403,2.3252,2.4643,2.4491,2.4801,1.4408,1.4539,1.48,1.48,1.4539,1.4408,1.4015,1.363,1.3367,1.3104,1.2708,1.2437,1.2071,1.157,1.1269,1.0585,0.9661,0.8989,0.8189,0.7526,0.7393,0.7218,0.6885,0.7539,0.7762,0.7811,0.8092,0.8204,0.8274,0.7986,0.8049,0.8437,0.8688,0.9389,1.0426,1.0995,1.1337,1.1698,1.1404,1.0739,0.9837,0.9186,0.8255,0.7311,0.6385,0.5552,0.4946,0.436,0.4106,0.4063,0.406,0.4033,0.3978,0.3865,0.3896,0.3957,0.4052,0.4259,0.444,0.551,0.6046,0.6321,0.7747,0.9092,0.9775,1.1028,1.2158,1.3016,1.3904,1.4483,1.4901,1.5612,1.6461,1.7026,1.7168,1.759,1.8012,1.8153,1.8153,1.8153,1.8293,1.8563,1.8272,1.8165,1.8069,1.7898,1.7908,1.783,1.7615,1.7784,1.7917,1.7792,1.7418,1.6954,1.6581,1.5846,1.5117,1.4203,1.3181,1.2707,1.2699,1.2812,1.3286,1.4671,1.585,1.7316,1.8826,2.0082,2.1362,2.2332,2.3064,2.3768,2.4995,2.4666,2.5233,1.4539,1.48,1.4931,1.4931,1.48,1.4539,1.4137,1.3884,1.349,1.2972,1.2437,1.232,1.174,1.0921,1.0799,1.0326,0.9667,0.8867,0.8195,0.7526,0.7121,0.6982,0.6978,0.7383,0.7779,0.8005,0.8296,0.8383,0.8394,0.8301,0.835,0.8557,0.9133,0.9658,1.0306,1.1233,1.163,1.1322,1.117,1.0637,0.9456,0.8729,0.7921,0.7022,0.6043,0.5199,0.4628,0.4254,0.4125,0.4123,0.412,0.4093,0.3918,0.3702,0.3622,0.3675,0.4131,0.4434,0.4839,0.5774,0.6581,0.6996,0.8018,0.908,0.9908,1.0881,1.1733,1.2738,1.3468,1.4332,1.5328,1.5753,1.632,1.6734,1.7026,1.7308,1.7308,1.7721,1.7731,1.7449,1.759,1.7731,1.8012,1.8142,1.825,1.825,1.839,1.8272,1.8161,1.8101,1.8128,1.7873,1.7499,1.6883,1.6487,1.5559,1.4673,1.3913,1.3323,1.2926,1.3023,1.3251,1.4108,1.5115,1.642,1.7827,1.9344,2.0753,2.209,2.3135,2.4098,2.4898,2.5295,2.5088,2.5644,1.467,1.4539,1.48,1.48,1.4539,1.467,1.4408,1.3875,1.3752,1.3227,1.2328,1.2155,1.1709,1.0948,1.0444,0.9869,0.9115,0.8298,0.7718,0.713,0.6853,0.6719,0.6719,0.7259,0.7526,0.7779,0.8212,0.8421,0.8426,0.8443,0.8503,0.8701,0.9347,0.9877,1.0319,1.0982,1.138,1.1219,1.0805,1.0263,0.936,0.8245,0.7311,0.6411,0.5796,0.508,0.4251,0.4164,0.4052,0.3922,0.4052,0.4026,0.3722,0.3502,0.3277,0.3428,0.3873,0.4308,0.4708,0.5912,0.6849,0.6991,0.8023,0.8955,0.9769,1.0601,1.1308,1.2137,1.3182,1.4189,1.475,1.547,1.6028,1.6593,1.6875,1.7017,1.7168,1.7157,1.7157,1.7308,1.7449,1.7872,1.8012,1.8293,1.8433,1.8433,1.8433,1.8336,1.8397,1.8563,1.8463,1.8192,1.7684,1.7109,1.6508,1.5396,1.4419,1.3788,1.3291,1.3195,1.3134,1.3581,1.4318,1.5319,1.6673,1.803,1.9351,2.1341,2.269,2.3909,2.485,2.5182,2.5522,2.5522,2.6016,1.4467,1.4325,1.4536,1.4508,1.4227,1.4426,1.4277,1.3752,1.3621,1.2964,1.2204,1.1821,1.124,1.062,1.016,0.9348,0.8597,0.7986,0.7481,0.6987,0.6719,0.6455,0.6589,0.6991,0.7259,0.7517,0.8117,0.8475,0.8481,0.8546,0.8584,0.859,0.9262,0.9655,0.9921,1.0585,1.0857,1.0802,1.0466,0.9954,0.9288,0.8182,0.6974,0.6156,0.5519,0.493,0.3991,0.4034,0.3803,0.3555,0.3689,0.3682,0.3273,0.3023,0.3039,0.3187,0.388,0.444,0.4842,0.6183,0.7134,0.73,0.8178,0.8971,0.9544,1.0211,1.0889,1.1701,1.2753,1.3761,1.4332,1.4901,1.5753,1.6452,1.6593,1.6734,1.6744,1.6734,1.6734,1.6885,1.7157,1.758,1.7872,1.8023,1.8153,1.8293,1.8293,1.8497,1.8484,1.8812,1.8698,1.8172,1.7555,1.6859,1.5964,1.4855,1.4326,1.3837,1.3448,1.3378,1.3471,1.4051,1.4663,1.5679,1.6805,1.8013,1.9755,2.1741,2.3177,2.4334,2.5041,2.5414,2.5767,2.6053,2.6606,1.4173,1.3985,1.4118,1.4005,1.3695,1.3839,1.3761,1.3392,1.3005,1.25,1.1866,1.1305,1.0646,1.0046,0.9678,0.9024,0.8203,0.7788,0.7374,0.7009,0.6598,0.646,0.6455,0.6589,0.6991,0.7526,0.8318,0.8579,0.8573,0.8595,0.8606,0.8723,0.9012,0.9285,0.9117,0.9933,1.0199,1.0154,1.0032,0.9701,0.9423,0.8176,0.705,0.616,0.5353,0.4508,0.3596,0.3606,0.3502,0.3286,0.3296,0.3054,0.2809,0.266,0.2787,0.3216,0.39,0.4571,0.5379,0.6451,0.7296,0.7641,0.836,0.9021,0.949,0.9989,1.0618,1.1429,1.2323,1.3039,1.3904,1.4617,1.5328,1.6037,1.6461,1.6452,1.6028,1.631,1.6593,1.632,1.6593,1.6734,1.6875,1.7308,1.7741,1.7872,1.8153,1.8433,1.8508,1.8854,1.8516,1.762,1.7086,1.6581,1.541,1.4399,1.4137,1.3849,1.3587,1.3491,1.3758,1.4116,1.4757,1.5661,1.6859,1.8218,1.9898,2.1766,2.324,2.4334,2.4913,2.5611,2.5993,2.6377,2.6961,1.4801,1.4135,1.4477,1.4103,1.3468,1.3652,1.3678,1.3436,1.2736,1.2248,1.2005,1.1179,1.0582,1.007,0.9581,0.8881,0.7988,0.7635,0.7248,0.6838,0.6681,0.6373,0.6191,0.6317,0.6853,0.7517,0.8189,0.859,0.86,0.8671,0.8677,0.8762,0.916,0.9278,0.914,0.96,0.9893,0.9788,0.9395,0.9199,0.9051,0.7873,0.6873,0.6173,0.5394,0.4508,0.3253,0.3413,0.3326,0.2858,0.3148,0.3185,0.2952,0.2682,0.2682,0.2959,0.4034,0.4705,0.5111,0.6455,0.7435,0.7801,0.8428,0.8965,0.9258,0.9775,1.0263,1.0881,1.1749,1.261,1.3468,1.4189,1.5044,1.5753,1.6178,1.632,1.6037,1.5886,1.5753,1.547,1.5895,1.6461,1.6734,1.7017,1.7168,1.759,1.8012,1.8433,1.8541,1.8805,1.8902,1.7949,1.7234,1.6297,1.5252,1.4349,1.3884,1.3621,1.3544,1.3475,1.3743,1.428,1.4799,1.5724,1.6947,1.8383,2.0094,2.1626,2.3099,2.4514,2.5436,2.5989,2.6343,2.6839,2.7496,1.4707,1.3976,1.4314,1.3814,1.3035,1.3092,1.3006,1.2791,1.2079,1.171,1.1469,1.076,1.0266,0.9842,0.9303,0.8586,0.7988,0.7531,0.7148,0.6607,0.659,0.6401,0.6057,0.6451,0.6719,0.725,0.8184,0.859,0.859,0.8526,0.8553,0.8558,0.867,0.8834,0.8866,0.8922,0.9183,0.9332,0.8989,0.8657,0.8596,0.7842,0.685,0.6022,0.5478,0.4428,0.3141,0.3293,0.3069,0.2585,0.2498,0.2537,0.2558,0.2559,0.2559,0.3096,0.3768,0.4574,0.5108,0.6317,0.7319,0.7712,0.8352,0.8884,0.9166,0.9706,1.0017,1.0599,1.1599,1.2466,1.3039,1.4047,1.4759,1.5186,1.5612,1.5895,1.5895,1.547,1.5328,1.5328,1.5753,1.6028,1.6452,1.6593,1.6875,1.7308,1.7872,1.8293,1.8401,1.8721,1.8346,1.7771,1.6817,1.5923,1.4976,1.4174,1.3638,1.3498,1.3358,1.3456,1.3578,1.4241,1.4903,1.5923,1.7001,1.8279,1.9897,2.1455,2.2837,2.4236,2.5781,2.6402,2.6872,2.7844,2.8375,1.4215,1.3612,1.3871,1.3231,1.2224,1.2406,1.2157,1.171,1.1199,1.0942,1.0544,1.01,0.9712,0.9536,0.8771,0.8203,0.795,0.7472,0.6966,0.6748,0.6586,0.627,0.5923,0.6451,0.6719,0.6719,0.7922,0.859,0.8456,0.836,0.8117,0.8214,0.7981,0.8016,0.8213,0.7975,0.8347,0.8927,0.8491,0.8288,0.8462,0.7695,0.6836,0.59,0.5321,0.438,0.3342,0.3093,0.2712,0.2074,0.1589,0.1609,0.2019,0.2155,0.2558,0.3096,0.3497,0.4305,0.5248,0.6069,0.6948,0.7654,0.8124,0.863,0.9104,0.9435,0.9879,1.0455,1.1462,1.2323,1.3039,1.4047,1.4617,1.4625,1.5186,1.5461,1.5461,1.4901,1.4901,1.5328,1.5612,1.5753,1.6178,1.632,1.6603,1.7168,1.758,1.8153,1.8282,1.8369,1.7886,1.7292,1.6539,1.5729,1.4783,1.4235,1.3578,1.3436,1.3269,1.3344,1.3532,1.4164,1.4941,1.5844,1.712,1.8267,1.9699,2.1254,2.2955,2.4694,2.5821,2.6598,2.748,2.8431,2.8915,1.4364,1.362,1.3719,1.2928,1.1869,1.1927,1.1845,1.1341,1.0876,1.0754,1.0637,0.9815,0.949,0.9558,0.853,0.8067,0.7739,0.7157,0.6814,0.6598,0.659,0.613,0.5796,0.6183,0.6585,0.6585,0.7789,0.8456,0.82,0.8137,0.8058,0.782,0.7826,0.7874,0.7994,0.7917,0.8033,0.8208,0.7986,0.7805,0.7757,0.7134,0.6514,0.5788,0.4985,0.4042,0.3105,0.2086,0.1835,0.1967,0.1318,0.1066,0.1479,0.1885,0.2425,0.2828,0.3633,0.4174,0.472,0.5836,0.6739,0.7122,0.7753,0.8292,0.8853,0.9013,0.9446,1.0311,1.1319,1.218,1.3039,1.3753,1.4189,1.4474,1.4901,1.5044,1.4901,1.4617,1.4617,1.5044,1.5186,1.547,1.6037,1.6461,1.6593,1.7017,1.758,1.8142,1.8153,1.8153,1.7949,1.7187,1.649,1.5681,1.4862,1.4164,1.3679,1.3407,1.3349,1.3251,1.3661,1.405,1.4819,1.5574,1.7001,1.8186,1.9824,2.1376,2.3176,2.4939,2.6188,2.7264,2.8034,2.8817,2.9155,1.4638,1.362,1.3908,1.3006,1.1545,1.1776,1.1423,1.0488,1.0275,1.0167,0.9879,0.959,0.9242,0.9133,0.8369,0.7725,0.7507,0.6983,0.6656,0.6545,0.6258,0.5825,0.5655,0.6049,0.6451,0.6585,0.7789,0.822,0.8132,0.7927,0.758,0.74,0.7222,0.7265,0.7416,0.7161,0.7433,0.7771,0.7553,0.7359,0.7133,0.6813,0.6061,0.5461,0.4652,0.397,0.3029,0.1855,0.1061,0.119,0.1325,0.1335,0.121,0.175,0.229,0.2694,0.3367,0.3777,0.4338,0.5176,0.5924,0.6454,0.7226,0.7713,0.8395,0.8579,0.9163,1.0599,1.1312,1.2173,1.3325,1.3753,1.4047,1.4189,1.4332,1.4332,1.4483,1.4332,1.4474,1.4759,1.5052,1.5328,1.632,1.6593,1.6875,1.7157,1.7731,1.8002,1.8002,1.8012,1.7721,1.6967,1.6177,1.5199,1.4683,1.4009,1.3804,1.3538,1.3538,1.3576,1.373,1.4219,1.4723,1.5629,1.6957,1.8256,1.9877,2.1586,2.352,2.5252,2.6627,2.7825,2.8672,2.914,2.9449,1.4647,1.3512,1.4221,1.3239,1.1409,1.1557,1.0779,0.9574,0.9735,0.9446,0.9013,0.9147,0.8913,0.8535,0.7999,0.7626,0.7124,0.6798,0.6607,0.625,0.5803,0.5383,0.5383,0.6049,0.6317,0.6585,0.7522,0.7983,0.7912,0.7401,0.6949,0.6774,0.6547,0.6463,0.6634,0.6242,0.6653,0.7308,0.6977,0.6762,0.6525,0.6344,0.5744,0.4885,0.4182,0.3636,0.2821,0.1881,0.0937,0.0397,0.1472,0.1748,0.1346,0.1885,0.229,0.2562,0.2701,0.3121,0.3959,0.4218,0.4801,0.5768,0.6321,0.7059,0.7759,0.8237,0.912,1.0693,1.1305,1.2316,1.3476,1.3904,1.3753,1.3611,1.3468,1.3611,1.4047,1.4047,1.4189,1.4901,1.5044,1.5612,1.631,1.6875,1.7017,1.7439,1.7861,1.7861,1.7721,1.7449,1.7026,1.6452,1.5643,1.4824,1.4326,1.3833,1.38,1.3645,1.3816,1.3913,1.4147,1.4565,1.5036,1.5749,1.7029,1.8415,2.0102,2.1853,2.3888,2.5715,2.7234,2.8368,2.9353,2.9542,2.9743,1.3737,1.2986,1.3128,1.2273,1.0843,1.0699,1.0287,0.9302,0.9307,0.9302,0.9141,0.8923,0.8682,0.8428,0.7645,0.7247,0.6922,0.6727,0.6449,0.6153,0.5265,0.4977,0.5108,0.5915,0.6317,0.6719,0.7522,0.7853,0.7387,0.7155,0.6781,0.6333,0.6267,0.6151,0.603,0.5939,0.6112,0.6517,0.6177,0.6129,0.6078,0.574,0.5147,0.4428,0.357,0.2857,0.2429,0.1616,0.1344,0.1745,0.2016,0.2021,0.2021,0.2021,0.2157,0.2297,0.2313,0.2592,0.3127,0.3712,0.4159,0.4719,0.5308,0.5894,0.6902,0.7562,0.8586,1.0167,1.1096,1.2316,1.3484,1.3619,1.3333,1.3039,1.2904,1.3047,1.3476,1.3761,1.4189,1.4901,1.5328,1.5744,1.6593,1.7298,1.758,1.7861,1.7861,1.7861,1.7439,1.7026,1.6461,1.6046,1.515,1.4348,1.4181,1.3842,1.3966,1.4072,1.4229,1.4386,1.4614,1.4813,1.5247,1.604,1.7055,1.8611,2.0278,2.2313,2.4396,2.6099,2.7604,2.8818,2.9601,2.9913,3.0253,1.3658,1.2872,1.3161,1.2149,1.0699,1.0547,0.9937,0.8879,0.8729,0.8579,0.8569,0.8371,0.8149,0.7907,0.7292,0.6945,0.659,0.6168,0.5906,0.5611,0.5011,0.4977,0.5242,0.5778,0.6183,0.6317,0.7121,0.7332,0.7164,0.6936,0.6585,0.598,0.6001,0.5859,0.5574,0.547,0.5771,0.6066,0.5918,0.5737,0.5383,0.5097,0.4348,0.3758,0.3034,0.2596,0.2158,0.1481,0.1616,0.2021,0.2155,0.2155,0.2155,0.1886,0.1756,0.1905,0.2051,0.2341,0.2757,0.304,0.3471,0.3882,0.4444,0.5428,0.6442,0.7217,0.8687,1.0137,1.1219,1.218,1.3348,1.3434,1.2979,1.2496,1.2244,1.2539,1.3062,1.3611,1.4332,1.5044,1.547,1.6169,1.7017,1.758,1.7861,1.7861,1.7861,1.7721,1.7157,1.6593,1.6037,1.547,1.4759,1.4164,1.388,1.3863,1.414,1.4398,1.4806,1.4814,1.4938,1.5262,1.5561,1.6479,1.7379,1.8731,2.0424,2.2668,2.4643,2.6203,2.7735,2.9036,2.9994,3.0477,3.0932,1.3786,1.289,1.316,1.2269,1.0804,1.0486,0.968,0.8304,0.8155,0.815,0.7706,0.7991,0.7764,0.7429,0.6965,0.65,0.6155,0.5663,0.5355,0.5208,0.4873,0.4845,0.5248,0.5527,0.593,0.6049,0.6719,0.7088,0.7087,0.6873,0.65,0.5911,0.5743,0.556,0.5276,0.5146,0.5298,0.559,0.5496,0.5186,0.4676,0.4545,0.3806,0.3044,0.2614,0.2458,0.2162,0.1616,0.1346,0.1885,0.2023,0.2161,0.2026,0.1757,0.1087,0.1378,0.18,0.2364,0.2507,0.264,0.2914,0.3357,0.3863,0.4678,0.583,0.6873,0.8339,0.9989,1.1077,1.2093,1.2956,1.3047,1.2757,1.2251,1.1859,1.1997,1.2647,1.3325,1.4181,1.5186,1.5744,1.6452,1.7157,1.7721,1.7861,1.7861,1.7721,1.7439,1.6734,1.6169,1.547,1.5044,1.4189,1.3896,1.3611,1.4189,1.4332,1.4759,1.5186,1.547,1.547,1.5962,1.6389,1.6796,1.7705,1.9182,2.0825,2.2952,2.4836,2.6458,2.8164,2.9789,3.0577,3.0987,3.1416,1.3185,1.2607,1.2325,1.1537,1.0645,0.982,0.92,0.8584,0.8164,0.801,0.7856,0.7634,0.7455,0.7132,0.6493,0.6178,0.5737,0.5263,0.5084,0.5065,0.4741,0.4577,0.513,0.5437,0.5705,0.6061,0.6598,0.6966,0.6827,0.6733,0.6512,0.6147,0.5866,0.555,0.5097,0.497,0.4997,0.5143,0.4913,0.4619,0.4422,0.3831,0.3383,0.2759,0.2478,0.2325,0.203,0.1482,0.0943,0.0539,0.1498,0.2054,0.2059,0.1922,0.1381,0.0838,0.155,0.2262,0.2391,0.2384,0.2504,0.276,0.3275,0.3787,0.4765,0.5787,0.7548,0.9214,1.0986,1.2358,1.2525,1.2546,1.2336,1.1963,1.1791,1.1798,1.2345,1.3047,1.3896,1.4901,1.5744,1.6734,1.7288,1.77,1.7679,1.7409,1.7157,1.6744,1.6178,1.547,1.4617,1.4189,1.3753,1.3468,1.3325,1.4189,1.4759,1.5044,1.5612,1.6169,1.631,1.6744,1.7217,1.7364,1.8074,1.9229,2.1136,2.3208,2.5101,2.6731,2.8634,3.0589,3.1096,3.1441,3.1614,1.2727,1.2501,1.1831,1.1205,1.0322,0.9584,0.8805,0.8155,0.7521,0.7202,0.7177,0.6821,0.6637,0.6339,0.5887,0.5544,0.5184,0.4875,0.4681,0.4632,0.4456,0.4597,0.5163,0.5485,0.588,0.6262,0.68,0.6859,0.6717,0.6725,0.6657,0.6316,0.588,0.5534,0.5216,0.497,0.4834,0.4843,0.461,0.4186,0.3966,0.3239,0.2779,0.2489,0.2351,0.2207,0.2051,0.1647,0.0825,0.0413,0.0692,0.1394,0.168,0.1404,0.0844,0.0425,0.1141,0.2001,0.2273,0.2267,0.239,0.2481,0.2866,0.3521,0.4468,0.5607,0.7248,0.9253,1.0364,1.1721,1.2011,1.2088,1.1901,1.1667,1.1667,1.1818,1.2215,1.2911,1.3619,1.46,1.522,1.6206,1.7419,1.7529,1.7358,1.7097,1.6583,1.6037,1.5479,1.4759,1.4047,1.3619,1.3325,1.3182,1.3182,1.4039,1.4759,1.5186,1.5753,1.6452,1.6875,1.7168,1.7449,1.7529,1.8468,1.9444,2.1318,2.3267,2.5165,2.7076,2.8782,3.0413,3.1271,3.1849,3.193,1.2437,1.2407,1.1626,1.0877,1.0318,0.9618,0.8668,0.7827,0.7001,0.6658,0.6349,0.6002,0.5822,0.568,0.5373,0.503,0.4771,0.4619,0.4422,0.4354,0.4335,0.4768,0.5364,0.5667,0.5942,0.6578,0.6885,0.6927,0.6713,0.6864,0.6689,0.6482,0.6033,0.5547,0.5376,0.4982,0.4817,0.4695,0.4456,0.4025,0.3237,0.2626,0.2195,0.22,0.2223,0.2223,0.2214,0.1669,0.1258,0.07,0.0422,0.0566,0.1286,0.0718,0.0144,0.0431,0.1006,0.1581,0.2155,0.2432,0.2409,0.251,0.3044,0.3702,0.4379,0.5812,0.7603,0.9815,1.0655,1.1115,1.1583,1.1775,1.1748,1.1674,1.1556,1.1742,1.2086,1.2617,1.319,1.3989,1.471,1.571,1.6957,1.7177,1.6987,1.6545,1.6037,1.5328,1.4759,1.4047,1.3476,1.319,1.2896,1.2896,1.3039,1.3753,1.4332,1.4901,1.5612,1.6461,1.6875,1.7157,1.7439,1.771,1.8683,1.9795,2.154,2.3384,2.5301,2.7225,2.8849,3.0348,3.1431,3.1897,3.1932,1.225,1.225,1.1364,1.0938,1.072,0.9591,0.873,0.8192,0.729,0.6786,0.6301,0.5981,0.568,0.5683,0.5392,0.5027,0.48,0.4628,0.4455,0.4395,0.439,0.4833,0.5454,0.5662,0.6019,0.6656,0.71,0.6983,0.6873,0.7013,0.7102,0.6793,0.6195,0.5706,0.555,0.5003,0.4712,0.4432,0.4049,0.3309,0.253,0.2332,0.2184,0.2198,0.2211,0.2225,0.21,0.1688,0.1409,0.1691,0.0711,0.0143,0.0287,0.0145,0.0872,0.1456,0.1748,0.1456,0.2178,0.2595,0.2861,0.2973,0.3377,0.3778,0.4608,0.5761,0.7562,0.9131,0.9966,1.0596,1.1471,1.1823,1.1907,1.1687,1.1502,1.166,1.1763,1.2338,1.2904,1.3413,1.4156,1.5325,1.6404,1.6438,1.636,1.5934,1.547,1.4759,1.4047,1.3333,1.2904,1.2617,1.276,1.2753,1.3039,1.3611,1.4189,1.4759,1.547,1.632,1.6734,1.7157,1.758,1.8068,1.8924,2.005,2.1713,2.3476,2.5606,2.7315,2.8991,3.0413,3.1896,3.1963,3.1823,1.1482,1.1403,1.0739,1.0492,1.0298,0.9244,0.8583,0.8035,0.6923,0.6411,0.604,0.5405,0.5247,0.5101,0.4956,0.4907,0.469,0.4531,0.4501,0.4455,0.4589,0.4896,0.5514,0.5696,0.6081,0.6766,0.7336,0.7499,0.7349,0.7187,0.7235,0.7246,0.6368,0.575,0.559,0.5039,0.4743,0.4438,0.3856,0.3134,0.2399,0.2218,0.2195,0.2225,0.2241,0.2256,0.1985,0.1716,0.1721,0.2011,0.1156,0.0724,0.0869,0.1018,0.1606,0.146,0.1751,0.2041,0.2331,0.2609,0.3029,0.3439,0.3843,0.4107,0.4814,0.5973,0.7612,0.9157,0.9641,1.0256,1.085,1.1438,1.1549,1.1502,1.1345,1.1489,1.1633,1.2051,1.261,1.3113,1.3633,1.4664,1.5397,1.5597,1.556,1.5388,1.475,1.4047,1.3333,1.2617,1.2187,1.1907,1.233,1.2753,1.3182,1.3619,1.4198,1.4776,1.5337,1.6046,1.6593,1.7017,1.7439,1.8078,1.8992,2.0257,2.1859,2.3863,2.5918,2.7557,2.8957,3.0255,3.1421,3.1862,3.1769,1.0447,1.0416,1.0116,0.9899,0.973,0.9026,0.8365,0.7807,0.6804,0.6127,0.5766,0.5122,0.4665,0.4665,0.466,0.4774,0.4715,0.4572,0.4548,0.4518,0.4653,0.4967,0.558,0.5743,0.6162,0.6851,0.7544,0.7695,0.7677,0.7522,0.7553,0.7562,0.6398,0.5794,0.563,0.5066,0.4638,0.4174,0.3698,0.2984,0.2416,0.2238,0.2234,0.2253,0.2277,0.2151,0.1872,0.1738,0.1748,0.2041,0.1894,0.1457,0.1312,0.1605,0.1898,0.1898,0.2188,0.2334,0.248,0.2765,0.3341,0.3765,0.4184,0.4472,0.5295,0.6305,0.7621,0.9168,0.9457,0.9891,1.0317,1.0906,1.0906,1.0925,1.1083,1.1227,1.1385,1.1694,1.199,1.2532,1.3047,1.3539,1.4248,1.4621,1.463,1.4574,1.4039,1.3476,1.276,1.2043,1.1907,1.1763,1.233,1.279,1.3298,1.3714,1.4272,1.4971,1.5399,1.5781,1.6481,1.6895,1.7168,1.8047,1.9037,2.0294,2.1608,2.4006,2.6215,2.7574,2.8838,2.9903,3.0859,3.1344,3.1815,0.9706,0.9221,0.9516,0.9796,0.9837,0.8669,0.7964,0.7876,0.688,0.6205,0.5703,0.5101,0.4665,0.4668,0.4665,0.4638,0.4723,0.4575,0.4572,0.4715,0.4715,0.5173,0.564,0.5939,0.621,0.7019,0.7732,0.8012,0.7998,0.7865,0.7764,0.7408,0.6406,0.5967,0.5525,0.509,0.4371,0.4054,0.3584,0.3141,0.2569,0.2266,0.226,0.2281,0.2292,0.2015,0.1311,0.1458,0.1751,0.2335,0.2335,0.2043,0.1898,0.2189,0.2335,0.248,0.2625,0.2773,0.2778,0.3074,0.3522,0.3985,0.443,0.4839,0.5505,0.6383,0.7711,0.9023,0.9307,0.9879,1.0023,1.0167,1.0348,1.0674,1.0869,1.0932,1.1085,1.1237,1.167,1.1935,1.2453,1.2956,1.3317,1.3713,1.3956,1.388,1.3611,1.2904,1.233,1.1763,1.1763,1.1763,1.233,1.2835,1.3306,1.3881,1.4686,1.5145,1.5605,1.5919,1.6245,1.6651,1.6964,1.7767,1.8738,2.0134,2.1621,2.3779,2.575,2.7418,2.8737,2.9561,3.0255,3.0703,3.1331,0.9197,0.8915,0.8615,0.8741,0.9236,0.8361,0.7955,0.7703,0.6861,0.6044,0.5396,0.4956,0.4687,0.4703,0.4679,0.4679,0.4676,0.464,0.4632,0.4774,0.4924,0.537,0.568,0.6116,0.6536,0.7225,0.7801,0.8232,0.838,0.8222,0.8102,0.7562,0.67,0.6116,0.568,0.5098,0.4519,0.4213,0.3751,0.3158,0.2742,0.2435,0.2288,0.2313,0.2316,0.2175,0.1894,0.1895,0.2188,0.2625,0.2771,0.2625,0.2627,0.2919,0.3065,0.3063,0.321,0.3222,0.3388,0.3686,0.4142,0.4445,0.4749,0.5028,0.556,0.6413,0.7425,0.8295,0.9307,0.9885,1.0029,1.0088,1.0298,1.0468,1.0675,1.0607,1.0785,1.1082,1.1379,1.1804,1.2004,1.2344,1.2576,1.2812,1.3062,1.3039,1.276,1.2474,1.1907,1.1619,1.1619,1.19,1.2474,1.3199,1.3675,1.44,1.5095,1.5448,1.5949,1.6257,1.6415,1.6377,1.6787,1.757,1.8589,1.9999,2.1489,2.3422,2.5345,2.7047,2.8096,2.898,2.9561,3.0083,3.0833,0.8725,0.8721,0.8182,0.8153,0.8443,0.8021,0.7794,0.7587,0.7021,0.6226,0.5455,0.5017,0.4739,0.4758,0.4722,0.4858,0.4869,0.4839,0.4962,0.5241,0.5528,0.5829,0.6119,0.6551,0.7131,0.7715,0.815,0.8435,0.8569,0.8295,0.815,0.7715,0.7135,0.641,0.5683,0.5101,0.4665,0.4506,0.4054,0.3319,0.291,0.2606,0.2308,0.233,0.233,0.233,0.2187,0.2187,0.248,0.2917,0.3063,0.3209,0.3502,0.3648,0.3648,0.3652,0.3663,0.3829,0.4004,0.4344,0.4496,0.4646,0.4815,0.508,0.5766,0.6458,0.719,0.7911,0.905,0.9752,0.9919,1.0012,1.0234,1.0417,1.0243,1.0318,1.0619,1.092,1.1377,1.1821,1.2006,1.2178,1.2053,1.228,1.2503,1.2474,1.233,1.2051,1.1907,1.1619,1.1763,1.2043,1.2466,1.339,1.4203,1.4759,1.5354,1.5807,1.6277,1.6618,1.6806,1.6739,1.7191,1.8301,1.9161,2.0059,2.1301,2.3116,2.4894,2.6777,2.7882,2.887,2.9246,2.993,3.049,0.8597,0.8331,0.8067,0.8048,0.8114,0.7494,0.7305,0.7321,0.7045,0.6571,0.5869,0.5127,0.4831,0.4826,0.4774,0.4906,0.5203,0.5146,0.5399,0.5842,0.6123,0.6555,0.6986,0.7276,0.7715,0.815,0.844,0.8584,0.8724,0.8295,0.815,0.786,0.728,0.6555,0.5829,0.5098,0.4665,0.4665,0.4366,0.3639,0.3205,0.291,0.2766,0.2622,0.2478,0.2478,0.2478,0.2478,0.2771,0.3209,0.3354,0.35,0.3646,0.3798,0.3802,0.3656,0.399,0.4159,0.4022,0.4565,0.4888,0.4856,0.4872,0.5018,0.5431,0.6131,0.6973,0.7855,0.8826,0.9545,0.9877,1.0098,1.0179,1.0254,1.0224,1.014,1.0597,1.0908,1.1365,1.1808,1.1985,1.1999,1.185,1.1873,1.1949,1.2058,1.1763,1.1763,1.1763,1.1763,1.1907,1.233,1.2617,1.3434,1.4359,1.5233,1.5771,1.6098,1.6591,1.7073,1.739,1.7408,1.8001,1.8877,1.9598,2.009,2.1276,2.259,2.4639,2.6809,2.806,2.8994,2.9277,2.9794,3.0395,0.824,0.7864,0.7186,0.7113,0.7181,0.7292,0.7248,0.7061,0.6563,0.6284,0.5892,0.5147,0.4872,0.4864,0.4818,0.5098,0.5443,0.5302,0.5551,0.633,0.6727,0.699,0.7421,0.786,0.815,0.844,0.8729,0.8874,0.9163,0.844,0.815,0.786,0.7135,0.67,0.641,0.5825,0.5392,0.5244,0.4808,0.4226,0.3789,0.35,0.3209,0.3063,0.3063,0.3063,0.3063,0.3063,0.3209,0.3646,0.3791,0.4085,0.4241,0.4397,0.4572,0.444,0.463,0.4532,0.4571,0.4946,0.4959,0.4935,0.4921,0.5066,0.5452,0.6183,0.6911,0.7805,0.88,0.9546,1.0494,1.0439,1.0515,1.0556,1.0491,1.04,1.0578,1.1041,1.1343,1.1619,1.1841,1.1951,1.1938,1.1983,1.2053,1.1963,1.1804,1.1921,1.1914,1.2051,1.2194,1.2617,1.3054,1.3818,1.4635,1.5386,1.5892,1.6238,1.6917,1.7654,1.7812,1.7956,1.8477,1.9271,1.9781,2.0269,2.1731,2.3188,2.4907,2.6719,2.7927,2.8801,2.9151,2.9813,3.0578,0.7897,0.737,0.6814,0.6392,0.6425,0.6754,0.6742,0.6582,0.6159,0.5909,0.5819,0.5217,0.4927,0.4929,0.5032,0.5295,0.5682,0.5819,0.6169,0.681,0.7177,0.7579,0.8005,0.8295,0.8729,0.8868,0.8874,0.9018,0.9163,0.844,0.8005,0.757,0.6994,0.6845,0.67,0.6261,0.5829,0.5683,0.5247,0.4665,0.4226,0.3935,0.3646,0.35,0.35,0.3502,0.3502,0.3646,0.3646,0.408,0.4519,0.4822,0.4991,0.5314,0.5357,0.5242,0.5144,0.5208,0.5114,0.4986,0.4992,0.4973,0.4967,0.51,0.552,0.6111,0.6857,0.7751,0.8785,0.9699,1.0486,1.0591,1.0938,1.0974,1.0714,1.0469,1.0635,1.1095,1.1604,1.1882,1.2347,1.2284,1.2237,1.2107,1.2171,1.2074,1.1983,1.2107,1.2223,1.2345,1.2496,1.2934,1.3499,1.4247,1.488,1.5407,1.594,1.6359,1.7178,1.811,1.8367,1.8361,1.9084,1.9635,2.0364,2.1261,2.2584,2.4052,2.5172,2.6275,2.7242,2.816,2.8854,2.9704,3.0604,0.7715,0.7003,0.6639,0.6183,0.5849,0.591,0.5975,0.605,0.5816,0.5569,0.5636,0.5156,0.5006,0.5,0.5414,0.5701,0.5985,0.6301,0.6849,0.7543,0.7915,0.8319,0.8729,0.9018,0.9157,0.9302,0.9302,0.9163,0.9163,0.844,0.7715,0.728,0.699,0.699,0.67,0.6551,0.6264,0.6119,0.5686,0.5101,0.4665,0.4374,0.4083,0.3937,0.3939,0.3937,0.3937,0.3937,0.408,0.4371,0.4662,0.4994,0.532,0.5793,0.5992,0.5909,0.5679,0.5736,0.5624,0.5332,0.5176,0.5162,0.5011,0.5329,0.5624,0.6042,0.6792,0.7684,0.8578,0.9503,1.0292,1.095,1.1459,1.1195,1.0773,1.0641,1.0796,1.1137,1.1823,1.2331,1.3019,1.3212,1.3195,1.3029,1.2515,1.2402,1.2318,1.2393,1.2482,1.2632,1.2934,1.3418,1.3985,1.4542,1.5193,1.5931,1.6086,1.6536,1.7417,1.8178,1.8453,1.9096,1.9686,2.0523,2.1269,2.225,2.3333,2.4025,2.4795,2.5801,2.6706,2.7719,2.8504,2.9501,3.0355,0.7715,0.6994,0.6286,0.57,0.5399,0.5122,0.5462,0.5978,0.5597,0.5514,0.5581,0.5159,0.5008,0.5016,0.5423,0.589,0.6145,0.6517,0.7203,0.7878,0.8377,0.8754,0.9157,0.9452,0.9446,0.9446,0.9302,0.9302,0.9163,0.844,0.7715,0.7135,0.699,0.699,0.699,0.6986,0.6845,0.6555,0.6123,0.5686,0.5247,0.4956,0.4665,0.4665,0.4665,0.4665,0.481,0.4953,0.5098,0.5244,0.5683,0.6012,0.5783,0.6141,0.6366,0.6193,0.6082,0.6098,0.6115,0.5958,0.5802,0.5492,0.5492,0.5495,0.5799,0.6254,0.6855,0.7761,0.8823,0.9757,1.0543,1.1201,1.1702,1.1578,1.1155,1.1023,1.1191,1.1547,1.2082,1.3096,1.3641,1.3793,1.3781,1.3436,1.292,1.2785,1.282,1.2719,1.2765,1.2917,1.3282,1.3922,1.4413,1.5,1.5867,1.6627,1.6711,1.6972,1.7694,1.8336,1.8777,1.9415,2.0307,2.1249,2.2079,2.295,2.3971,2.4442,2.4645,2.5172,2.5965,2.7137,2.818,2.9151,2.9987,0.757,0.6696,0.6116,0.5538,0.4956,0.481,0.4979,0.5465,0.523,0.5144,0.5205,0.5086,0.4951,0.4948,0.5553,0.6028,0.6203,0.6683,0.736,0.823,0.8538,0.8905,0.9302,0.959,0.9446,0.9302,0.9302,0.9302,0.9023,0.844,0.7715,0.699,0.699,0.699,0.7135,0.7276,0.7276,0.699,0.67,0.6268,0.5832,0.5538,0.5392,0.5392,0.5392,0.5683,0.5829,0.5825,0.5825,0.5825,0.6119,0.6323,0.6276,0.6687,0.7072,0.7041,0.6736,0.6584,0.6431,0.6271,0.6118,0.5962,0.5962,0.6118,0.6275,0.6736,0.7357,0.8283,0.9071,1.0014,1.0814,1.146,1.1797,1.1972,1.1704,1.1433,1.1628,1.1823,1.2682,1.3554,1.4076,1.4266,1.3995,1.3654,1.3162,1.2838,1.2684,1.2863,1.3067,1.3243,1.3897,1.4625,1.5001,1.55,1.6398,1.6953,1.6944,1.7102,1.7635,1.8168,1.886,1.9799,2.0911,2.1971,2.3011,2.3705,2.4241,2.4344,2.4617,2.5081,2.5741,2.6599,2.7627,2.8444,2.9419,0.7421,0.6551,0.597,0.5392,0.481,0.481,0.4813,0.467,0.4872,0.4782,0.4831,0.4845,0.4861,0.503,0.5663,0.6152,0.6452,0.6823,0.7519,0.844,0.8538,0.8874,0.9157,0.9302,0.9446,0.9302,0.9307,0.9173,0.9039,0.8474,0.7756,0.7007,0.7031,0.7052,0.7202,0.761,0.7606,0.746,0.7293,0.699,0.6555,0.6119,0.597,0.5974,0.5974,0.597,0.597,0.597,0.5974,0.6119,0.6294,0.6802,0.6958,0.7253,0.7648,0.7833,0.7529,0.7373,0.7213,0.69,0.6584,0.6431,0.6271,0.674,0.7213,0.7056,0.7681,0.8774,0.9553,1.033,1.1125,1.1829,1.2037,1.2233,1.1963,1.1855,1.1899,1.2442,1.35,1.4216,1.4607,1.4622,1.4415,1.3916,1.3418,1.2908,1.2594,1.2761,1.3115,1.3461,1.4284,1.4965,1.545,1.5851,1.6563,1.7076,1.6982,1.7231,1.7674,1.8346,1.9051,2.0087,2.132,2.2422,2.3523,2.395,2.4385,2.4592,2.4847,2.5481,2.5996,2.6512,2.727,2.8105,2.8926,0.786,0.7276,0.6261,0.5538,0.5101,0.5104,0.4956,0.4665,0.4679,0.4722,0.4777,0.482,0.4842,0.4996,0.5613,0.6104,0.6288,0.6951,0.7664,0.8225,0.8685,0.9018,0.9307,0.959,0.959,0.9446,0.9313,0.9066,0.8675,0.8264,0.7869,0.7331,0.7178,0.717,0.7166,0.7716,0.797,0.7806,0.8052,0.7869,0.7421,0.699,0.67,0.6555,0.6555,0.6696,0.6841,0.7131,0.728,0.7575,0.7792,0.7778,0.7655,0.7933,0.8145,0.8159,0.8315,0.831,0.8154,0.7994,0.7838,0.7677,0.7677,0.7989,0.7989,0.7681,0.7994,0.9241,1.0175,1.0796,1.146,1.203,1.245,1.2503,1.2409,1.2295,1.2179,1.3078,1.4164,1.4564,1.5131,1.4959,1.4594,1.4157,1.3507,1.3027,1.2705,1.2731,1.3098,1.3617,1.4446,1.5136,1.5518,1.6046,1.6747,1.7237,1.7302,1.7471,1.7951,1.8471,1.9275,2.0452,2.1609,2.284,2.3746,2.4174,2.4651,2.5154,2.5469,2.5914,2.6339,2.6892,2.7385,2.8138,2.887,0.7791,0.7356,0.621,0.5653,0.5535,0.5538,0.5247,0.4956,0.4956,0.4976,0.4861,0.4898,0.4779,0.4801,0.5553,0.6074,0.627,0.6907,0.7651,0.8225,0.8705,0.9044,0.9446,0.9746,0.959,0.9452,0.9372,0.9139,0.8612,0.8364,0.8117,0.7565,0.7419,0.7268,0.7415,0.7805,0.8053,0.8007,0.8538,0.8494,0.8164,0.786,0.757,0.7425,0.7425,0.7425,0.757,0.786,0.786,0.8057,0.8141,0.8388,0.8398,0.8534,0.8608,0.8934,0.909,0.909,0.9246,0.9251,0.9251,0.9095,0.9246,0.9558,0.9547,0.9241,0.9392,1.0486,1.1107,1.1882,1.2331,1.2766,1.338,1.3632,1.3429,1.3356,1.3214,1.3582,1.4295,1.4646,1.4856,1.4848,1.4631,1.4371,1.3908,1.3535,1.3228,1.2965,1.3354,1.3567,1.4423,1.5105,1.548,1.6045,1.6715,1.7208,1.7502,1.7844,1.8177,1.9067,1.994,2.0876,2.19,2.2928,2.3786,2.4296,2.479,2.5369,2.5857,2.6275,2.6764,2.7286,2.7771,2.8209,2.876,0.7874,0.7295,0.6286,0.5901,0.5822,0.5825,0.5683,0.5396,0.5247,0.525,0.5259,0.4976,0.4855,0.5034,0.5339,0.5886,0.6362,0.6997,0.7756,0.835,0.8962,0.9211,0.9345,0.963,0.9658,0.9557,0.947,0.9377,0.9133,0.8745,0.8488,0.8044,0.7599,0.7452,0.7444,0.7574,0.7849,0.8248,0.8637,0.9019,0.881,0.8594,0.83,0.815,0.8155,0.8155,0.8155,0.815,0.815,0.8358,0.8455,0.8706,0.8794,0.877,0.9156,0.9341,0.9661,0.9832,1.0019,1.0208,1.0208,1.0208,1.0676,1.0987,1.0981,1.1137,1.1137,1.1604,1.2232,1.2745,1.3204,1.3525,1.4157,1.4437,1.4252,1.4203,1.421,1.421,1.4383,1.4713,1.4713,1.4713,1.4661,1.4401,1.4349,1.398,1.3908,1.3821,1.372,1.3778,1.4155,1.4844,1.5212,1.5949,1.6681,1.7111,1.7416,1.8035,1.8481,1.9552,2.0458,2.106,2.19,2.2928,2.3627,2.4233,2.5027,2.5641,2.6149,2.6572,2.7079,2.7605,2.7875,2.8286,2.8803,0.8117,0.7531,0.6884,0.6478,0.6257,0.6264,0.6119,0.5683,0.568,0.568,0.5696,0.5746,0.5786,0.5789,0.6019,0.6385,0.6517,0.7125,0.7677,0.8288,0.8785,0.9092,0.941,0.9697,0.9798,0.9854,0.9899,0.9677,0.9553,0.9314,0.8784,0.8229,0.8088,0.7774,0.7611,0.7723,0.796,0.8209,0.861,0.9153,0.9387,0.9003,0.8744,0.844,0.83,0.844,0.844,0.8584,0.8729,0.8915,0.9003,0.8963,0.905,0.9127,0.935,0.9741,1.0059,1.0417,1.0618,1.1011,1.1185,1.1209,1.1691,1.203,1.2187,1.2678,1.2834,1.2998,1.3476,1.349,1.3944,1.4135,1.4614,1.4675,1.446,1.4683,1.4878,1.4713,1.4713,1.4721,1.4721,1.4721,1.4706,1.4646,1.478,1.4401,1.4171,1.4084,1.385,1.3778,1.4039,1.4395,1.4915,1.5717,1.6536,1.6815,1.7264,1.7873,1.8795,1.9703,2.0458,2.0921,2.1739,2.2978,2.3624,2.4262,2.4919,2.5913,2.6415,2.6875,2.7326,2.7605,2.8151,2.8489,2.9026]}]]